<?xml version="1.0" encoding="UTF-8" standalone="no" ?>
<gpx xmlns="http://www.topografix.com/GPX/1/1" xmlns:xsi="http://www.w3.org/2001/XMLSchema-instance" xsi:schemaLocation="http://www.topografix.com/GPX/1/1 http://www.topografix.com/GPX/1/1/gpx.xsd" version="1.1" creator="VisuGPX - https://www.visugpx.com">
  <metadata>
    <name>arfeuilles 47 kms 2011</name>
    <desc><![CDATA[Rando au depart d arfeuilles boucle des 60kms shuntée]]></desc>
  </metadata>
  <trk>
    <name><![CDATA[track]]></name>
    <trkseg>
      <trkpt lat="46.15788" lon="3.72948">
        <ele>418</ele>
        <time>2011-05-18T16:26:23Z</time>
      </trkpt>
      <trkpt lat="46.15749" lon="3.73032">
        <ele>421</ele>
        <time>2011-07-24T07:29:30Z</time>
      </trkpt>
      <trkpt lat="46.15676" lon="3.72906">
        <ele>422</ele>
        <time>2011-07-24T07:29:30Z</time>
      </trkpt>
      <trkpt lat="46.15654" lon="3.72878">
        <ele>421</ele>
        <time>2011-07-24T07:29:30Z</time>
      </trkpt>
      <trkpt lat="46.15625" lon="3.72893">
        <ele>423</ele>
        <time>2011-05-18T16:26:25Z</time>
      </trkpt>
      <trkpt lat="46.15615" lon="3.72856">
        <ele>422</ele>
        <time>2011-07-24T07:29:30Z</time>
      </trkpt>
      <trkpt lat="46.1561" lon="3.72804">
        <ele>422</ele>
        <time>2011-05-18T16:26:28Z</time>
      </trkpt>
      <trkpt lat="46.1557" lon="3.72785">
        <ele>424</ele>
        <time>2011-05-18T16:26:33Z</time>
      </trkpt>
      <trkpt lat="46.15503" lon="3.7278">
        <ele>431</ele>
        <time>2011-05-18T16:26:36Z</time>
      </trkpt>
      <trkpt lat="46.15481" lon="3.72782">
        <ele>431</ele>
        <time>2011-05-18T16:26:39Z</time>
      </trkpt>
      <trkpt lat="46.15464" lon="3.72794">
        <ele>433</ele>
        <time>2011-05-18T16:26:42Z</time>
      </trkpt>
      <trkpt lat="46.15456" lon="3.72801">
        <ele>434</ele>
        <time>2011-05-18T16:26:43Z</time>
      </trkpt>
      <trkpt lat="46.15434" lon="3.72824">
        <ele>436</ele>
        <time>2011-05-18T16:26:46Z</time>
      </trkpt>
      <trkpt lat="46.15427" lon="3.72831">
        <ele>437</ele>
        <time>2011-05-18T16:26:47Z</time>
      </trkpt>
      <trkpt lat="46.15394" lon="3.72847">
        <ele>438</ele>
        <time>2011-05-18T16:26:51Z</time>
      </trkpt>
      <trkpt lat="46.15334" lon="3.72866">
        <ele>438</ele>
        <time>2011-05-18T16:26:56Z</time>
      </trkpt>
      <trkpt lat="46.15299" lon="3.72871">
        <ele>438</ele>
        <time>2011-05-18T16:26:59Z</time>
      </trkpt>
      <trkpt lat="46.15246" lon="3.72854">
        <ele>438</ele>
        <time>2011-05-18T16:27:04Z</time>
      </trkpt>
      <trkpt lat="46.15208" lon="3.72847">
        <ele>441</ele>
        <time>2011-05-18T16:27:08Z</time>
      </trkpt>
      <trkpt lat="46.15166" lon="3.72858">
        <ele>442</ele>
        <time>2011-05-18T16:27:12Z</time>
      </trkpt>
      <trkpt lat="46.15147" lon="3.7286">
        <ele>444</ele>
        <time>2011-05-18T16:27:14Z</time>
      </trkpt>
      <trkpt lat="46.15133" lon="3.72841">
        <ele>447</ele>
        <time>2011-05-18T16:27:17Z</time>
      </trkpt>
      <trkpt lat="46.15105" lon="3.72811">
        <ele>449</ele>
        <time>2011-05-18T16:27:20Z</time>
      </trkpt>
      <trkpt lat="46.15061" lon="3.72772">
        <ele>451</ele>
        <time>2011-05-18T16:27:24Z</time>
      </trkpt>
      <trkpt lat="46.15029" lon="3.72737">
        <ele>453</ele>
        <time>2011-05-18T16:27:27Z</time>
      </trkpt>
      <trkpt lat="46.15012" lon="3.72721">
        <ele>454</ele>
        <time>2011-05-18T16:27:29Z</time>
      </trkpt>
      <trkpt lat="46.14964" lon="3.72697">
        <ele>455</ele>
        <time>2011-05-18T16:27:34Z</time>
      </trkpt>
      <trkpt lat="46.14952" lon="3.72693">
        <ele>455</ele>
        <time>2011-05-18T16:27:35Z</time>
      </trkpt>
      <trkpt lat="46.14876" lon="3.72678">
        <ele>456</ele>
        <time>2011-05-18T16:27:41Z</time>
      </trkpt>
      <trkpt lat="46.14866" lon="3.72677">
        <ele>455</ele>
        <time>2011-05-18T16:27:42Z</time>
      </trkpt>
      <trkpt lat="46.14811" lon="3.72697">
        <ele>457</ele>
        <time>2011-05-18T16:27:47Z</time>
      </trkpt>
      <trkpt lat="46.14798" lon="3.72707">
        <ele>458</ele>
        <time>2011-05-18T16:27:48Z</time>
      </trkpt>
      <trkpt lat="46.14744" lon="3.72774">
        <ele>461</ele>
        <time>2011-05-18T16:27:53Z</time>
      </trkpt>
      <trkpt lat="46.14731" lon="3.7276">
        <ele>462</ele>
        <time>2011-05-18T16:27:57Z</time>
      </trkpt>
      <trkpt lat="46.14761" lon="3.72653">
        <ele>460</ele>
        <time>2011-05-20T20:30:52Z</time>
      </trkpt>
      <trkpt lat="46.14749" lon="3.7258">
        <ele>459</ele>
        <time>2011-05-18T16:29:46Z</time>
      </trkpt>
      <trkpt lat="46.14699" lon="3.72569">
        <ele>458</ele>
        <time>2011-05-18T16:29:48Z</time>
      </trkpt>
      <trkpt lat="46.1462" lon="3.72725">
        <ele>474</ele>
        <time>2011-05-18T16:29:52Z</time>
      </trkpt>
      <trkpt lat="46.14582" lon="3.72828">
        <ele>493</ele>
        <time>2011-05-18T16:29:55Z</time>
      </trkpt>
      <trkpt lat="46.14544" lon="3.72872">
        <ele>506</ele>
        <time>2011-05-18T16:29:57Z</time>
      </trkpt>
      <trkpt lat="46.1448" lon="3.72906">
        <ele>516</ele>
        <time>2011-05-18T16:30:00Z</time>
      </trkpt>
      <trkpt lat="46.1444" lon="3.72952">
        <ele>524</ele>
        <time>2011-05-18T16:30:04Z</time>
      </trkpt>
      <trkpt lat="46.14408" lon="3.7298">
        <ele>532</ele>
        <time>2011-05-18T16:30:06Z</time>
      </trkpt>
      <trkpt lat="46.14382" lon="3.73002">
        <ele>537</ele>
        <time>2011-05-18T16:30:08Z</time>
      </trkpt>
      <trkpt lat="46.14353" lon="3.73031">
        <ele>541</ele>
        <time>2011-05-18T16:30:11Z</time>
      </trkpt>
      <trkpt lat="46.14323" lon="3.73062">
        <ele>545</ele>
        <time>2011-05-18T16:30:16Z</time>
      </trkpt>
      <trkpt lat="46.14303" lon="3.73094">
        <ele>546</ele>
        <time>2011-05-18T16:30:17Z</time>
      </trkpt>
      <trkpt lat="46.14296" lon="3.73104">
        <ele>546</ele>
        <time>2011-05-18T16:30:24Z</time>
      </trkpt>
      <trkpt lat="46.14291" lon="3.73117">
        <ele>546</ele>
        <time>2011-05-18T16:30:33Z</time>
      </trkpt>
      <trkpt lat="46.14277" lon="3.7314">
        <ele>546</ele>
        <time>2011-05-18T16:30:38Z</time>
      </trkpt>
      <trkpt lat="46.14273" lon="3.73135">
        <ele>546</ele>
        <time>2011-05-18T16:30:41Z</time>
      </trkpt>
      <trkpt lat="46.14261" lon="3.73148">
        <ele>550</ele>
        <time>2011-05-18T16:30:47Z</time>
      </trkpt>
      <trkpt lat="46.14246" lon="3.73149">
        <ele>550</ele>
        <time>2011-05-18T16:30:54Z</time>
      </trkpt>
      <trkpt lat="46.14233" lon="3.73155">
        <ele>549</ele>
        <time>2011-05-18T16:31:02Z</time>
      </trkpt>
      <trkpt lat="46.14228" lon="3.73155">
        <ele>548</ele>
        <time>2011-05-18T16:31:04Z</time>
      </trkpt>
      <trkpt lat="46.14209" lon="3.73155">
        <ele>545</ele>
        <time>2011-05-18T16:31:07Z</time>
      </trkpt>
      <trkpt lat="46.14184" lon="3.73134">
        <ele>545</ele>
        <time>2011-05-18T16:31:12Z</time>
      </trkpt>
      <trkpt lat="46.14182" lon="3.73124">
        <ele>544</ele>
        <time>2011-05-18T16:31:13Z</time>
      </trkpt>
      <trkpt lat="46.14179" lon="3.73105">
        <ele>543</ele>
        <time>2011-05-18T16:31:15Z</time>
      </trkpt>
      <trkpt lat="46.14173" lon="3.7309">
        <ele>541</ele>
        <time>2011-05-18T16:31:17Z</time>
      </trkpt>
      <trkpt lat="46.14152" lon="3.73061">
        <ele>538</ele>
        <time>2011-05-18T16:31:22Z</time>
      </trkpt>
      <trkpt lat="46.14148" lon="3.73053">
        <ele>538</ele>
        <time>2011-05-18T16:31:23Z</time>
      </trkpt>
      <trkpt lat="46.14123" lon="3.73002">
        <ele>535</ele>
        <time>2011-05-18T16:31:28Z</time>
      </trkpt>
      <trkpt lat="46.14113" lon="3.72982">
        <ele>533</ele>
        <time>2011-05-18T16:31:30Z</time>
      </trkpt>
      <trkpt lat="46.14102" lon="3.72966">
        <ele>531</ele>
        <time>2011-05-18T16:31:33Z</time>
      </trkpt>
      <trkpt lat="46.14086" lon="3.72955">
        <ele>526</ele>
        <time>2011-05-18T16:31:37Z</time>
      </trkpt>
      <trkpt lat="46.14075" lon="3.72947">
        <ele>521</ele>
        <time>2011-05-18T16:31:40Z</time>
      </trkpt>
      <trkpt lat="46.14072" lon="3.72946">
        <ele>521</ele>
        <time>2011-05-18T16:31:41Z</time>
      </trkpt>
      <trkpt lat="46.14066" lon="3.72942">
        <ele>520</ele>
        <time>2011-05-18T16:31:43Z</time>
      </trkpt>
      <trkpt lat="46.14054" lon="3.7294">
        <ele>518</ele>
        <time>2011-05-18T16:31:48Z</time>
      </trkpt>
      <trkpt lat="46.14048" lon="3.72937">
        <ele>518</ele>
        <time>2011-05-18T16:32:05Z</time>
      </trkpt>
      <trkpt lat="46.14047" lon="3.72945">
        <ele>518</ele>
        <time>2011-05-18T16:32:09Z</time>
      </trkpt>
      <trkpt lat="46.14043" lon="3.72942">
        <ele>518</ele>
        <time>2011-05-18T16:32:18Z</time>
      </trkpt>
      <trkpt lat="46.14042" lon="3.72942">
        <ele>518</ele>
        <time>2011-05-18T16:32:19Z</time>
      </trkpt>
      <trkpt lat="46.14027" lon="3.72943">
        <ele>514</ele>
        <time>2011-05-18T16:32:25Z</time>
      </trkpt>
      <trkpt lat="46.13995" lon="3.72948">
        <ele>511</ele>
        <time>2011-05-18T16:32:29Z</time>
      </trkpt>
      <trkpt lat="46.13985" lon="3.72949">
        <ele>507</ele>
        <time>2011-05-18T16:32:30Z</time>
      </trkpt>
      <trkpt lat="46.13959" lon="3.72953">
        <ele>504</ele>
        <time>2011-05-18T16:32:33Z</time>
      </trkpt>
      <trkpt lat="46.13914" lon="3.72966">
        <ele>503</ele>
        <time>2011-05-18T16:32:39Z</time>
      </trkpt>
      <trkpt lat="46.13893" lon="3.72965">
        <ele>499</ele>
        <time>2011-05-18T16:32:43Z</time>
      </trkpt>
      <trkpt lat="46.13886" lon="3.72966">
        <ele>498</ele>
        <time>2011-05-18T16:32:44Z</time>
      </trkpt>
      <trkpt lat="46.13857" lon="3.72962">
        <ele>495</ele>
        <time>2011-05-18T16:32:49Z</time>
      </trkpt>
      <trkpt lat="46.13845" lon="3.72965">
        <ele>493</ele>
        <time>2011-05-18T16:32:53Z</time>
      </trkpt>
      <trkpt lat="46.13839" lon="3.72965">
        <ele>492</ele>
        <time>2011-05-18T16:33:02Z</time>
      </trkpt>
      <trkpt lat="46.13834" lon="3.72964">
        <ele>493</ele>
        <time>2011-05-18T16:33:15Z</time>
      </trkpt>
      <trkpt lat="46.13829" lon="3.72958">
        <ele>490</ele>
        <time>2011-05-18T16:33:19Z</time>
      </trkpt>
      <trkpt lat="46.13836" lon="3.72938">
        <ele>485</ele>
        <time>2011-05-18T16:33:24Z</time>
      </trkpt>
      <trkpt lat="46.13853" lon="3.72907">
        <ele>481</ele>
        <time>2011-05-18T16:33:27Z</time>
      </trkpt>
      <trkpt lat="46.13867" lon="3.72879">
        <ele>476</ele>
        <time>2011-05-18T16:33:31Z</time>
      </trkpt>
      <trkpt lat="46.13867" lon="3.72872">
        <ele>475</ele>
        <time>2011-05-18T16:33:32Z</time>
      </trkpt>
      <trkpt lat="46.13876" lon="3.72854">
        <ele>471</ele>
        <time>2011-05-18T16:33:36Z</time>
      </trkpt>
      <trkpt lat="46.13879" lon="3.72851">
        <ele>470</ele>
        <time>2011-05-18T16:33:38Z</time>
      </trkpt>
      <trkpt lat="46.13876" lon="3.72846">
        <ele>469</ele>
        <time>2011-05-18T16:33:42Z</time>
      </trkpt>
      <trkpt lat="46.13875" lon="3.72836">
        <ele>468</ele>
        <time>2011-05-18T16:33:45Z</time>
      </trkpt>
      <trkpt lat="46.13878" lon="3.72814">
        <ele>469</ele>
        <time>2011-05-18T16:33:50Z</time>
      </trkpt>
      <trkpt lat="46.1388" lon="3.72812">
        <ele>470</ele>
        <time>2011-05-18T16:33:51Z</time>
      </trkpt>
      <trkpt lat="46.13874" lon="3.7281">
        <ele>474</ele>
        <time>2011-05-18T16:33:55Z</time>
      </trkpt>
      <trkpt lat="46.13866" lon="3.72811">
        <ele>477</ele>
        <time>2011-05-18T16:33:57Z</time>
      </trkpt>
      <trkpt lat="46.13839" lon="3.72797">
        <ele>483</ele>
        <time>2011-05-18T16:34:03Z</time>
      </trkpt>
      <trkpt lat="46.1384" lon="3.72779">
        <ele>486</ele>
        <time>2011-05-18T16:34:07Z</time>
      </trkpt>
      <trkpt lat="46.13851" lon="3.72767">
        <ele>487</ele>
        <time>2011-05-18T16:34:09Z</time>
      </trkpt>
      <trkpt lat="46.13869" lon="3.72749">
        <ele>493</ele>
        <time>2011-05-18T16:34:13Z</time>
      </trkpt>
      <trkpt lat="46.1388" lon="3.7273">
        <ele>496</ele>
        <time>2011-05-18T16:34:16Z</time>
      </trkpt>
      <trkpt lat="46.13888" lon="3.7271">
        <ele>499</ele>
        <time>2011-05-18T16:34:19Z</time>
      </trkpt>
      <trkpt lat="46.13891" lon="3.72693">
        <ele>500</ele>
        <time>2011-05-18T16:34:21Z</time>
      </trkpt>
      <trkpt lat="46.13908" lon="3.72655">
        <ele>504</ele>
        <time>2011-05-18T16:34:25Z</time>
      </trkpt>
      <trkpt lat="46.13915" lon="3.72641">
        <ele>506</ele>
        <time>2011-05-18T16:34:27Z</time>
      </trkpt>
      <trkpt lat="46.13934" lon="3.72609">
        <ele>512</ele>
        <time>2011-05-18T16:34:31Z</time>
      </trkpt>
      <trkpt lat="46.1395" lon="3.72586">
        <ele>516</ele>
        <time>2011-05-18T16:34:34Z</time>
      </trkpt>
      <trkpt lat="46.13977" lon="3.72547">
        <ele>520</ele>
        <time>2011-05-18T16:34:39Z</time>
      </trkpt>
      <trkpt lat="46.13982" lon="3.72542">
        <ele>520</ele>
        <time>2011-05-18T16:34:40Z</time>
      </trkpt>
      <trkpt lat="46.13988" lon="3.72537">
        <ele>521</ele>
        <time>2011-05-18T16:34:45Z</time>
      </trkpt>
      <trkpt lat="46.13989" lon="3.72539">
        <ele>521</ele>
        <time>2011-05-18T16:34:55Z</time>
      </trkpt>
      <trkpt lat="46.14005" lon="3.72527">
        <ele>521</ele>
        <time>2011-05-18T16:35:00Z</time>
      </trkpt>
      <trkpt lat="46.14022" lon="3.7249">
        <ele>523</ele>
        <time>2011-05-18T16:35:05Z</time>
      </trkpt>
      <trkpt lat="46.14023" lon="3.72479">
        <ele>524</ele>
        <time>2011-05-18T16:35:07Z</time>
      </trkpt>
      <trkpt lat="46.1403" lon="3.72443">
        <ele>525</ele>
        <time>2011-05-18T16:35:12Z</time>
      </trkpt>
      <trkpt lat="46.14039" lon="3.72391">
        <ele>527</ele>
        <time>2011-05-18T16:35:17Z</time>
      </trkpt>
      <trkpt lat="46.14024" lon="3.72352">
        <ele>528</ele>
        <time>2011-05-18T16:35:21Z</time>
      </trkpt>
      <trkpt lat="46.14015" lon="3.72325">
        <ele>531</ele>
        <time>2011-05-18T16:35:25Z</time>
      </trkpt>
      <trkpt lat="46.14001" lon="3.72313">
        <ele>533</ele>
        <time>2011-05-18T16:35:29Z</time>
      </trkpt>
      <trkpt lat="46.1399" lon="3.72312">
        <ele>534</ele>
        <time>2011-05-18T16:35:31Z</time>
      </trkpt>
      <trkpt lat="46.13981" lon="3.72315">
        <ele>535</ele>
        <time>2011-05-18T16:35:33Z</time>
      </trkpt>
      <trkpt lat="46.13955" lon="3.7232">
        <ele>538</ele>
        <time>2011-05-18T16:35:37Z</time>
      </trkpt>
      <trkpt lat="46.13946" lon="3.72322">
        <ele>538</ele>
        <time>2011-05-18T16:35:38Z</time>
      </trkpt>
      <trkpt lat="46.13918" lon="3.72332">
        <ele>540</ele>
        <time>2011-05-18T16:35:41Z</time>
      </trkpt>
      <trkpt lat="46.13886" lon="3.72339">
        <ele>542</ele>
        <time>2011-05-18T16:35:45Z</time>
      </trkpt>
      <trkpt lat="46.13854" lon="3.72342">
        <ele>543</ele>
        <time>2011-05-18T16:35:49Z</time>
      </trkpt>
      <trkpt lat="46.13833" lon="3.72376">
        <ele>543</ele>
        <time>2011-05-18T16:35:53Z</time>
      </trkpt>
      <trkpt lat="46.13822" lon="3.72387">
        <ele>543</ele>
        <time>2011-05-18T16:35:55Z</time>
      </trkpt>
      <trkpt lat="46.13804" lon="3.72406">
        <ele>543</ele>
        <time>2011-05-18T16:35:58Z</time>
      </trkpt>
      <trkpt lat="46.13783" lon="3.72438">
        <ele>546</ele>
        <time>2011-05-18T16:36:02Z</time>
      </trkpt>
      <trkpt lat="46.13747" lon="3.72506">
        <ele>546</ele>
        <time>2011-05-18T16:36:07Z</time>
      </trkpt>
      <trkpt lat="46.13741" lon="3.72516">
        <ele>546</ele>
        <time>2011-05-18T16:36:08Z</time>
      </trkpt>
      <trkpt lat="46.13679" lon="3.72565">
        <ele>546</ele>
        <time>2011-05-18T16:36:13Z</time>
      </trkpt>
      <trkpt lat="46.1367" lon="3.72573">
        <ele>545</ele>
        <time>2011-05-18T16:36:14Z</time>
      </trkpt>
      <trkpt lat="46.13629" lon="3.72574">
        <ele>548</ele>
        <time>2011-05-18T16:36:18Z</time>
      </trkpt>
      <trkpt lat="46.1362" lon="3.72569">
        <ele>548</ele>
        <time>2011-05-18T16:36:19Z</time>
      </trkpt>
      <trkpt lat="46.13575" lon="3.72556">
        <ele>551</ele>
        <time>2011-05-18T16:36:25Z</time>
      </trkpt>
      <trkpt lat="46.13569" lon="3.72554">
        <ele>552</ele>
        <time>2011-05-18T16:36:29Z</time>
      </trkpt>
      <trkpt lat="46.13563" lon="3.72556">
        <ele>552</ele>
        <time>2011-05-18T16:36:49Z</time>
      </trkpt>
      <trkpt lat="46.13555" lon="3.72555">
        <ele>553</ele>
        <time>2011-05-18T16:36:51Z</time>
      </trkpt>
      <trkpt lat="46.13545" lon="3.72553">
        <ele>555</ele>
        <time>2011-05-18T16:36:53Z</time>
      </trkpt>
      <trkpt lat="46.13525" lon="3.72538">
        <ele>559</ele>
        <time>2011-05-18T16:36:56Z</time>
      </trkpt>
      <trkpt lat="46.13518" lon="3.72532">
        <ele>560</ele>
        <time>2011-05-18T16:36:57Z</time>
      </trkpt>
      <trkpt lat="46.13505" lon="3.72516">
        <ele>562</ele>
        <time>2011-05-18T16:36:59Z</time>
      </trkpt>
      <trkpt lat="46.13483" lon="3.72493">
        <ele>562</ele>
        <time>2011-05-18T16:37:02Z</time>
      </trkpt>
      <trkpt lat="46.13471" lon="3.72482">
        <ele>563</ele>
        <time>2011-05-18T16:37:04Z</time>
      </trkpt>
      <trkpt lat="46.13465" lon="3.72477">
        <ele>563</ele>
        <time>2011-05-18T16:37:05Z</time>
      </trkpt>
      <trkpt lat="46.13435" lon="3.72473">
        <ele>567</ele>
        <time>2011-05-18T16:37:09Z</time>
      </trkpt>
      <trkpt lat="46.13413" lon="3.72476">
        <ele>568</ele>
        <time>2011-05-18T16:37:12Z</time>
      </trkpt>
      <trkpt lat="46.13374" lon="3.72501">
        <ele>570</ele>
        <time>2011-05-18T16:37:17Z</time>
      </trkpt>
      <trkpt lat="46.13348" lon="3.72516">
        <ele>572</ele>
        <time>2011-05-18T16:37:20Z</time>
      </trkpt>
      <trkpt lat="46.1331" lon="3.72551">
        <ele>570</ele>
        <time>2011-05-18T16:37:25Z</time>
      </trkpt>
      <trkpt lat="46.13304" lon="3.72556">
        <ele>570</ele>
        <time>2011-05-18T16:37:26Z</time>
      </trkpt>
      <trkpt lat="46.13285" lon="3.72569">
        <ele>569</ele>
        <time>2011-05-18T16:37:31Z</time>
      </trkpt>
      <trkpt lat="46.13279" lon="3.72569">
        <ele>569</ele>
        <time>2011-05-18T16:37:33Z</time>
      </trkpt>
      <trkpt lat="46.13254" lon="3.72559">
        <ele>566</ele>
        <time>2011-05-18T16:37:37Z</time>
      </trkpt>
      <trkpt lat="46.13229" lon="3.72569">
        <ele>564</ele>
        <time>2011-05-18T16:37:42Z</time>
      </trkpt>
      <trkpt lat="46.13213" lon="3.7259">
        <ele>563</ele>
        <time>2011-05-18T16:37:45Z</time>
      </trkpt>
      <trkpt lat="46.13196" lon="3.7262">
        <ele>563</ele>
        <time>2011-05-18T16:37:49Z</time>
      </trkpt>
      <trkpt lat="46.13169" lon="3.72655">
        <ele>560</ele>
        <time>2011-05-18T16:37:54Z</time>
      </trkpt>
      <trkpt lat="46.13162" lon="3.72662">
        <ele>560</ele>
        <time>2011-05-18T16:37:55Z</time>
      </trkpt>
      <trkpt lat="46.13128" lon="3.72691">
        <ele>558</ele>
        <time>2011-05-18T16:38:00Z</time>
      </trkpt>
      <trkpt lat="46.13107" lon="3.72729">
        <ele>558</ele>
        <time>2011-05-18T16:38:05Z</time>
      </trkpt>
      <trkpt lat="46.13084" lon="3.72758">
        <ele>559</ele>
        <time>2011-05-18T16:38:09Z</time>
      </trkpt>
      <trkpt lat="46.13056" lon="3.72773">
        <ele>560</ele>
        <time>2011-05-18T16:38:13Z</time>
      </trkpt>
      <trkpt lat="46.13018" lon="3.72779">
        <ele>560</ele>
        <time>2011-05-18T16:38:18Z</time>
      </trkpt>
      <trkpt lat="46.13006" lon="3.72785">
        <ele>560</ele>
        <time>2011-05-18T16:38:20Z</time>
      </trkpt>
      <trkpt lat="46.12988" lon="3.72817">
        <ele>560</ele>
        <time>2011-05-18T16:38:26Z</time>
      </trkpt>
      <trkpt lat="46.13001" lon="3.72848">
        <ele>561</ele>
        <time>2011-05-18T16:38:30Z</time>
      </trkpt>
      <trkpt lat="46.13002" lon="3.72884">
        <ele>563</ele>
        <time>2011-05-18T16:38:33Z</time>
      </trkpt>
      <trkpt lat="46.12992" lon="3.72922">
        <ele>565</ele>
        <time>2011-05-18T16:38:37Z</time>
      </trkpt>
      <trkpt lat="46.12981" lon="3.72936">
        <ele>568</ele>
        <time>2011-05-18T16:38:41Z</time>
      </trkpt>
      <trkpt lat="46.12964" lon="3.72936">
        <ele>571</ele>
        <time>2011-05-18T16:38:44Z</time>
      </trkpt>
      <trkpt lat="46.12937" lon="3.7293">
        <ele>574</ele>
        <time>2011-05-18T16:38:47Z</time>
      </trkpt>
      <trkpt lat="46.12914" lon="3.72917">
        <ele>579</ele>
        <time>2011-05-18T16:38:50Z</time>
      </trkpt>
      <trkpt lat="46.12906" lon="3.72913">
        <ele>579</ele>
        <time>2011-05-18T16:38:51Z</time>
      </trkpt>
      <trkpt lat="46.12897" lon="3.7291">
        <ele>581</ele>
        <time>2011-05-18T16:38:52Z</time>
      </trkpt>
      <trkpt lat="46.12883" lon="3.72906">
        <ele>583</ele>
        <time>2011-05-18T16:38:54Z</time>
      </trkpt>
      <trkpt lat="46.12859" lon="3.72908">
        <ele>587</ele>
        <time>2011-05-18T16:38:59Z</time>
      </trkpt>
      <trkpt lat="46.12851" lon="3.72907">
        <ele>588</ele>
        <time>2011-05-18T16:39:03Z</time>
      </trkpt>
      <trkpt lat="46.12845" lon="3.72903">
        <ele>588</ele>
        <time>2011-05-18T16:39:09Z</time>
      </trkpt>
      <trkpt lat="46.12847" lon="3.72902">
        <ele>588</ele>
        <time>2011-05-18T16:39:16Z</time>
      </trkpt>
      <trkpt lat="46.12849" lon="3.72904">
        <ele>588</ele>
        <time>2011-05-18T16:39:27Z</time>
      </trkpt>
      <trkpt lat="46.1285" lon="3.729">
        <ele>589</ele>
        <time>2011-05-18T16:39:43Z</time>
      </trkpt>
      <trkpt lat="46.12853" lon="3.72881">
        <ele>592</ele>
        <time>2011-05-18T16:39:50Z</time>
      </trkpt>
      <trkpt lat="46.12861" lon="3.72857">
        <ele>592</ele>
        <time>2011-05-18T16:39:56Z</time>
      </trkpt>
      <trkpt lat="46.12874" lon="3.72827">
        <ele>593</ele>
        <time>2011-05-18T16:40:03Z</time>
      </trkpt>
      <trkpt lat="46.12879" lon="3.72809">
        <ele>595</ele>
        <time>2011-05-18T16:40:06Z</time>
      </trkpt>
      <trkpt lat="46.12887" lon="3.72785">
        <ele>598</ele>
        <time>2011-05-18T16:40:10Z</time>
      </trkpt>
      <trkpt lat="46.12895" lon="3.7277">
        <ele>601</ele>
        <time>2011-05-18T16:40:13Z</time>
      </trkpt>
      <trkpt lat="46.12898" lon="3.72765">
        <ele>601</ele>
        <time>2011-05-18T16:40:14Z</time>
      </trkpt>
      <trkpt lat="46.12902" lon="3.72739">
        <ele>604</ele>
        <time>2011-05-18T16:40:20Z</time>
      </trkpt>
      <trkpt lat="46.1288" lon="3.72712">
        <ele>602</ele>
        <time>2011-05-18T16:40:44Z</time>
      </trkpt>
      <trkpt lat="46.1288" lon="3.7269">
        <ele>602</ele>
        <time>2011-05-18T16:40:47Z</time>
      </trkpt>
      <trkpt lat="46.12896" lon="3.72644">
        <ele>602</ele>
        <time>2011-05-18T16:40:51Z</time>
      </trkpt>
      <trkpt lat="46.12904" lon="3.72636">
        <ele>602</ele>
        <time>2011-05-18T16:40:53Z</time>
      </trkpt>
      <trkpt lat="46.1293" lon="3.72604">
        <ele>605</ele>
        <time>2011-05-18T16:40:57Z</time>
      </trkpt>
      <trkpt lat="46.12963" lon="3.72535">
        <ele>609</ele>
        <time>2011-05-18T16:41:02Z</time>
      </trkpt>
      <trkpt lat="46.12992" lon="3.7249">
        <ele>611</ele>
        <time>2011-05-18T16:41:06Z</time>
      </trkpt>
      <trkpt lat="46.13022" lon="3.72432">
        <ele>615</ele>
        <time>2011-05-18T16:41:11Z</time>
      </trkpt>
      <trkpt lat="46.1303" lon="3.72413">
        <ele>616</ele>
        <time>2011-05-18T16:41:13Z</time>
      </trkpt>
      <trkpt lat="46.13032" lon="3.72405">
        <ele>617</ele>
        <time>2011-05-18T16:41:14Z</time>
      </trkpt>
      <trkpt lat="46.13034" lon="3.72389">
        <ele>618</ele>
        <time>2011-05-18T16:41:16Z</time>
      </trkpt>
      <trkpt lat="46.13056" lon="3.72343">
        <ele>619</ele>
        <time>2011-05-18T16:41:19Z</time>
      </trkpt>
      <trkpt lat="46.13097" lon="3.72301">
        <ele>621</ele>
        <time>2011-05-18T16:41:24Z</time>
      </trkpt>
      <trkpt lat="46.13139" lon="3.72232">
        <ele>626</ele>
        <time>2011-05-18T16:41:30Z</time>
      </trkpt>
      <trkpt lat="46.13151" lon="3.72206">
        <ele>625</ele>
        <time>2011-05-18T16:41:32Z</time>
      </trkpt>
      <trkpt lat="46.1318" lon="3.72135">
        <ele>630</ele>
        <time>2011-05-18T16:41:38Z</time>
      </trkpt>
      <trkpt lat="46.13189" lon="3.72115">
        <ele>631</ele>
        <time>2011-05-18T16:41:40Z</time>
      </trkpt>
      <trkpt lat="46.13194" lon="3.72104">
        <ele>632</ele>
        <time>2011-05-18T16:41:41Z</time>
      </trkpt>
      <trkpt lat="46.13204" lon="3.72063">
        <ele>636</ele>
        <time>2011-05-18T16:41:46Z</time>
      </trkpt>
      <trkpt lat="46.13202" lon="3.72061">
        <ele>637</ele>
        <time>2011-05-18T16:41:50Z</time>
      </trkpt>
      <trkpt lat="46.13199" lon="3.72062">
        <ele>637</ele>
        <time>2011-05-18T16:41:56Z</time>
      </trkpt>
      <trkpt lat="46.13182" lon="3.7207">
        <ele>636</ele>
        <time>2011-05-18T16:42:01Z</time>
      </trkpt>
      <trkpt lat="46.13151" lon="3.721">
        <ele>637</ele>
        <time>2011-05-18T16:42:06Z</time>
      </trkpt>
      <trkpt lat="46.13115" lon="3.7214">
        <ele>639</ele>
        <time>2011-05-18T16:42:11Z</time>
      </trkpt>
      <trkpt lat="46.13092" lon="3.72163">
        <ele>642</ele>
        <time>2011-05-18T16:42:14Z</time>
      </trkpt>
      <trkpt lat="46.13069" lon="3.72184">
        <ele>646</ele>
        <time>2011-05-18T16:42:17Z</time>
      </trkpt>
      <trkpt lat="46.13039" lon="3.72202">
        <ele>650</ele>
        <time>2011-05-18T16:42:21Z</time>
      </trkpt>
      <trkpt lat="46.13033" lon="3.72206">
        <ele>650</ele>
        <time>2011-05-18T16:42:22Z</time>
      </trkpt>
      <trkpt lat="46.1301" lon="3.72219">
        <ele>653</ele>
        <time>2011-05-18T16:42:25Z</time>
      </trkpt>
      <trkpt lat="46.12985" lon="3.72238">
        <ele>656</ele>
        <time>2011-05-18T16:42:29Z</time>
      </trkpt>
      <trkpt lat="46.12954" lon="3.72255">
        <ele>660</ele>
        <time>2011-05-18T16:42:33Z</time>
      </trkpt>
      <trkpt lat="46.12948" lon="3.72258">
        <ele>662</ele>
        <time>2011-05-18T16:42:34Z</time>
      </trkpt>
      <trkpt lat="46.1293" lon="3.72266">
        <ele>664</ele>
        <time>2011-05-18T16:42:37Z</time>
      </trkpt>
      <trkpt lat="46.12909" lon="3.72276">
        <ele>668</ele>
        <time>2011-05-18T16:42:40Z</time>
      </trkpt>
      <trkpt lat="46.12887" lon="3.72292">
        <ele>672</ele>
        <time>2011-05-18T16:42:44Z</time>
      </trkpt>
      <trkpt lat="46.1285" lon="3.72311">
        <ele>675</ele>
        <time>2011-05-18T16:42:50Z</time>
      </trkpt>
      <trkpt lat="46.12843" lon="3.72315">
        <ele>676</ele>
        <time>2011-05-18T16:42:51Z</time>
      </trkpt>
      <trkpt lat="46.1283" lon="3.72324">
        <ele>678</ele>
        <time>2011-05-18T16:42:53Z</time>
      </trkpt>
      <trkpt lat="46.12818" lon="3.72331">
        <ele>679</ele>
        <time>2011-05-18T16:42:55Z</time>
      </trkpt>
      <trkpt lat="46.12807" lon="3.72338">
        <ele>682</ele>
        <time>2011-05-18T16:42:57Z</time>
      </trkpt>
      <trkpt lat="46.12789" lon="3.72335">
        <ele>686</ele>
        <time>2011-05-18T16:43:02Z</time>
      </trkpt>
      <trkpt lat="46.12789" lon="3.72308">
        <ele>687</ele>
        <time>2011-05-18T16:43:05Z</time>
      </trkpt>
      <trkpt lat="46.1279" lon="3.72292">
        <ele>687</ele>
        <time>2011-05-18T16:43:07Z</time>
      </trkpt>
      <trkpt lat="46.12796" lon="3.72261">
        <ele>687</ele>
        <time>2011-05-18T16:43:12Z</time>
      </trkpt>
      <trkpt lat="46.12804" lon="3.72239">
        <ele>686</ele>
        <time>2011-05-18T16:43:16Z</time>
      </trkpt>
      <trkpt lat="46.12807" lon="3.72229">
        <ele>685</ele>
        <time>2011-05-18T16:43:18Z</time>
      </trkpt>
      <trkpt lat="46.12813" lon="3.72206">
        <ele>683</ele>
        <time>2011-05-18T16:43:21Z</time>
      </trkpt>
      <trkpt lat="46.12814" lon="3.72185">
        <ele>682</ele>
        <time>2011-05-18T16:43:23Z</time>
      </trkpt>
      <trkpt lat="46.12815" lon="3.72159">
        <ele>680</ele>
        <time>2011-05-18T16:43:25Z</time>
      </trkpt>
      <trkpt lat="46.12813" lon="3.72116">
        <ele>678</ele>
        <time>2011-05-18T16:43:29Z</time>
      </trkpt>
      <trkpt lat="46.12803" lon="3.7209">
        <ele>678</ele>
        <time>2011-05-18T16:43:32Z</time>
      </trkpt>
      <trkpt lat="46.12775" lon="3.72053">
        <ele>676</ele>
        <time>2011-05-18T16:43:37Z</time>
      </trkpt>
      <trkpt lat="46.12769" lon="3.72047">
        <ele>676</ele>
        <time>2011-05-18T16:43:38Z</time>
      </trkpt>
      <trkpt lat="46.12743" lon="3.72035">
        <ele>673</ele>
        <time>2011-05-18T16:43:43Z</time>
      </trkpt>
      <trkpt lat="46.12738" lon="3.72035">
        <ele>671</ele>
        <time>2011-05-18T16:43:44Z</time>
      </trkpt>
      <trkpt lat="46.12711" lon="3.72037">
        <ele>668</ele>
        <time>2011-05-18T16:43:48Z</time>
      </trkpt>
      <trkpt lat="46.12682" lon="3.72043">
        <ele>664</ele>
        <time>2011-05-18T16:43:52Z</time>
      </trkpt>
      <trkpt lat="46.12673" lon="3.72044">
        <ele>662</ele>
        <time>2011-05-18T16:43:53Z</time>
      </trkpt>
      <trkpt lat="46.12656" lon="3.72043">
        <ele>660</ele>
        <time>2011-05-18T16:43:56Z</time>
      </trkpt>
      <trkpt lat="46.12646" lon="3.72044">
        <ele>659</ele>
        <time>2011-05-18T16:43:58Z</time>
      </trkpt>
      <trkpt lat="46.12632" lon="3.72047">
        <ele>653</ele>
        <time>2011-05-18T16:44:01Z</time>
      </trkpt>
      <trkpt lat="46.12604" lon="3.72065">
        <ele>650</ele>
        <time>2011-05-18T16:44:05Z</time>
      </trkpt>
      <trkpt lat="46.12588" lon="3.72074">
        <ele>648</ele>
        <time>2011-05-18T16:44:07Z</time>
      </trkpt>
      <trkpt lat="46.12563" lon="3.72081">
        <ele>640</ele>
        <time>2011-05-18T16:44:10Z</time>
      </trkpt>
      <trkpt lat="46.12535" lon="3.72088">
        <ele>637</ele>
        <time>2011-05-18T16:44:13Z</time>
      </trkpt>
      <trkpt lat="46.12524" lon="3.72092">
        <ele>637</ele>
        <time>2011-05-18T16:44:15Z</time>
      </trkpt>
      <trkpt lat="46.12512" lon="3.72094">
        <ele>635</ele>
        <time>2011-05-18T16:44:17Z</time>
      </trkpt>
      <trkpt lat="46.125" lon="3.72093">
        <ele>633</ele>
        <time>2011-05-18T16:44:19Z</time>
      </trkpt>
      <trkpt lat="46.12486" lon="3.72095">
        <ele>631</ele>
        <time>2011-05-18T16:44:22Z</time>
      </trkpt>
      <trkpt lat="46.12476" lon="3.72098">
        <ele>630</ele>
        <time>2011-05-18T16:44:24Z</time>
      </trkpt>
      <trkpt lat="46.12467" lon="3.72104">
        <ele>629</ele>
        <time>2011-05-18T16:44:26Z</time>
      </trkpt>
      <trkpt lat="46.12443" lon="3.72135">
        <ele>632</ele>
        <time>2011-05-18T16:44:32Z</time>
      </trkpt>
      <trkpt lat="46.12435" lon="3.72149">
        <ele>632</ele>
        <time>2011-05-18T16:44:34Z</time>
      </trkpt>
      <trkpt lat="46.12433" lon="3.72166">
        <ele>634</ele>
        <time>2011-05-18T16:44:37Z</time>
      </trkpt>
      <trkpt lat="46.12428" lon="3.72175">
        <ele>635</ele>
        <time>2011-05-18T16:44:41Z</time>
      </trkpt>
      <trkpt lat="46.12428" lon="3.72175">
        <ele>635</ele>
        <time>2011-05-18T16:44:58Z</time>
      </trkpt>
      <trkpt lat="46.12416" lon="3.72185">
        <ele>632</ele>
        <time>2011-05-18T16:45:03Z</time>
      </trkpt>
      <trkpt lat="46.12414" lon="3.72191">
        <ele>631</ele>
        <time>2011-05-18T16:45:04Z</time>
      </trkpt>
      <trkpt lat="46.12398" lon="3.7221">
        <ele>631</ele>
        <time>2011-05-18T16:45:10Z</time>
      </trkpt>
      <trkpt lat="46.12394" lon="3.72209">
        <ele>629</ele>
        <time>2011-05-18T16:45:12Z</time>
      </trkpt>
      <trkpt lat="46.1239" lon="3.72188">
        <ele>623</ele>
        <time>2011-05-18T16:45:17Z</time>
      </trkpt>
      <trkpt lat="46.12387" lon="3.72165">
        <ele>619</ele>
        <time>2011-05-18T16:45:20Z</time>
      </trkpt>
      <trkpt lat="46.12386" lon="3.72158">
        <ele>617</ele>
        <time>2011-05-18T16:45:21Z</time>
      </trkpt>
      <trkpt lat="46.12381" lon="3.72135">
        <ele>612</ele>
        <time>2011-05-18T16:45:24Z</time>
      </trkpt>
      <trkpt lat="46.12377" lon="3.72097">
        <ele>605</ele>
        <time>2011-05-18T16:45:27Z</time>
      </trkpt>
      <trkpt lat="46.12376" lon="3.72083">
        <ele>604</ele>
        <time>2011-05-18T16:45:28Z</time>
      </trkpt>
      <trkpt lat="46.12375" lon="3.72062">
        <ele>602</ele>
        <time>2011-05-18T16:45:30Z</time>
      </trkpt>
      <trkpt lat="46.12374" lon="3.72035">
        <ele>597</ele>
        <time>2011-05-18T16:45:33Z</time>
      </trkpt>
      <trkpt lat="46.12368" lon="3.72022">
        <ele>595</ele>
        <time>2011-05-18T16:45:36Z</time>
      </trkpt>
      <trkpt lat="46.12355" lon="3.72032">
        <ele>591</ele>
        <time>2011-05-18T16:45:40Z</time>
      </trkpt>
      <trkpt lat="46.12337" lon="3.72041">
        <ele>588</ele>
        <time>2011-05-18T16:45:46Z</time>
      </trkpt>
      <trkpt lat="46.12337" lon="3.72032">
        <ele>588</ele>
        <time>2011-05-18T16:45:51Z</time>
      </trkpt>
      <trkpt lat="46.12336" lon="3.7203">
        <ele>587</ele>
        <time>2011-05-18T16:45:58Z</time>
      </trkpt>
      <trkpt lat="46.12339" lon="3.72008">
        <ele>586</ele>
        <time>2011-05-18T16:46:02Z</time>
      </trkpt>
      <trkpt lat="46.12347" lon="3.71949">
        <ele>579</ele>
        <time>2011-05-18T16:46:08Z</time>
      </trkpt>
      <trkpt lat="46.12353" lon="3.71921">
        <ele>575</ele>
        <time>2011-05-18T16:46:11Z</time>
      </trkpt>
      <trkpt lat="46.12359" lon="3.71886">
        <ele>571</ele>
        <time>2011-05-18T16:46:15Z</time>
      </trkpt>
      <trkpt lat="46.1236" lon="3.7187">
        <ele>569</ele>
        <time>2011-05-18T16:46:17Z</time>
      </trkpt>
      <trkpt lat="46.1236" lon="3.71856">
        <ele>568</ele>
        <time>2011-05-18T16:46:19Z</time>
      </trkpt>
      <trkpt lat="46.12351" lon="3.71819">
        <ele>564</ele>
        <time>2011-05-18T16:46:24Z</time>
      </trkpt>
      <trkpt lat="46.12349" lon="3.71813">
        <ele>564</ele>
        <time>2011-05-18T16:46:25Z</time>
      </trkpt>
      <trkpt lat="46.12341" lon="3.71786">
        <ele>561</ele>
        <time>2011-05-18T16:46:29Z</time>
      </trkpt>
      <trkpt lat="46.12335" lon="3.71766">
        <ele>557</ele>
        <time>2011-05-18T16:46:32Z</time>
      </trkpt>
      <trkpt lat="46.1233" lon="3.71757">
        <ele>556</ele>
        <time>2011-05-18T16:46:34Z</time>
      </trkpt>
      <trkpt lat="46.1231" lon="3.71749">
        <ele>554</ele>
        <time>2011-05-18T16:46:39Z</time>
      </trkpt>
      <trkpt lat="46.12305" lon="3.71749">
        <ele>553</ele>
        <time>2011-05-18T16:46:40Z</time>
      </trkpt>
      <trkpt lat="46.12289" lon="3.71734">
        <ele>551</ele>
        <time>2011-05-18T16:46:44Z</time>
      </trkpt>
      <trkpt lat="46.12279" lon="3.71709">
        <ele>548</ele>
        <time>2011-05-18T16:46:47Z</time>
      </trkpt>
      <trkpt lat="46.12264" lon="3.71693">
        <ele>546</ele>
        <time>2011-05-18T16:46:50Z</time>
      </trkpt>
      <trkpt lat="46.12241" lon="3.71697">
        <ele>544</ele>
        <time>2011-05-18T16:46:54Z</time>
      </trkpt>
      <trkpt lat="46.12228" lon="3.71709">
        <ele>540</ele>
        <time>2011-05-18T16:46:56Z</time>
      </trkpt>
      <trkpt lat="46.12216" lon="3.71726">
        <ele>538</ele>
        <time>2011-05-18T16:46:58Z</time>
      </trkpt>
      <trkpt lat="46.12193" lon="3.71755">
        <ele>532</ele>
        <time>2011-05-18T16:47:02Z</time>
      </trkpt>
      <trkpt lat="46.12187" lon="3.71762">
        <ele>531</ele>
        <time>2011-05-18T16:47:03Z</time>
      </trkpt>
      <trkpt lat="46.12166" lon="3.71755">
        <ele>530</ele>
        <time>2011-05-18T16:47:07Z</time>
      </trkpt>
      <trkpt lat="46.1216" lon="3.71745">
        <ele>530</ele>
        <time>2011-05-18T16:47:08Z</time>
      </trkpt>
      <trkpt lat="46.12131" lon="3.71688">
        <ele>530</ele>
        <time>2011-05-18T16:47:12Z</time>
      </trkpt>
      <trkpt lat="46.12087" lon="3.7165">
        <ele>527</ele>
        <time>2011-05-18T16:47:17Z</time>
      </trkpt>
      <trkpt lat="46.12006" lon="3.71607">
        <ele>530</ele>
        <time>2011-05-18T16:47:24Z</time>
      </trkpt>
      <trkpt lat="46.1196" lon="3.71589">
        <ele>534</ele>
        <time>2011-05-18T16:47:28Z</time>
      </trkpt>
      <trkpt lat="46.11949" lon="3.71585">
        <ele>534</ele>
        <time>2011-05-18T16:47:29Z</time>
      </trkpt>
      <trkpt lat="46.11921" lon="3.71575">
        <ele>539</ele>
        <time>2011-05-18T16:47:32Z</time>
      </trkpt>
      <trkpt lat="46.1191" lon="3.7157">
        <ele>539</ele>
        <time>2011-05-18T16:47:34Z</time>
      </trkpt>
      <trkpt lat="46.11899" lon="3.71564">
        <ele>539</ele>
        <time>2011-05-18T16:47:37Z</time>
      </trkpt>
      <trkpt lat="46.11883" lon="3.71577">
        <ele>541</ele>
        <time>2011-05-18T16:47:41Z</time>
      </trkpt>
      <trkpt lat="46.11869" lon="3.71591">
        <ele>542</ele>
        <time>2011-05-18T16:47:43Z</time>
      </trkpt>
      <trkpt lat="46.1184" lon="3.71616">
        <ele>544</ele>
        <time>2011-05-18T16:47:46Z</time>
      </trkpt>
      <trkpt lat="46.11808" lon="3.71646">
        <ele>545</ele>
        <time>2011-05-18T16:47:49Z</time>
      </trkpt>
      <trkpt lat="46.11777" lon="3.71689">
        <ele>546</ele>
        <time>2011-05-18T16:47:53Z</time>
      </trkpt>
      <trkpt lat="46.11739" lon="3.71771">
        <ele>547</ele>
        <time>2011-05-18T16:47:58Z</time>
      </trkpt>
      <trkpt lat="46.11728" lon="3.71801">
        <ele>547</ele>
        <time>2011-05-18T16:48:00Z</time>
      </trkpt>
      <trkpt lat="46.11709" lon="3.7189">
        <ele>550</ele>
        <time>2011-05-18T16:48:05Z</time>
      </trkpt>
      <trkpt lat="46.11694" lon="3.71938">
        <ele>551</ele>
        <time>2011-05-18T16:48:08Z</time>
      </trkpt>
      <trkpt lat="46.11674" lon="3.72015">
        <ele>551</ele>
        <time>2011-05-18T16:48:13Z</time>
      </trkpt>
      <trkpt lat="46.11671" lon="3.72029">
        <ele>552</ele>
        <time>2011-05-18T16:48:14Z</time>
      </trkpt>
      <trkpt lat="46.11661" lon="3.72101">
        <ele>550</ele>
        <time>2011-05-18T16:48:19Z</time>
      </trkpt>
      <trkpt lat="46.11653" lon="3.72149">
        <ele>550</ele>
        <time>2011-05-18T16:48:22Z</time>
      </trkpt>
      <trkpt lat="46.11632" lon="3.72226">
        <ele>550</ele>
        <time>2011-05-18T16:48:26Z</time>
      </trkpt>
      <trkpt lat="46.11629" lon="3.7224">
        <ele>550</ele>
        <time>2011-05-18T16:48:27Z</time>
      </trkpt>
      <trkpt lat="46.11625" lon="3.72273">
        <ele>552</ele>
        <time>2011-05-18T16:48:29Z</time>
      </trkpt>
      <trkpt lat="46.11625" lon="3.72302">
        <ele>553</ele>
        <time>2011-05-18T16:48:31Z</time>
      </trkpt>
      <trkpt lat="46.11632" lon="3.72336">
        <ele>557</ele>
        <time>2011-05-18T16:48:34Z</time>
      </trkpt>
      <trkpt lat="46.11632" lon="3.72376">
        <ele>559</ele>
        <time>2011-05-18T16:48:37Z</time>
      </trkpt>
      <trkpt lat="46.11626" lon="3.72421">
        <ele>562</ele>
        <time>2011-05-18T16:48:40Z</time>
      </trkpt>
      <trkpt lat="46.11615" lon="3.72471">
        <ele>565</ele>
        <time>2011-05-18T16:48:43Z</time>
      </trkpt>
      <trkpt lat="46.11604" lon="3.72508">
        <ele>568</ele>
        <time>2011-05-18T16:48:45Z</time>
      </trkpt>
      <trkpt lat="46.11572" lon="3.72577">
        <ele>570</ele>
        <time>2011-05-18T16:48:49Z</time>
      </trkpt>
      <trkpt lat="46.11551" lon="3.72631">
        <ele>573</ele>
        <time>2011-05-18T16:48:53Z</time>
      </trkpt>
      <trkpt lat="46.11549" lon="3.72641">
        <ele>574</ele>
        <time>2011-05-18T16:48:54Z</time>
      </trkpt>
      <trkpt lat="46.11549" lon="3.72688">
        <ele>577</ele>
        <time>2011-05-18T16:48:57Z</time>
      </trkpt>
      <trkpt lat="46.11542" lon="3.72716">
        <ele>580</ele>
        <time>2011-05-18T16:48:59Z</time>
      </trkpt>
      <trkpt lat="46.11528" lon="3.72796">
        <ele>584</ele>
        <time>2011-05-18T16:49:04Z</time>
      </trkpt>
      <trkpt lat="46.11523" lon="3.72817">
        <ele>586</ele>
        <time>2011-05-18T16:49:06Z</time>
      </trkpt>
      <trkpt lat="46.11515" lon="3.72868">
        <ele>588</ele>
        <time>2011-05-18T16:49:10Z</time>
      </trkpt>
      <trkpt lat="46.1151" lon="3.72892">
        <ele>590</ele>
        <time>2011-05-18T16:49:12Z</time>
      </trkpt>
      <trkpt lat="46.11507" lon="3.72904">
        <ele>590</ele>
        <time>2011-05-18T16:49:13Z</time>
      </trkpt>
      <trkpt lat="46.11506" lon="3.72925">
        <ele>591</ele>
        <time>2011-05-18T16:49:15Z</time>
      </trkpt>
      <trkpt lat="46.11486" lon="3.72957">
        <ele>592</ele>
        <time>2011-05-18T16:49:19Z</time>
      </trkpt>
      <trkpt lat="46.11469" lon="3.72978">
        <ele>596</ele>
        <time>2011-05-18T16:49:22Z</time>
      </trkpt>
      <trkpt lat="46.1145" lon="3.72994">
        <ele>600</ele>
        <time>2011-05-18T16:49:25Z</time>
      </trkpt>
      <trkpt lat="46.11435" lon="3.73026">
        <ele>601</ele>
        <time>2011-05-18T16:49:28Z</time>
      </trkpt>
      <trkpt lat="46.11401" lon="3.73068">
        <ele>606</ele>
        <time>2011-05-18T16:49:33Z</time>
      </trkpt>
      <trkpt lat="46.11394" lon="3.73074">
        <ele>608</ele>
        <time>2011-05-18T16:49:34Z</time>
      </trkpt>
      <trkpt lat="46.11382" lon="3.73095">
        <ele>609</ele>
        <time>2011-05-18T16:49:36Z</time>
      </trkpt>
      <trkpt lat="46.11352" lon="3.73136">
        <ele>612</ele>
        <time>2011-05-18T16:49:40Z</time>
      </trkpt>
      <trkpt lat="46.1134" lon="3.73179">
        <ele>617</ele>
        <time>2011-05-18T16:49:44Z</time>
      </trkpt>
      <trkpt lat="46.11336" lon="3.73198">
        <ele>620</ele>
        <time>2011-05-18T16:49:46Z</time>
      </trkpt>
      <trkpt lat="46.11332" lon="3.73233">
        <ele>624</ele>
        <time>2011-05-18T16:49:50Z</time>
      </trkpt>
      <trkpt lat="46.11331" lon="3.73237">
        <ele>624</ele>
        <time>2011-05-18T16:49:51Z</time>
      </trkpt>
      <trkpt lat="46.11332" lon="3.73239">
        <ele>625</ele>
        <time>2011-05-18T16:49:55Z</time>
      </trkpt>
      <trkpt lat="46.11334" lon="3.73242">
        <ele>624</ele>
        <time>2011-05-18T16:50:06Z</time>
      </trkpt>
      <trkpt lat="46.1134" lon="3.73256">
        <ele>625</ele>
        <time>2011-05-18T16:50:10Z</time>
      </trkpt>
      <trkpt lat="46.11352" lon="3.73293">
        <ele>628</ele>
        <time>2011-05-18T16:50:13Z</time>
      </trkpt>
      <trkpt lat="46.11372" lon="3.73344">
        <ele>632</ele>
        <time>2011-05-18T16:50:17Z</time>
      </trkpt>
      <trkpt lat="46.11389" lon="3.73382">
        <ele>635</ele>
        <time>2011-05-18T16:50:20Z</time>
      </trkpt>
      <trkpt lat="46.11404" lon="3.734">
        <ele>639</ele>
        <time>2011-05-18T16:50:23Z</time>
      </trkpt>
      <trkpt lat="46.11406" lon="3.73404">
        <ele>638</ele>
        <time>2011-05-18T16:50:24Z</time>
      </trkpt>
      <trkpt lat="46.11406" lon="3.73426">
        <ele>639</ele>
        <time>2011-05-18T16:50:27Z</time>
      </trkpt>
      <trkpt lat="46.11404" lon="3.73457">
        <ele>639</ele>
        <time>2011-05-18T16:50:34Z</time>
      </trkpt>
      <trkpt lat="46.11404" lon="3.73458">
        <ele>638</ele>
        <time>2011-05-18T16:50:39Z</time>
      </trkpt>
      <trkpt lat="46.11406" lon="3.73462">
        <ele>640</ele>
        <time>2011-05-18T16:50:45Z</time>
      </trkpt>
      <trkpt lat="46.11406" lon="3.73461">
        <ele>640</ele>
        <time>2011-05-18T16:50:46Z</time>
      </trkpt>
      <trkpt lat="46.11404" lon="3.73454">
        <ele>639</ele>
        <time>2011-05-18T16:50:53Z</time>
      </trkpt>
      <trkpt lat="46.11403" lon="3.73454">
        <ele>639</ele>
        <time>2011-05-18T16:50:58Z</time>
      </trkpt>
      <trkpt lat="46.11398" lon="3.73468">
        <ele>637</ele>
        <time>2011-05-18T16:51:02Z</time>
      </trkpt>
      <trkpt lat="46.11389" lon="3.73485">
        <ele>636</ele>
        <time>2011-05-18T16:51:05Z</time>
      </trkpt>
      <trkpt lat="46.11366" lon="3.73484">
        <ele>635</ele>
        <time>2011-05-18T16:51:09Z</time>
      </trkpt>
      <trkpt lat="46.11348" lon="3.73478">
        <ele>634</ele>
        <time>2011-05-18T16:51:11Z</time>
      </trkpt>
      <trkpt lat="46.11301" lon="3.73486">
        <ele>633</ele>
        <time>2011-05-18T16:51:15Z</time>
      </trkpt>
      <trkpt lat="46.11288" lon="3.73493">
        <ele>633</ele>
        <time>2011-05-18T16:51:16Z</time>
      </trkpt>
      <trkpt lat="46.11226" lon="3.73534">
        <ele>637</ele>
        <time>2011-05-18T16:51:21Z</time>
      </trkpt>
      <trkpt lat="46.11204" lon="3.73559">
        <ele>638</ele>
        <time>2011-05-18T16:51:23Z</time>
      </trkpt>
      <trkpt lat="46.11182" lon="3.73582">
        <ele>637</ele>
        <time>2011-05-18T16:51:25Z</time>
      </trkpt>
      <trkpt lat="46.11118" lon="3.73624">
        <ele>637</ele>
        <time>2011-05-18T16:51:30Z</time>
      </trkpt>
      <trkpt lat="46.11104" lon="3.73631">
        <ele>637</ele>
        <time>2011-05-18T16:51:31Z</time>
      </trkpt>
      <trkpt lat="46.11058" lon="3.73653">
        <ele>640</ele>
        <time>2011-05-18T16:51:35Z</time>
      </trkpt>
      <trkpt lat="46.11031" lon="3.73693">
        <ele>640</ele>
        <time>2011-05-18T16:51:39Z</time>
      </trkpt>
      <trkpt lat="46.11027" lon="3.73727">
        <ele>641</ele>
        <time>2011-05-18T16:51:41Z</time>
      </trkpt>
      <trkpt lat="46.1102" lon="3.73776">
        <ele>644</ele>
        <time>2011-05-18T16:51:44Z</time>
      </trkpt>
      <trkpt lat="46.11002" lon="3.73823">
        <ele>648</ele>
        <time>2011-05-18T16:51:48Z</time>
      </trkpt>
      <trkpt lat="46.10988" lon="3.7385">
        <ele>649</ele>
        <time>2011-05-18T16:51:52Z</time>
      </trkpt>
      <trkpt lat="46.10968" lon="3.73881">
        <ele>646</ele>
        <time>2011-05-18T16:51:58Z</time>
      </trkpt>
      <trkpt lat="46.10944" lon="3.73908">
        <ele>644</ele>
        <time>2011-05-18T16:52:03Z</time>
      </trkpt>
      <trkpt lat="46.10914" lon="3.73927">
        <ele>643</ele>
        <time>2011-05-18T16:52:08Z</time>
      </trkpt>
      <trkpt lat="46.10882" lon="3.73949">
        <ele>642</ele>
        <time>2011-05-18T16:52:12Z</time>
      </trkpt>
      <trkpt lat="46.10848" lon="3.73979">
        <ele>640</ele>
        <time>2011-05-18T16:52:16Z</time>
      </trkpt>
      <trkpt lat="46.10829" lon="3.74007">
        <ele>637</ele>
        <time>2011-05-18T16:52:19Z</time>
      </trkpt>
      <trkpt lat="46.10804" lon="3.74064">
        <ele>637</ele>
        <time>2011-05-18T16:52:23Z</time>
      </trkpt>
      <trkpt lat="46.10779" lon="3.74115">
        <ele>633</ele>
        <time>2011-05-18T16:52:27Z</time>
      </trkpt>
      <trkpt lat="46.10756" lon="3.74154">
        <ele>631</ele>
        <time>2011-05-18T16:52:31Z</time>
      </trkpt>
      <trkpt lat="46.10732" lon="3.74185">
        <ele>628</ele>
        <time>2011-05-18T16:52:35Z</time>
      </trkpt>
      <trkpt lat="46.10704" lon="3.7419">
        <ele>627</ele>
        <time>2011-05-18T16:52:40Z</time>
      </trkpt>
      <trkpt lat="46.10699" lon="3.74187">
        <ele>625</ele>
        <time>2011-05-18T16:52:41Z</time>
      </trkpt>
      <trkpt lat="46.10672" lon="3.74183">
        <ele>624</ele>
        <time>2011-05-18T16:52:46Z</time>
      </trkpt>
      <trkpt lat="46.1066" lon="3.74195">
        <ele>621</ele>
        <time>2011-05-18T16:52:49Z</time>
      </trkpt>
      <trkpt lat="46.10654" lon="3.74199">
        <ele>620</ele>
        <time>2011-05-18T16:52:50Z</time>
      </trkpt>
      <trkpt lat="46.10644" lon="3.74209">
        <ele>618</ele>
        <time>2011-05-18T16:52:52Z</time>
      </trkpt>
      <trkpt lat="46.10633" lon="3.74227">
        <ele>617</ele>
        <time>2011-05-18T16:52:54Z</time>
      </trkpt>
      <trkpt lat="46.10612" lon="3.74263">
        <ele>616</ele>
        <time>2011-05-18T16:52:58Z</time>
      </trkpt>
      <trkpt lat="46.10588" lon="3.74309">
        <ele>616</ele>
        <time>2011-05-18T16:53:05Z</time>
      </trkpt>
      <trkpt lat="46.10582" lon="3.74329">
        <ele>616</ele>
        <time>2011-05-18T16:53:10Z</time>
      </trkpt>
      <trkpt lat="46.10574" lon="3.74338">
        <ele>616</ele>
        <time>2011-05-18T16:53:22Z</time>
      </trkpt>
      <trkpt lat="46.10573" lon="3.74341">
        <ele>616</ele>
        <time>2011-05-18T16:53:23Z</time>
      </trkpt>
      <trkpt lat="46.10576" lon="3.74345">
        <ele>617</ele>
        <time>2011-05-18T16:53:30Z</time>
      </trkpt>
      <trkpt lat="46.10574" lon="3.74343">
        <ele>617</ele>
        <time>2011-05-18T16:53:42Z</time>
      </trkpt>
      <trkpt lat="46.10578" lon="3.74342">
        <ele>617</ele>
        <time>2011-05-18T16:53:48Z</time>
      </trkpt>
      <trkpt lat="46.1059" lon="3.74376">
        <ele>617</ele>
        <time>2011-05-18T16:53:53Z</time>
      </trkpt>
      <trkpt lat="46.10587" lon="3.74401">
        <ele>616</ele>
        <time>2011-05-18T16:53:55Z</time>
      </trkpt>
      <trkpt lat="46.10587" lon="3.74438">
        <ele>612</ele>
        <time>2011-05-18T16:53:57Z</time>
      </trkpt>
      <trkpt lat="46.10575" lon="3.74492">
        <ele>610</ele>
        <time>2011-05-18T16:54:01Z</time>
      </trkpt>
      <trkpt lat="46.10567" lon="3.74564">
        <ele>609</ele>
        <time>2011-05-18T16:54:06Z</time>
      </trkpt>
      <trkpt lat="46.1057" lon="3.74668">
        <ele>611</ele>
        <time>2011-05-18T16:54:11Z</time>
      </trkpt>
      <trkpt lat="46.10576" lon="3.74708">
        <ele>612</ele>
        <time>2011-05-18T16:54:14Z</time>
      </trkpt>
      <trkpt lat="46.10576" lon="3.74723">
        <ele>612</ele>
        <time>2011-05-18T16:54:15Z</time>
      </trkpt>
      <trkpt lat="46.10567" lon="3.74758">
        <ele>612</ele>
        <time>2011-05-18T16:54:18Z</time>
      </trkpt>
      <trkpt lat="46.10545" lon="3.74794">
        <ele>610</ele>
        <time>2011-05-18T16:54:22Z</time>
      </trkpt>
      <trkpt lat="46.10523" lon="3.7482">
        <ele>608</ele>
        <time>2011-05-18T16:54:27Z</time>
      </trkpt>
      <trkpt lat="46.10502" lon="3.74833">
        <ele>608</ele>
        <time>2011-05-18T16:54:32Z</time>
      </trkpt>
      <trkpt lat="46.10498" lon="3.74836">
        <ele>608</ele>
        <time>2011-05-18T16:54:33Z</time>
      </trkpt>
      <trkpt lat="46.10482" lon="3.7488">
        <ele>610</ele>
        <time>2011-05-18T16:54:37Z</time>
      </trkpt>
      <trkpt lat="46.1047" lon="3.7492">
        <ele>615</ele>
        <time>2011-05-18T16:54:41Z</time>
      </trkpt>
      <trkpt lat="46.10463" lon="3.74946">
        <ele>618</ele>
        <time>2011-05-18T16:54:44Z</time>
      </trkpt>
      <trkpt lat="46.10457" lon="3.74979">
        <ele>620</ele>
        <time>2011-05-18T16:54:47Z</time>
      </trkpt>
      <trkpt lat="46.10448" lon="3.7502">
        <ele>623</ele>
        <time>2011-05-18T16:54:52Z</time>
      </trkpt>
      <trkpt lat="46.10445" lon="3.7503">
        <ele>623</ele>
        <time>2011-05-18T16:54:53Z</time>
      </trkpt>
      <trkpt lat="46.10442" lon="3.75049">
        <ele>625</ele>
        <time>2011-05-18T16:54:55Z</time>
      </trkpt>
      <trkpt lat="46.10435" lon="3.75075">
        <ele>628</ele>
        <time>2011-05-18T16:54:58Z</time>
      </trkpt>
      <trkpt lat="46.10422" lon="3.75123">
        <ele>632</ele>
        <time>2011-05-18T16:55:03Z</time>
      </trkpt>
      <trkpt lat="46.1042" lon="3.75132">
        <ele>632</ele>
        <time>2011-05-18T16:55:04Z</time>
      </trkpt>
      <trkpt lat="46.10416" lon="3.7517">
        <ele>635</ele>
        <time>2011-05-18T16:55:10Z</time>
      </trkpt>
      <trkpt lat="46.10415" lon="3.75196">
        <ele>637</ele>
        <time>2011-05-18T16:55:16Z</time>
      </trkpt>
      <trkpt lat="46.10416" lon="3.75238">
        <ele>639</ele>
        <time>2011-05-18T16:55:22Z</time>
      </trkpt>
      <trkpt lat="46.1042" lon="3.75258">
        <ele>642</ele>
        <time>2011-05-18T16:55:26Z</time>
      </trkpt>
      <trkpt lat="46.10419" lon="3.75277">
        <ele>645</ele>
        <time>2011-05-18T16:55:31Z</time>
      </trkpt>
      <trkpt lat="46.10415" lon="3.75283">
        <ele>646</ele>
        <time>2011-05-18T16:55:33Z</time>
      </trkpt>
      <trkpt lat="46.10403" lon="3.75278">
        <ele>648</ele>
        <time>2011-05-18T16:55:37Z</time>
      </trkpt>
      <trkpt lat="46.10388" lon="3.75254">
        <ele>651</ele>
        <time>2011-05-18T16:55:42Z</time>
      </trkpt>
      <trkpt lat="46.10372" lon="3.75254">
        <ele>652</ele>
        <time>2011-05-18T16:55:45Z</time>
      </trkpt>
      <trkpt lat="46.10362" lon="3.75263">
        <ele>653</ele>
        <time>2011-05-18T16:55:48Z</time>
      </trkpt>
      <trkpt lat="46.10357" lon="3.75269">
        <ele>654</ele>
        <time>2011-05-18T16:55:50Z</time>
      </trkpt>
      <trkpt lat="46.10336" lon="3.75299">
        <ele>658</ele>
        <time>2011-05-18T16:55:56Z</time>
      </trkpt>
      <trkpt lat="46.10319" lon="3.7532">
        <ele>661</ele>
        <time>2011-05-18T16:55:59Z</time>
      </trkpt>
      <trkpt lat="46.10311" lon="3.75339">
        <ele>662</ele>
        <time>2011-05-18T16:56:01Z</time>
      </trkpt>
      <trkpt lat="46.10308" lon="3.7539">
        <ele>665</ele>
        <time>2011-05-18T16:56:04Z</time>
      </trkpt>
      <trkpt lat="46.10322" lon="3.75417">
        <ele>667</ele>
        <time>2011-05-18T16:56:07Z</time>
      </trkpt>
      <trkpt lat="46.10362" lon="3.7548">
        <ele>672</ele>
        <time>2011-05-18T16:56:13Z</time>
      </trkpt>
      <trkpt lat="46.10382" lon="3.75513">
        <ele>674</ele>
        <time>2011-05-18T16:56:17Z</time>
      </trkpt>
      <trkpt lat="46.104" lon="3.75552">
        <ele>676</ele>
        <time>2011-05-18T16:56:22Z</time>
      </trkpt>
      <trkpt lat="46.1041" lon="3.75601">
        <ele>679</ele>
        <time>2011-05-18T16:56:26Z</time>
      </trkpt>
      <trkpt lat="46.10418" lon="3.75667">
        <ele>683</ele>
        <time>2011-05-18T16:56:31Z</time>
      </trkpt>
      <trkpt lat="46.10418" lon="3.75699">
        <ele>687</ele>
        <time>2011-05-18T16:56:34Z</time>
      </trkpt>
      <trkpt lat="46.10437" lon="3.75737">
        <ele>688</ele>
        <time>2011-05-18T16:56:39Z</time>
      </trkpt>
      <trkpt lat="46.10438" lon="3.75738">
        <ele>688</ele>
        <time>2011-05-18T16:56:44Z</time>
      </trkpt>
      <trkpt lat="46.10443" lon="3.75733">
        <ele>688</ele>
        <time>2011-05-18T16:56:54Z</time>
      </trkpt>
      <trkpt lat="46.10453" lon="3.75734">
        <ele>684</ele>
        <time>2011-05-18T16:56:58Z</time>
      </trkpt>
      <trkpt lat="46.10469" lon="3.75738">
        <ele>684</ele>
        <time>2011-05-18T16:57:00Z</time>
      </trkpt>
      <trkpt lat="46.10525" lon="3.75736">
        <ele>684</ele>
        <time>2011-05-18T16:57:06Z</time>
      </trkpt>
      <trkpt lat="46.10552" lon="3.75715">
        <ele>685</ele>
        <time>2011-05-18T16:57:11Z</time>
      </trkpt>
      <trkpt lat="46.106" lon="3.75673">
        <ele>686</ele>
        <time>2011-05-18T16:57:18Z</time>
      </trkpt>
      <trkpt lat="46.10645" lon="3.75645">
        <ele>688</ele>
        <time>2011-05-18T16:57:24Z</time>
      </trkpt>
      <trkpt lat="46.10667" lon="3.7564">
        <ele>687</ele>
        <time>2011-05-18T16:57:27Z</time>
      </trkpt>
      <trkpt lat="46.10684" lon="3.75645">
        <ele>686</ele>
        <time>2011-05-18T16:57:32Z</time>
      </trkpt>
      <trkpt lat="46.10686" lon="3.75671">
        <ele>687</ele>
        <time>2011-05-18T16:57:36Z</time>
      </trkpt>
      <trkpt lat="46.10687" lon="3.75688">
        <ele>687</ele>
        <time>2011-05-18T16:57:38Z</time>
      </trkpt>
      <trkpt lat="46.10694" lon="3.75726">
        <ele>690</ele>
        <time>2011-05-18T16:57:45Z</time>
      </trkpt>
      <trkpt lat="46.10694" lon="3.75727">
        <ele>689</ele>
        <time>2011-05-18T16:57:54Z</time>
      </trkpt>
      <trkpt lat="46.10695" lon="3.75727">
        <ele>689</ele>
        <time>2011-05-18T16:57:59Z</time>
      </trkpt>
      <trkpt lat="46.10698" lon="3.75755">
        <ele>689</ele>
        <time>2011-05-18T16:58:03Z</time>
      </trkpt>
      <trkpt lat="46.10698" lon="3.75823">
        <ele>688</ele>
        <time>2011-05-18T16:58:08Z</time>
      </trkpt>
      <trkpt lat="46.10695" lon="3.75846">
        <ele>689</ele>
        <time>2011-05-18T16:58:10Z</time>
      </trkpt>
      <trkpt lat="46.10687" lon="3.75889">
        <ele>691</ele>
        <time>2011-05-18T16:58:14Z</time>
      </trkpt>
      <trkpt lat="46.10681" lon="3.75914">
        <ele>692</ele>
        <time>2011-05-18T16:58:17Z</time>
      </trkpt>
      <trkpt lat="46.1068" lon="3.75963">
        <ele>690</ele>
        <time>2011-05-18T16:58:23Z</time>
      </trkpt>
      <trkpt lat="46.10665" lon="3.75991">
        <ele>687</ele>
        <time>2011-05-18T16:58:26Z</time>
      </trkpt>
      <trkpt lat="46.1066" lon="3.76004">
        <ele>687</ele>
        <time>2011-05-18T16:58:27Z</time>
      </trkpt>
      <trkpt lat="46.10646" lon="3.76054">
        <ele>686</ele>
        <time>2011-05-18T16:58:31Z</time>
      </trkpt>
      <trkpt lat="46.10626" lon="3.76102">
        <ele>685</ele>
        <time>2011-05-18T16:58:36Z</time>
      </trkpt>
      <trkpt lat="46.10622" lon="3.7611">
        <ele>685</ele>
        <time>2011-05-18T16:58:37Z</time>
      </trkpt>
      <trkpt lat="46.10623" lon="3.76125">
        <ele>686</ele>
        <time>2011-05-18T16:58:39Z</time>
      </trkpt>
      <trkpt lat="46.10634" lon="3.76151">
        <ele>686</ele>
        <time>2011-05-18T16:58:44Z</time>
      </trkpt>
      <trkpt lat="46.10655" lon="3.76159">
        <ele>688</ele>
        <time>2011-05-18T16:58:48Z</time>
      </trkpt>
      <trkpt lat="46.1066" lon="3.76167">
        <ele>690</ele>
        <time>2011-05-18T16:58:50Z</time>
      </trkpt>
      <trkpt lat="46.10674" lon="3.76182">
        <ele>695</ele>
        <time>2011-05-18T16:58:54Z</time>
      </trkpt>
      <trkpt lat="46.10703" lon="3.76188">
        <ele>698</ele>
        <time>2011-05-18T16:58:58Z</time>
      </trkpt>
      <trkpt lat="46.10741" lon="3.76192">
        <ele>703</ele>
        <time>2011-05-18T16:59:03Z</time>
      </trkpt>
      <trkpt lat="46.10759" lon="3.76198">
        <ele>705</ele>
        <time>2011-05-18T16:59:08Z</time>
      </trkpt>
      <trkpt lat="46.10763" lon="3.76201">
        <ele>705</ele>
        <time>2011-05-18T16:59:09Z</time>
      </trkpt>
      <trkpt lat="46.10789" lon="3.76211">
        <ele>706</ele>
        <time>2011-05-18T16:59:15Z</time>
      </trkpt>
      <trkpt lat="46.10807" lon="3.76208">
        <ele>705</ele>
        <time>2011-05-18T16:59:18Z</time>
      </trkpt>
      <trkpt lat="46.10826" lon="3.76203">
        <ele>709</ele>
        <time>2011-05-18T16:59:21Z</time>
      </trkpt>
      <trkpt lat="46.10843" lon="3.76202">
        <ele>712</ele>
        <time>2011-05-18T16:59:23Z</time>
      </trkpt>
      <trkpt lat="46.10864" lon="3.76198">
        <ele>713</ele>
        <time>2011-05-18T16:59:26Z</time>
      </trkpt>
      <trkpt lat="46.10893" lon="3.76192">
        <ele>717</ele>
        <time>2011-05-18T16:59:30Z</time>
      </trkpt>
      <trkpt lat="46.10918" lon="3.76206">
        <ele>720</ele>
        <time>2011-05-18T16:59:35Z</time>
      </trkpt>
      <trkpt lat="46.10927" lon="3.76214">
        <ele>720</ele>
        <time>2011-05-18T16:59:37Z</time>
      </trkpt>
      <trkpt lat="46.1093" lon="3.76229">
        <ele>721</ele>
        <time>2011-05-18T16:59:40Z</time>
      </trkpt>
      <trkpt lat="46.10928" lon="3.76268">
        <ele>723</ele>
        <time>2011-05-18T16:59:45Z</time>
      </trkpt>
      <trkpt lat="46.10947" lon="3.76302">
        <ele>722</ele>
        <time>2011-05-18T16:59:52Z</time>
      </trkpt>
      <trkpt lat="46.10952" lon="3.7631">
        <ele>722</ele>
        <time>2011-05-18T16:59:54Z</time>
      </trkpt>
      <trkpt lat="46.10946" lon="3.76333">
        <ele>723</ele>
        <time>2011-05-18T16:59:58Z</time>
      </trkpt>
      <trkpt lat="46.10919" lon="3.76361">
        <ele>726</ele>
        <time>2011-05-18T17:00:02Z</time>
      </trkpt>
      <trkpt lat="46.10863" lon="3.76411">
        <ele>727</ele>
        <time>2011-05-18T17:00:09Z</time>
      </trkpt>
      <trkpt lat="46.108" lon="3.7645">
        <ele>727</ele>
        <time>2011-05-18T17:00:15Z</time>
      </trkpt>
      <trkpt lat="46.10779" lon="3.76459">
        <ele>729</ele>
        <time>2011-05-18T17:00:17Z</time>
      </trkpt>
      <trkpt lat="46.10743" lon="3.76473">
        <ele>729</ele>
        <time>2011-05-18T17:00:21Z</time>
      </trkpt>
      <trkpt lat="46.10726" lon="3.76485">
        <ele>728</ele>
        <time>2011-05-18T17:00:23Z</time>
      </trkpt>
      <trkpt lat="46.10706" lon="3.76518">
        <ele>727</ele>
        <time>2011-05-18T17:00:26Z</time>
      </trkpt>
      <trkpt lat="46.10696" lon="3.76569">
        <ele>724</ele>
        <time>2011-05-18T17:00:30Z</time>
      </trkpt>
      <trkpt lat="46.1069" lon="3.76592">
        <ele>723</ele>
        <time>2011-05-18T17:00:33Z</time>
      </trkpt>
      <trkpt lat="46.10689" lon="3.76602">
        <ele>723</ele>
        <time>2011-05-18T17:00:37Z</time>
      </trkpt>
      <trkpt lat="46.10689" lon="3.76599">
        <ele>723</ele>
        <time>2011-05-18T17:00:45Z</time>
      </trkpt>
      <trkpt lat="46.1069" lon="3.76605">
        <ele>723</ele>
        <time>2011-05-18T17:00:51Z</time>
      </trkpt>
      <trkpt lat="46.10692" lon="3.76604">
        <ele>723</ele>
        <time>2011-05-18T17:01:01Z</time>
      </trkpt>
      <trkpt lat="46.10693" lon="3.76607">
        <ele>723</ele>
        <time>2011-05-18T17:01:10Z</time>
      </trkpt>
      <trkpt lat="46.10695" lon="3.7661">
        <ele>723</ele>
        <time>2011-05-18T17:01:24Z</time>
      </trkpt>
      <trkpt lat="46.10695" lon="3.76615">
        <ele>723</ele>
        <time>2011-05-18T17:01:34Z</time>
      </trkpt>
      <trkpt lat="46.10699" lon="3.76639">
        <ele>722</ele>
        <time>2011-05-18T17:01:40Z</time>
      </trkpt>
      <trkpt lat="46.10702" lon="3.7667">
        <ele>720</ele>
        <time>2011-05-18T17:01:47Z</time>
      </trkpt>
      <trkpt lat="46.10704" lon="3.76708">
        <ele>717</ele>
        <time>2011-05-18T17:01:53Z</time>
      </trkpt>
      <trkpt lat="46.10708" lon="3.76744">
        <ele>715</ele>
        <time>2011-05-18T17:01:57Z</time>
      </trkpt>
      <trkpt lat="46.10722" lon="3.76796">
        <ele>715</ele>
        <time>2011-05-18T17:02:03Z</time>
      </trkpt>
      <trkpt lat="46.10736" lon="3.76857">
        <ele>714</ele>
        <time>2011-05-18T17:02:08Z</time>
      </trkpt>
      <trkpt lat="46.10744" lon="3.76903">
        <ele>710</ele>
        <time>2011-05-18T17:02:12Z</time>
      </trkpt>
      <trkpt lat="46.10746" lon="3.76913">
        <ele>709</ele>
        <time>2011-05-18T17:02:13Z</time>
      </trkpt>
      <trkpt lat="46.10747" lon="3.76962">
        <ele>704</ele>
        <time>2011-05-18T17:02:17Z</time>
      </trkpt>
      <trkpt lat="46.10747" lon="3.76988">
        <ele>701</ele>
        <time>2011-05-18T17:02:19Z</time>
      </trkpt>
      <trkpt lat="46.10744" lon="3.77056">
        <ele>697</ele>
        <time>2011-05-18T17:02:23Z</time>
      </trkpt>
      <trkpt lat="46.10753" lon="3.77125">
        <ele>697</ele>
        <time>2011-05-18T17:02:27Z</time>
      </trkpt>
      <trkpt lat="46.10778" lon="3.77168">
        <ele>693</ele>
        <time>2011-05-18T17:02:31Z</time>
      </trkpt>
      <trkpt lat="46.10783" lon="3.77179">
        <ele>693</ele>
        <time>2011-05-18T17:02:32Z</time>
      </trkpt>
      <trkpt lat="46.1081" lon="3.77193">
        <ele>691</ele>
        <time>2011-05-18T17:02:35Z</time>
      </trkpt>
      <trkpt lat="46.10836" lon="3.77205">
        <ele>689</ele>
        <time>2011-05-18T17:02:38Z</time>
      </trkpt>
      <trkpt lat="46.10842" lon="3.77208">
        <ele>688</ele>
        <time>2011-05-18T17:02:39Z</time>
      </trkpt>
      <trkpt lat="46.1086" lon="3.77214">
        <ele>687</ele>
        <time>2011-05-18T17:02:42Z</time>
      </trkpt>
      <trkpt lat="46.10865" lon="3.77236">
        <ele>683</ele>
        <time>2011-05-18T17:02:46Z</time>
      </trkpt>
      <trkpt lat="46.10865" lon="3.77312">
        <ele>680</ele>
        <time>2011-05-18T17:02:52Z</time>
      </trkpt>
      <trkpt lat="46.10899" lon="3.77372">
        <ele>679</ele>
        <time>2011-05-18T17:02:58Z</time>
      </trkpt>
      <trkpt lat="46.10905" lon="3.7738">
        <ele>678</ele>
        <time>2011-05-18T17:02:59Z</time>
      </trkpt>
      <trkpt lat="46.10913" lon="3.77388">
        <ele>678</ele>
        <time>2011-05-18T17:03:01Z</time>
      </trkpt>
      <trkpt lat="46.1091" lon="3.77419">
        <ele>679</ele>
        <time>2011-05-18T17:03:06Z</time>
      </trkpt>
      <trkpt lat="46.10899" lon="3.77444">
        <ele>681</ele>
        <time>2011-05-18T17:03:09Z</time>
      </trkpt>
      <trkpt lat="46.10882" lon="3.77486">
        <ele>684</ele>
        <time>2011-05-18T17:03:13Z</time>
      </trkpt>
      <trkpt lat="46.10876" lon="3.77525">
        <ele>688</ele>
        <time>2011-05-18T17:03:16Z</time>
      </trkpt>
      <trkpt lat="46.10875" lon="3.77554">
        <ele>692</ele>
        <time>2011-05-18T17:03:19Z</time>
      </trkpt>
      <trkpt lat="46.10863" lon="3.77586">
        <ele>693</ele>
        <time>2011-05-18T17:03:21Z</time>
      </trkpt>
      <trkpt lat="46.10849" lon="3.77612">
        <ele>693</ele>
        <time>2011-05-18T17:03:24Z</time>
      </trkpt>
      <trkpt lat="46.1085" lon="3.77667">
        <ele>696</ele>
        <time>2011-05-18T17:03:29Z</time>
      </trkpt>
      <trkpt lat="46.10853" lon="3.77702">
        <ele>698</ele>
        <time>2011-05-18T17:03:30Z</time>
      </trkpt>
      <trkpt lat="46.10861" lon="3.77758">
        <ele>699</ele>
        <time>2011-05-18T17:03:37Z</time>
      </trkpt>
      <trkpt lat="46.10863" lon="3.77813">
        <ele>702</ele>
        <time>2011-05-18T17:03:42Z</time>
      </trkpt>
      <trkpt lat="46.10862" lon="3.77831">
        <ele>704</ele>
        <time>2011-05-18T17:03:45Z</time>
      </trkpt>
      <trkpt lat="46.10862" lon="3.77849">
        <ele>706</ele>
        <time>2011-05-18T17:03:48Z</time>
      </trkpt>
      <trkpt lat="46.10863" lon="3.7787">
        <ele>706</ele>
        <time>2011-05-18T17:03:51Z</time>
      </trkpt>
      <trkpt lat="46.10866" lon="3.77891">
        <ele>709</ele>
        <time>2011-05-18T17:03:54Z</time>
      </trkpt>
      <trkpt lat="46.10869" lon="3.77905">
        <ele>709</ele>
        <time>2011-05-18T17:03:56Z</time>
      </trkpt>
      <trkpt lat="46.10875" lon="3.7795">
        <ele>712</ele>
        <time>2011-05-18T17:04:02Z</time>
      </trkpt>
      <trkpt lat="46.1088" lon="3.77971">
        <ele>713</ele>
        <time>2011-05-18T17:04:05Z</time>
      </trkpt>
      <trkpt lat="46.10888" lon="3.78019">
        <ele>717</ele>
        <time>2011-05-18T17:04:11Z</time>
      </trkpt>
      <trkpt lat="46.10889" lon="3.78027">
        <ele>717</ele>
        <time>2011-05-18T17:04:12Z</time>
      </trkpt>
      <trkpt lat="46.10893" lon="3.78054">
        <ele>719</ele>
        <time>2011-05-18T17:04:16Z</time>
      </trkpt>
      <trkpt lat="46.109" lon="3.78074">
        <ele>721</ele>
        <time>2011-05-18T17:04:21Z</time>
      </trkpt>
      <trkpt lat="46.10913" lon="3.78086">
        <ele>722</ele>
        <time>2011-05-18T17:04:23Z</time>
      </trkpt>
      <trkpt lat="46.10933" lon="3.78104">
        <ele>724</ele>
        <time>2011-05-18T17:04:25Z</time>
      </trkpt>
      <trkpt lat="46.10997" lon="3.78135">
        <ele>728</ele>
        <time>2011-05-18T17:04:30Z</time>
      </trkpt>
      <trkpt lat="46.1107" lon="3.7816">
        <ele>730</ele>
        <time>2011-05-18T17:04:35Z</time>
      </trkpt>
      <trkpt lat="46.11078" lon="3.78163">
        <ele>730</ele>
        <time>2011-05-18T17:04:36Z</time>
      </trkpt>
      <trkpt lat="46.11121" lon="3.78205">
        <ele>734</ele>
        <time>2011-05-18T17:04:41Z</time>
      </trkpt>
      <trkpt lat="46.11126" lon="3.7821">
        <ele>734</ele>
        <time>2011-05-18T17:04:42Z</time>
      </trkpt>
      <trkpt lat="46.11134" lon="3.78223">
        <ele>736</ele>
        <time>2011-05-18T17:04:44Z</time>
      </trkpt>
      <trkpt lat="46.11143" lon="3.78238">
        <ele>736</ele>
        <time>2011-05-18T17:04:46Z</time>
      </trkpt>
      <trkpt lat="46.11167" lon="3.78303">
        <ele>734</ele>
        <time>2011-05-18T17:04:51Z</time>
      </trkpt>
      <trkpt lat="46.11188" lon="3.78376">
        <ele>734</ele>
        <time>2011-05-18T17:04:55Z</time>
      </trkpt>
      <trkpt lat="46.11208" lon="3.78433">
        <ele>734</ele>
        <time>2011-05-18T17:04:59Z</time>
      </trkpt>
      <trkpt lat="46.11236" lon="3.78506">
        <ele>737</ele>
        <time>2011-05-18T17:05:04Z</time>
      </trkpt>
      <trkpt lat="46.11248" lon="3.78537">
        <ele>739</ele>
        <time>2011-05-18T17:05:06Z</time>
      </trkpt>
      <trkpt lat="46.11261" lon="3.78584">
        <ele>742</ele>
        <time>2011-05-18T17:05:09Z</time>
      </trkpt>
      <trkpt lat="46.11268" lon="3.78599">
        <ele>743</ele>
        <time>2011-05-18T17:05:10Z</time>
      </trkpt>
      <trkpt lat="46.11287" lon="3.78635">
        <ele>749</ele>
        <time>2011-05-18T17:05:13Z</time>
      </trkpt>
      <trkpt lat="46.11299" lon="3.78659">
        <ele>751</ele>
        <time>2011-05-18T17:05:16Z</time>
      </trkpt>
      <trkpt lat="46.11301" lon="3.78668">
        <ele>756</ele>
        <time>2011-05-18T17:05:21Z</time>
      </trkpt>
      <trkpt lat="46.11298" lon="3.78672">
        <ele>756</ele>
        <time>2011-05-18T17:05:25Z</time>
      </trkpt>
      <trkpt lat="46.11293" lon="3.7868">
        <ele>752</ele>
        <time>2011-05-18T17:05:34Z</time>
      </trkpt>
      <trkpt lat="46.11289" lon="3.78673">
        <ele>752</ele>
        <time>2011-05-18T17:05:42Z</time>
      </trkpt>
      <trkpt lat="46.11284" lon="3.78675">
        <ele>751</ele>
        <time>2011-05-18T17:05:53Z</time>
      </trkpt>
      <trkpt lat="46.11275" lon="3.7872">
        <ele>750</ele>
        <time>2011-05-18T17:05:59Z</time>
      </trkpt>
      <trkpt lat="46.11268" lon="3.7876">
        <ele>749</ele>
        <time>2011-05-18T17:06:03Z</time>
      </trkpt>
      <trkpt lat="46.11255" lon="3.78799">
        <ele>745</ele>
        <time>2011-05-18T17:06:07Z</time>
      </trkpt>
      <trkpt lat="46.11247" lon="3.78835">
        <ele>743</ele>
        <time>2011-05-18T17:06:10Z</time>
      </trkpt>
      <trkpt lat="46.11243" lon="3.78865">
        <ele>739</ele>
        <time>2011-05-18T17:06:13Z</time>
      </trkpt>
      <trkpt lat="46.11236" lon="3.78899">
        <ele>737</ele>
        <time>2011-05-18T17:06:16Z</time>
      </trkpt>
      <trkpt lat="46.11233" lon="3.78921">
        <ele>735</ele>
        <time>2011-05-18T17:06:18Z</time>
      </trkpt>
      <trkpt lat="46.1123" lon="3.78965">
        <ele>735</ele>
        <time>2011-05-18T17:06:22Z</time>
      </trkpt>
      <trkpt lat="46.1123" lon="3.78995">
        <ele>736</ele>
        <time>2011-05-18T17:06:26Z</time>
      </trkpt>
      <trkpt lat="46.11233" lon="3.79071">
        <ele>738</ele>
        <time>2011-05-18T17:06:33Z</time>
      </trkpt>
      <trkpt lat="46.11232" lon="3.79083">
        <ele>738</ele>
        <time>2011-05-18T17:06:34Z</time>
      </trkpt>
      <trkpt lat="46.11224" lon="3.79161">
        <ele>739</ele>
        <time>2011-05-18T17:06:40Z</time>
      </trkpt>
      <trkpt lat="46.11231" lon="3.79228">
        <ele>739</ele>
        <time>2011-05-18T17:06:45Z</time>
      </trkpt>
      <trkpt lat="46.1126" lon="3.79307">
        <ele>739</ele>
        <time>2011-05-18T17:06:52Z</time>
      </trkpt>
      <trkpt lat="46.11276" lon="3.79335">
        <ele>739</ele>
        <time>2011-05-18T17:06:57Z</time>
      </trkpt>
      <trkpt lat="46.11274" lon="3.7934">
        <ele>740</ele>
        <time>2011-05-18T17:06:59Z</time>
      </trkpt>
      <trkpt lat="46.11262" lon="3.79334">
        <ele>738</ele>
        <time>2011-05-18T17:07:01Z</time>
      </trkpt>
      <trkpt lat="46.11236" lon="3.79326">
        <ele>737</ele>
        <time>2011-05-18T17:07:03Z</time>
      </trkpt>
      <trkpt lat="46.11191" lon="3.79315">
        <ele>737</ele>
        <time>2011-05-18T17:07:06Z</time>
      </trkpt>
      <trkpt lat="46.11149" lon="3.79305">
        <ele>739</ele>
        <time>2011-05-18T17:07:10Z</time>
      </trkpt>
      <trkpt lat="46.11121" lon="3.7929">
        <ele>740</ele>
        <time>2011-05-18T17:07:14Z</time>
      </trkpt>
      <trkpt lat="46.1109" lon="3.79284">
        <ele>744</ele>
        <time>2011-05-18T17:07:19Z</time>
      </trkpt>
      <trkpt lat="46.11083" lon="3.79281">
        <ele>744</ele>
        <time>2011-05-18T17:07:20Z</time>
      </trkpt>
      <trkpt lat="46.11062" lon="3.79273">
        <ele>746</ele>
        <time>2011-05-18T17:07:23Z</time>
      </trkpt>
      <trkpt lat="46.11046" lon="3.79256">
        <ele>749</ele>
        <time>2011-05-18T17:07:28Z</time>
      </trkpt>
      <trkpt lat="46.11045" lon="3.79252">
        <ele>749</ele>
        <time>2011-05-18T17:07:29Z</time>
      </trkpt>
      <trkpt lat="46.1104" lon="3.79217">
        <ele>748</ele>
        <time>2011-05-18T17:07:34Z</time>
      </trkpt>
      <trkpt lat="46.11035" lon="3.79212">
        <ele>748</ele>
        <time>2011-05-18T17:07:35Z</time>
      </trkpt>
      <trkpt lat="46.11017" lon="3.79192">
        <ele>750</ele>
        <time>2011-05-18T17:07:38Z</time>
      </trkpt>
      <trkpt lat="46.10988" lon="3.79139">
        <ele>755</ele>
        <time>2011-05-18T17:07:42Z</time>
      </trkpt>
      <trkpt lat="46.1098" lon="3.79127">
        <ele>757</ele>
        <time>2011-05-18T17:07:43Z</time>
      </trkpt>
      <trkpt lat="46.10962" lon="3.79104">
        <ele>758</ele>
        <time>2011-05-18T17:07:45Z</time>
      </trkpt>
      <trkpt lat="46.10943" lon="3.79085">
        <ele>762</ele>
        <time>2011-05-18T17:07:47Z</time>
      </trkpt>
      <trkpt lat="46.10934" lon="3.79076">
        <ele>763</ele>
        <time>2011-05-18T17:07:48Z</time>
      </trkpt>
      <trkpt lat="46.10905" lon="3.79057">
        <ele>770</ele>
        <time>2011-05-18T17:07:51Z</time>
      </trkpt>
      <trkpt lat="46.10882" lon="3.79046">
        <ele>774</ele>
        <time>2011-05-18T17:07:53Z</time>
      </trkpt>
      <trkpt lat="46.10849" lon="3.79029">
        <ele>777</ele>
        <time>2011-05-18T17:07:56Z</time>
      </trkpt>
      <trkpt lat="46.10807" lon="3.79006">
        <ele>781</ele>
        <time>2011-05-18T17:07:59Z</time>
      </trkpt>
      <trkpt lat="46.10751" lon="3.78976">
        <ele>786</ele>
        <time>2011-05-18T17:08:03Z</time>
      </trkpt>
      <trkpt lat="46.10708" lon="3.78963">
        <ele>789</ele>
        <time>2011-05-18T17:08:06Z</time>
      </trkpt>
      <trkpt lat="46.1067" lon="3.7896">
        <ele>793</ele>
        <time>2011-05-18T17:08:09Z</time>
      </trkpt>
      <trkpt lat="46.10642" lon="3.78961">
        <ele>798</ele>
        <time>2011-05-18T17:08:11Z</time>
      </trkpt>
      <trkpt lat="46.10619" lon="3.78958">
        <ele>799</ele>
        <time>2011-05-18T17:08:13Z</time>
      </trkpt>
      <trkpt lat="46.10595" lon="3.78953">
        <ele>799</ele>
        <time>2011-05-18T17:08:15Z</time>
      </trkpt>
      <trkpt lat="46.10549" lon="3.78925">
        <ele>803</ele>
        <time>2011-05-18T17:08:19Z</time>
      </trkpt>
      <trkpt lat="46.10514" lon="3.78882">
        <ele>808</ele>
        <time>2011-05-18T17:08:23Z</time>
      </trkpt>
      <trkpt lat="46.10497" lon="3.7886">
        <ele>808</ele>
        <time>2011-05-18T17:08:25Z</time>
      </trkpt>
      <trkpt lat="46.10446" lon="3.78805">
        <ele>812</ele>
        <time>2011-05-18T17:08:30Z</time>
      </trkpt>
      <trkpt lat="46.10423" lon="3.78782">
        <ele>814</ele>
        <time>2011-05-18T17:08:33Z</time>
      </trkpt>
      <trkpt lat="46.10396" lon="3.78765">
        <ele>815</ele>
        <time>2011-05-18T17:08:36Z</time>
      </trkpt>
      <trkpt lat="46.10364" lon="3.7877">
        <ele>818</ele>
        <time>2011-05-18T17:08:40Z</time>
      </trkpt>
      <trkpt lat="46.10351" lon="3.78795">
        <ele>822</ele>
        <time>2011-05-18T17:08:44Z</time>
      </trkpt>
      <trkpt lat="46.10345" lon="3.78802">
        <ele>823</ele>
        <time>2011-05-18T17:08:45Z</time>
      </trkpt>
      <trkpt lat="46.10301" lon="3.7883">
        <ele>825</ele>
        <time>2011-05-18T17:08:50Z</time>
      </trkpt>
      <trkpt lat="46.10284" lon="3.78848">
        <ele>828</ele>
        <time>2011-05-18T17:08:51Z</time>
      </trkpt>
      <trkpt lat="46.10254" lon="3.7888">
        <ele>834</ele>
        <time>2011-05-18T17:08:54Z</time>
      </trkpt>
      <trkpt lat="46.10203" lon="3.78893">
        <ele>836</ele>
        <time>2011-05-18T17:08:58Z</time>
      </trkpt>
      <trkpt lat="46.102" lon="3.78897">
        <ele>837</ele>
        <time>2011-05-18T17:08:59Z</time>
      </trkpt>
      <trkpt lat="46.10204" lon="3.78908">
        <ele>838</ele>
        <time>2011-05-18T17:09:03Z</time>
      </trkpt>
      <trkpt lat="46.10203" lon="3.78907">
        <ele>839</ele>
        <time>2011-05-18T17:09:11Z</time>
      </trkpt>
      <trkpt lat="46.10199" lon="3.78902">
        <ele>838</ele>
        <time>2011-05-18T17:09:17Z</time>
      </trkpt>
      <trkpt lat="46.10202" lon="3.78906">
        <ele>840</ele>
        <time>2011-05-18T17:09:24Z</time>
      </trkpt>
      <trkpt lat="46.1021" lon="3.78908">
        <ele>839</ele>
        <time>2011-05-18T17:09:34Z</time>
      </trkpt>
      <trkpt lat="46.10211" lon="3.78908">
        <ele>839</ele>
        <time>2011-05-18T17:09:35Z</time>
      </trkpt>
      <trkpt lat="46.10241" lon="3.78924">
        <ele>838</ele>
        <time>2011-05-18T17:09:40Z</time>
      </trkpt>
      <trkpt lat="46.10297" lon="3.78938">
        <ele>840</ele>
        <time>2011-05-18T17:09:46Z</time>
      </trkpt>
      <trkpt lat="46.10307" lon="3.78941">
        <ele>840</ele>
        <time>2011-05-18T17:09:47Z</time>
      </trkpt>
      <trkpt lat="46.10354" lon="3.78975">
        <ele>842</ele>
        <time>2011-05-18T17:09:51Z</time>
      </trkpt>
      <trkpt lat="46.10384" lon="3.79006">
        <ele>841</ele>
        <time>2011-05-18T17:09:54Z</time>
      </trkpt>
      <trkpt lat="46.10431" lon="3.79104">
        <ele>842</ele>
        <time>2011-05-18T17:10:00Z</time>
      </trkpt>
      <trkpt lat="46.10476" lon="3.79209">
        <ele>843</ele>
        <time>2011-05-18T17:10:06Z</time>
      </trkpt>
      <trkpt lat="46.105" lon="3.79293">
        <ele>844</ele>
        <time>2011-05-18T17:10:11Z</time>
      </trkpt>
      <trkpt lat="46.10509" lon="3.79374">
        <ele>843</ele>
        <time>2011-05-18T17:10:16Z</time>
      </trkpt>
      <trkpt lat="46.10513" lon="3.79435">
        <ele>841</ele>
        <time>2011-05-18T17:10:20Z</time>
      </trkpt>
      <trkpt lat="46.10531" lon="3.79464">
        <ele>840</ele>
        <time>2011-05-18T17:10:24Z</time>
      </trkpt>
      <trkpt lat="46.10541" lon="3.79474">
        <ele>839</ele>
        <time>2011-05-18T17:10:26Z</time>
      </trkpt>
      <trkpt lat="46.10565" lon="3.79502">
        <ele>836</ele>
        <time>2011-05-18T17:10:30Z</time>
      </trkpt>
      <trkpt lat="46.1058" lon="3.79538">
        <ele>833</ele>
        <time>2011-05-18T17:10:34Z</time>
      </trkpt>
      <trkpt lat="46.10598" lon="3.79575">
        <ele>827</ele>
        <time>2011-05-18T17:10:39Z</time>
      </trkpt>
      <trkpt lat="46.10601" lon="3.79594">
        <ele>824</ele>
        <time>2011-05-18T17:10:41Z</time>
      </trkpt>
      <trkpt lat="46.10599" lon="3.79601">
        <ele>824</ele>
        <time>2011-05-18T17:10:42Z</time>
      </trkpt>
      <trkpt lat="46.10591" lon="3.79632">
        <ele>821</ele>
        <time>2011-05-18T17:10:45Z</time>
      </trkpt>
      <trkpt lat="46.10587" lon="3.79642">
        <ele>820</ele>
        <time>2011-05-18T17:10:46Z</time>
      </trkpt>
      <trkpt lat="46.10563" lon="3.79703">
        <ele>814</ele>
        <time>2011-05-18T17:10:51Z</time>
      </trkpt>
      <trkpt lat="46.10559" lon="3.79715">
        <ele>815</ele>
        <time>2011-05-18T17:10:52Z</time>
      </trkpt>
      <trkpt lat="46.10559" lon="3.7973">
        <ele>813</ele>
        <time>2011-05-18T17:10:53Z</time>
      </trkpt>
      <trkpt lat="46.10533" lon="3.79742">
        <ele>811</ele>
        <time>2011-05-18T17:10:57Z</time>
      </trkpt>
      <trkpt lat="46.10523" lon="3.79746">
        <ele>811</ele>
        <time>2011-05-18T17:11:01Z</time>
      </trkpt>
      <trkpt lat="46.10517" lon="3.79746">
        <ele>811</ele>
        <time>2011-05-18T17:11:06Z</time>
      </trkpt>
      <trkpt lat="46.10516" lon="3.79747">
        <ele>811</ele>
        <time>2011-05-18T17:11:16Z</time>
      </trkpt>
      <trkpt lat="46.10506" lon="3.79748">
        <ele>810</ele>
        <time>2011-05-18T17:11:20Z</time>
      </trkpt>
      <trkpt lat="46.10489" lon="3.79752">
        <ele>809</ele>
        <time>2011-05-18T17:11:22Z</time>
      </trkpt>
      <trkpt lat="46.10467" lon="3.79754">
        <ele>807</ele>
        <time>2011-05-18T17:11:24Z</time>
      </trkpt>
      <trkpt lat="46.10434" lon="3.79787">
        <ele>806</ele>
        <time>2011-05-18T17:11:30Z</time>
      </trkpt>
      <trkpt lat="46.10426" lon="3.79818">
        <ele>807</ele>
        <time>2011-05-18T17:11:33Z</time>
      </trkpt>
      <trkpt lat="46.10422" lon="3.79837">
        <ele>807</ele>
        <time>2011-05-18T17:11:35Z</time>
      </trkpt>
      <trkpt lat="46.10427" lon="3.79873">
        <ele>809</ele>
        <time>2011-05-18T17:11:39Z</time>
      </trkpt>
      <trkpt lat="46.10423" lon="3.79888">
        <ele>810</ele>
        <time>2011-05-18T17:11:44Z</time>
      </trkpt>
      <trkpt lat="46.10426" lon="3.79888">
        <ele>810</ele>
        <time>2011-05-18T17:12:01Z</time>
      </trkpt>
      <trkpt lat="46.10423" lon="3.79883">
        <ele>811</ele>
        <time>2011-05-18T17:12:11Z</time>
      </trkpt>
      <trkpt lat="46.1041" lon="3.79899">
        <ele>812</ele>
        <time>2011-05-18T17:12:15Z</time>
      </trkpt>
      <trkpt lat="46.10386" lon="3.79923">
        <ele>815</ele>
        <time>2011-05-18T17:12:19Z</time>
      </trkpt>
      <trkpt lat="46.10356" lon="3.79942">
        <ele>821</ele>
        <time>2011-05-18T17:12:23Z</time>
      </trkpt>
      <trkpt lat="46.10347" lon="3.79945">
        <ele>821</ele>
        <time>2011-05-18T17:12:24Z</time>
      </trkpt>
      <trkpt lat="46.10334" lon="3.79954">
        <ele>824</ele>
        <time>2011-05-18T17:12:26Z</time>
      </trkpt>
      <trkpt lat="46.10307" lon="3.79971">
        <ele>826</ele>
        <time>2011-05-18T17:12:29Z</time>
      </trkpt>
      <trkpt lat="46.10283" lon="3.79981">
        <ele>828</ele>
        <time>2011-05-18T17:12:33Z</time>
      </trkpt>
      <trkpt lat="46.10263" lon="3.79988">
        <ele>832</ele>
        <time>2011-05-18T17:12:36Z</time>
      </trkpt>
      <trkpt lat="46.10241" lon="3.79998">
        <ele>836</ele>
        <time>2011-05-18T17:12:39Z</time>
      </trkpt>
      <trkpt lat="46.10214" lon="3.80015">
        <ele>838</ele>
        <time>2011-05-18T17:12:42Z</time>
      </trkpt>
      <trkpt lat="46.1018" lon="3.80014">
        <ele>844</ele>
        <time>2011-05-18T17:12:46Z</time>
      </trkpt>
      <trkpt lat="46.10148" lon="3.80029">
        <ele>848</ele>
        <time>2011-05-18T17:12:50Z</time>
      </trkpt>
      <trkpt lat="46.10108" lon="3.80054">
        <ele>851</ele>
        <time>2011-05-18T17:12:55Z</time>
      </trkpt>
      <trkpt lat="46.10093" lon="3.80096">
        <ele>856</ele>
        <time>2011-05-18T17:12:59Z</time>
      </trkpt>
      <trkpt lat="46.10084" lon="3.80112">
        <ele>857</ele>
        <time>2011-05-18T17:13:01Z</time>
      </trkpt>
      <trkpt lat="46.10069" lon="3.80126">
        <ele>858</ele>
        <time>2011-05-18T17:13:05Z</time>
      </trkpt>
      <trkpt lat="46.10055" lon="3.80139">
        <ele>861</ele>
        <time>2011-05-18T17:13:09Z</time>
      </trkpt>
      <trkpt lat="46.10039" lon="3.80158">
        <ele>865</ele>
        <time>2011-05-18T17:13:13Z</time>
      </trkpt>
      <trkpt lat="46.10027" lon="3.8017">
        <ele>867</ele>
        <time>2011-05-18T17:13:16Z</time>
      </trkpt>
      <trkpt lat="46.10008" lon="3.80176">
        <ele>868</ele>
        <time>2011-05-18T17:13:19Z</time>
      </trkpt>
      <trkpt lat="46.09987" lon="3.80174">
        <ele>871</ele>
        <time>2011-05-18T17:13:22Z</time>
      </trkpt>
      <trkpt lat="46.09969" lon="3.80178">
        <ele>874</ele>
        <time>2011-05-18T17:13:25Z</time>
      </trkpt>
      <trkpt lat="46.09963" lon="3.80181">
        <ele>875</ele>
        <time>2011-05-18T17:13:26Z</time>
      </trkpt>
      <trkpt lat="46.09936" lon="3.80198">
        <ele>876</ele>
        <time>2011-05-18T17:13:30Z</time>
      </trkpt>
      <trkpt lat="46.09926" lon="3.80205">
        <ele>879</ele>
        <time>2011-05-18T17:13:32Z</time>
      </trkpt>
      <trkpt lat="46.09908" lon="3.80213">
        <ele>880</ele>
        <time>2011-05-18T17:13:37Z</time>
      </trkpt>
      <trkpt lat="46.09906" lon="3.80217">
        <ele>880</ele>
        <time>2011-05-18T17:13:40Z</time>
      </trkpt>
      <trkpt lat="46.09904" lon="3.80221">
        <ele>881</ele>
        <time>2011-05-18T17:13:51Z</time>
      </trkpt>
      <trkpt lat="46.09888" lon="3.80238">
        <ele>880</ele>
        <time>2011-05-18T17:13:56Z</time>
      </trkpt>
      <trkpt lat="46.09855" lon="3.80269">
        <ele>880</ele>
        <time>2011-05-18T17:14:01Z</time>
      </trkpt>
      <trkpt lat="46.09826" lon="3.80285">
        <ele>880</ele>
        <time>2011-05-18T17:14:04Z</time>
      </trkpt>
      <trkpt lat="46.09774" lon="3.80291">
        <ele>877</ele>
        <time>2011-05-18T17:14:10Z</time>
      </trkpt>
      <trkpt lat="46.09768" lon="3.80293">
        <ele>877</ele>
        <time>2011-05-18T17:14:11Z</time>
      </trkpt>
      <trkpt lat="46.09738" lon="3.80299">
        <ele>877</ele>
        <time>2011-05-18T17:14:16Z</time>
      </trkpt>
      <trkpt lat="46.09697" lon="3.80324">
        <ele>877</ele>
        <time>2011-05-18T17:14:22Z</time>
      </trkpt>
      <trkpt lat="46.09691" lon="3.80329">
        <ele>877</ele>
        <time>2011-05-18T17:14:23Z</time>
      </trkpt>
      <trkpt lat="46.09677" lon="3.8034">
        <ele>879</ele>
        <time>2011-05-18T17:14:26Z</time>
      </trkpt>
      <trkpt lat="46.09653" lon="3.80371">
        <ele>879</ele>
        <time>2011-05-18T17:14:33Z</time>
      </trkpt>
      <trkpt lat="46.09649" lon="3.8038">
        <ele>879</ele>
        <time>2011-05-18T17:14:35Z</time>
      </trkpt>
      <trkpt lat="46.0964" lon="3.80421">
        <ele>875</ele>
        <time>2011-05-18T17:14:39Z</time>
      </trkpt>
      <trkpt lat="46.09627" lon="3.80453">
        <ele>872</ele>
        <time>2011-05-18T17:14:45Z</time>
      </trkpt>
      <trkpt lat="46.0962" lon="3.80454">
        <ele>872</ele>
        <time>2011-05-18T17:14:50Z</time>
      </trkpt>
      <trkpt lat="46.09607" lon="3.8045">
        <ele>872</ele>
        <time>2011-05-18T17:14:59Z</time>
      </trkpt>
      <trkpt lat="46.09594" lon="3.80444">
        <ele>872</ele>
        <time>2011-05-18T17:15:05Z</time>
      </trkpt>
      <trkpt lat="46.09588" lon="3.80444">
        <ele>871</ele>
        <time>2011-05-18T17:15:08Z</time>
      </trkpt>
      <trkpt lat="46.09583" lon="3.80437">
        <ele>871</ele>
        <time>2011-05-18T17:15:12Z</time>
      </trkpt>
      <trkpt lat="46.09555" lon="3.80422">
        <ele>874</ele>
        <time>2011-05-18T17:15:19Z</time>
      </trkpt>
      <trkpt lat="46.09547" lon="3.80419">
        <ele>875</ele>
        <time>2011-05-18T17:15:21Z</time>
      </trkpt>
      <trkpt lat="46.09543" lon="3.80409">
        <ele>874</ele>
        <time>2011-05-18T17:15:29Z</time>
      </trkpt>
      <trkpt lat="46.09544" lon="3.8041">
        <ele>878</ele>
        <time>2011-05-18T17:15:31Z</time>
      </trkpt>
      <trkpt lat="46.09545" lon="3.8041">
        <ele>878</ele>
        <time>2011-05-18T17:15:32Z</time>
      </trkpt>
      <trkpt lat="46.09545" lon="3.8041">
        <ele>876</ele>
        <time>2011-05-18T17:15:35Z</time>
      </trkpt>
      <trkpt lat="46.09542" lon="3.80412">
        <ele>876</ele>
        <time>2011-05-18T17:15:36Z</time>
      </trkpt>
      <trkpt lat="46.09527" lon="3.80419">
        <ele>876</ele>
        <time>2011-05-18T17:15:43Z</time>
      </trkpt>
      <trkpt lat="46.09503" lon="3.80435">
        <ele>878</ele>
        <time>2011-05-18T17:15:50Z</time>
      </trkpt>
      <trkpt lat="46.0948" lon="3.80451">
        <ele>879</ele>
        <time>2011-05-18T17:15:56Z</time>
      </trkpt>
      <trkpt lat="46.09475" lon="3.80461">
        <ele>880</ele>
        <time>2011-05-18T17:16:02Z</time>
      </trkpt>
      <trkpt lat="46.09468" lon="3.80462">
        <ele>880</ele>
        <time>2011-05-18T17:16:10Z</time>
      </trkpt>
      <trkpt lat="46.09462" lon="3.80476">
        <ele>882</ele>
        <time>2011-05-18T17:16:16Z</time>
      </trkpt>
      <trkpt lat="46.09467" lon="3.80494">
        <ele>885</ele>
        <time>2011-05-18T17:16:21Z</time>
      </trkpt>
      <trkpt lat="46.09469" lon="3.80498">
        <ele>885</ele>
        <time>2011-05-18T17:16:22Z</time>
      </trkpt>
      <trkpt lat="46.09483" lon="3.80523">
        <ele>884</ele>
        <time>2011-05-18T17:16:28Z</time>
      </trkpt>
      <trkpt lat="46.09496" lon="3.8055">
        <ele>881</ele>
        <time>2011-05-18T17:16:34Z</time>
      </trkpt>
      <trkpt lat="46.09505" lon="3.80558">
        <ele>878</ele>
        <time>2011-05-18T17:16:37Z</time>
      </trkpt>
      <trkpt lat="46.09518" lon="3.80574">
        <ele>874</ele>
        <time>2011-05-18T17:16:41Z</time>
      </trkpt>
      <trkpt lat="46.0952" lon="3.80576">
        <ele>874</ele>
        <time>2011-05-18T17:16:42Z</time>
      </trkpt>
      <trkpt lat="46.09532" lon="3.80596">
        <ele>873</ele>
        <time>2011-05-18T17:16:48Z</time>
      </trkpt>
      <trkpt lat="46.09542" lon="3.80611">
        <ele>869</ele>
        <time>2011-05-18T17:16:53Z</time>
      </trkpt>
      <trkpt lat="46.09546" lon="3.80632">
        <ele>866</ele>
        <time>2011-05-18T17:16:57Z</time>
      </trkpt>
      <trkpt lat="46.09554" lon="3.80649">
        <ele>864</ele>
        <time>2011-05-18T17:17:01Z</time>
      </trkpt>
      <trkpt lat="46.09566" lon="3.80673">
        <ele>860</ele>
        <time>2011-05-18T17:17:05Z</time>
      </trkpt>
      <trkpt lat="46.09575" lon="3.8069">
        <ele>859</ele>
        <time>2011-05-18T17:17:08Z</time>
      </trkpt>
      <trkpt lat="46.0958" lon="3.80696">
        <ele>857</ele>
        <time>2011-05-18T17:17:10Z</time>
      </trkpt>
      <trkpt lat="46.09588" lon="3.80711">
        <ele>856</ele>
        <time>2011-05-18T17:17:16Z</time>
      </trkpt>
      <trkpt lat="46.09589" lon="3.80717">
        <ele>855</ele>
        <time>2011-05-18T17:17:19Z</time>
      </trkpt>
      <trkpt lat="46.09595" lon="3.80731">
        <ele>855</ele>
        <time>2011-05-18T17:17:26Z</time>
      </trkpt>
      <trkpt lat="46.09607" lon="3.80746">
        <ele>855</ele>
        <time>2011-05-18T17:17:51Z</time>
      </trkpt>
      <trkpt lat="46.09603" lon="3.80749">
        <ele>855</ele>
        <time>2011-05-18T17:18:25Z</time>
      </trkpt>
      <trkpt lat="46.09586" lon="3.80762">
        <ele>857</ele>
        <time>2011-05-18T17:18:32Z</time>
      </trkpt>
      <trkpt lat="46.09583" lon="3.80763">
        <ele>858</ele>
        <time>2011-05-18T17:18:33Z</time>
      </trkpt>
      <trkpt lat="46.09571" lon="3.80772">
        <ele>861</ele>
        <time>2011-05-18T17:18:36Z</time>
      </trkpt>
      <trkpt lat="46.09555" lon="3.80785">
        <ele>865</ele>
        <time>2011-05-18T17:18:39Z</time>
      </trkpt>
      <trkpt lat="46.09549" lon="3.80793">
        <ele>866</ele>
        <time>2011-05-18T17:18:41Z</time>
      </trkpt>
      <trkpt lat="46.09545" lon="3.80796">
        <ele>866</ele>
        <time>2011-05-18T17:18:42Z</time>
      </trkpt>
      <trkpt lat="46.09534" lon="3.8081">
        <ele>868</ele>
        <time>2011-05-18T17:18:45Z</time>
      </trkpt>
      <trkpt lat="46.0953" lon="3.80824">
        <ele>869</ele>
        <time>2011-05-18T17:18:47Z</time>
      </trkpt>
      <trkpt lat="46.09507" lon="3.80862">
        <ele>874</ele>
        <time>2011-05-18T17:18:51Z</time>
      </trkpt>
      <trkpt lat="46.09498" lon="3.80878">
        <ele>875</ele>
        <time>2011-05-18T17:18:53Z</time>
      </trkpt>
      <trkpt lat="46.09471" lon="3.80888">
        <ele>880</ele>
        <time>2011-05-18T17:18:57Z</time>
      </trkpt>
      <trkpt lat="46.09465" lon="3.80891">
        <ele>881</ele>
        <time>2011-05-18T17:18:58Z</time>
      </trkpt>
      <trkpt lat="46.09451" lon="3.80891">
        <ele>885</ele>
        <time>2011-05-18T17:19:00Z</time>
      </trkpt>
      <trkpt lat="46.09436" lon="3.80894">
        <ele>888</ele>
        <time>2011-05-18T17:19:04Z</time>
      </trkpt>
      <trkpt lat="46.09437" lon="3.809">
        <ele>887</ele>
        <time>2011-05-18T17:19:11Z</time>
      </trkpt>
      <trkpt lat="46.09435" lon="3.80905">
        <ele>886</ele>
        <time>2011-05-18T17:19:21Z</time>
      </trkpt>
      <trkpt lat="46.09432" lon="3.80928">
        <ele>883</ele>
        <time>2011-05-18T17:19:27Z</time>
      </trkpt>
      <trkpt lat="46.0941" lon="3.80958">
        <ele>883</ele>
        <time>2011-05-18T17:19:32Z</time>
      </trkpt>
      <trkpt lat="46.09406" lon="3.80971">
        <ele>882</ele>
        <time>2011-05-18T17:19:34Z</time>
      </trkpt>
      <trkpt lat="46.09401" lon="3.80983">
        <ele>881</ele>
        <time>2011-05-18T17:19:36Z</time>
      </trkpt>
      <trkpt lat="46.09398" lon="3.81004">
        <ele>877</ele>
        <time>2011-05-18T17:19:40Z</time>
      </trkpt>
      <trkpt lat="46.09395" lon="3.81011">
        <ele>876</ele>
        <time>2011-05-18T17:19:42Z</time>
      </trkpt>
      <trkpt lat="46.09391" lon="3.81019">
        <ele>875</ele>
        <time>2011-05-18T17:19:44Z</time>
      </trkpt>
      <trkpt lat="46.09386" lon="3.81023">
        <ele>874</ele>
        <time>2011-05-18T17:19:46Z</time>
      </trkpt>
      <trkpt lat="46.09381" lon="3.81033">
        <ele>868</ele>
        <time>2011-05-18T17:19:48Z</time>
      </trkpt>
      <trkpt lat="46.09378" lon="3.8104">
        <ele>868</ele>
        <time>2011-05-18T17:19:49Z</time>
      </trkpt>
      <trkpt lat="46.09374" lon="3.81046">
        <ele>867</ele>
        <time>2011-05-18T17:19:50Z</time>
      </trkpt>
      <trkpt lat="46.0937" lon="3.81061">
        <ele>866</ele>
        <time>2011-05-18T17:19:52Z</time>
      </trkpt>
      <trkpt lat="46.09366" lon="3.81084">
        <ele>863</ele>
        <time>2011-05-18T17:19:55Z</time>
      </trkpt>
      <trkpt lat="46.0935" lon="3.81118">
        <ele>860</ele>
        <time>2011-05-18T17:20:01Z</time>
      </trkpt>
      <trkpt lat="46.09347" lon="3.81122">
        <ele>860</ele>
        <time>2011-05-18T17:20:02Z</time>
      </trkpt>
      <trkpt lat="46.09341" lon="3.81129">
        <ele>859</ele>
        <time>2011-05-18T17:20:04Z</time>
      </trkpt>
      <trkpt lat="46.09339" lon="3.81135">
        <ele>858</ele>
        <time>2011-05-18T17:20:05Z</time>
      </trkpt>
      <trkpt lat="46.0933" lon="3.81165">
        <ele>859</ele>
        <time>2011-05-18T17:20:12Z</time>
      </trkpt>
      <trkpt lat="46.09328" lon="3.81187">
        <ele>859</ele>
        <time>2011-05-18T17:20:17Z</time>
      </trkpt>
      <trkpt lat="46.09328" lon="3.81205">
        <ele>859</ele>
        <time>2011-05-18T17:20:20Z</time>
      </trkpt>
      <trkpt lat="46.09332" lon="3.81225">
        <ele>857</ele>
        <time>2011-05-18T17:20:23Z</time>
      </trkpt>
      <trkpt lat="46.09335" lon="3.81261">
        <ele>857</ele>
        <time>2011-05-18T17:20:27Z</time>
      </trkpt>
      <trkpt lat="46.09323" lon="3.81308">
        <ele>858</ele>
        <time>2011-05-18T17:20:32Z</time>
      </trkpt>
      <trkpt lat="46.09308" lon="3.81337">
        <ele>861</ele>
        <time>2011-05-18T17:20:36Z</time>
      </trkpt>
      <trkpt lat="46.09301" lon="3.8135">
        <ele>861</ele>
        <time>2011-05-18T17:20:38Z</time>
      </trkpt>
      <trkpt lat="46.09295" lon="3.81378">
        <ele>859</ele>
        <time>2011-05-18T17:20:43Z</time>
      </trkpt>
      <trkpt lat="46.09295" lon="3.81381">
        <ele>859</ele>
        <time>2011-05-18T17:20:44Z</time>
      </trkpt>
      <trkpt lat="46.09295" lon="3.81388">
        <ele>859</ele>
        <time>2011-05-18T17:20:46Z</time>
      </trkpt>
      <trkpt lat="46.09296" lon="3.81425">
        <ele>857</ele>
        <time>2011-05-18T17:20:51Z</time>
      </trkpt>
      <trkpt lat="46.09297" lon="3.81437">
        <ele>858</ele>
        <time>2011-05-18T17:20:52Z</time>
      </trkpt>
      <trkpt lat="46.09298" lon="3.81459">
        <ele>859</ele>
        <time>2011-05-18T17:20:54Z</time>
      </trkpt>
      <trkpt lat="46.09297" lon="3.81474">
        <ele>860</ele>
        <time>2011-05-18T17:20:56Z</time>
      </trkpt>
      <trkpt lat="46.09298" lon="3.81504">
        <ele>860</ele>
        <time>2011-05-18T17:21:02Z</time>
      </trkpt>
      <trkpt lat="46.09301" lon="3.81523">
        <ele>858</ele>
        <time>2011-05-18T17:21:07Z</time>
      </trkpt>
      <trkpt lat="46.09304" lon="3.81531">
        <ele>857</ele>
        <time>2011-05-18T17:21:10Z</time>
      </trkpt>
      <trkpt lat="46.09312" lon="3.81555">
        <ele>854</ele>
        <time>2011-05-18T17:21:15Z</time>
      </trkpt>
      <trkpt lat="46.09316" lon="3.81575">
        <ele>853</ele>
        <time>2011-05-18T17:21:18Z</time>
      </trkpt>
      <trkpt lat="46.09317" lon="3.8159">
        <ele>852</ele>
        <time>2011-05-18T17:21:20Z</time>
      </trkpt>
      <trkpt lat="46.09319" lon="3.81624">
        <ele>849</ele>
        <time>2011-05-18T17:21:26Z</time>
      </trkpt>
      <trkpt lat="46.09319" lon="3.81656">
        <ele>847</ele>
        <time>2011-05-18T17:21:31Z</time>
      </trkpt>
      <trkpt lat="46.09307" lon="3.81687">
        <ele>846</ele>
        <time>2011-05-18T17:21:36Z</time>
      </trkpt>
      <trkpt lat="46.09303" lon="3.81699">
        <ele>846</ele>
        <time>2011-05-18T17:21:41Z</time>
      </trkpt>
      <trkpt lat="46.09299" lon="3.81697">
        <ele>846</ele>
        <time>2011-05-18T17:21:50Z</time>
      </trkpt>
      <trkpt lat="46.09294" lon="3.81704">
        <ele>843</ele>
        <time>2011-05-18T17:21:55Z</time>
      </trkpt>
      <trkpt lat="46.0929" lon="3.81713">
        <ele>840</ele>
        <time>2011-05-18T17:21:59Z</time>
      </trkpt>
      <trkpt lat="46.09284" lon="3.81722">
        <ele>837</ele>
        <time>2011-05-18T17:22:03Z</time>
      </trkpt>
      <trkpt lat="46.09282" lon="3.81739">
        <ele>836</ele>
        <time>2011-05-18T17:22:08Z</time>
      </trkpt>
      <trkpt lat="46.09281" lon="3.81754">
        <ele>834</ele>
        <time>2011-05-18T17:22:12Z</time>
      </trkpt>
      <trkpt lat="46.09276" lon="3.81788">
        <ele>832</ele>
        <time>2011-05-18T17:22:18Z</time>
      </trkpt>
      <trkpt lat="46.09272" lon="3.81825">
        <ele>832</ele>
        <time>2011-05-18T17:22:21Z</time>
      </trkpt>
      <trkpt lat="46.09276" lon="3.81855">
        <ele>832</ele>
        <time>2011-05-18T17:22:27Z</time>
      </trkpt>
      <trkpt lat="46.09274" lon="3.81863">
        <ele>831</ele>
        <time>2011-05-18T17:22:33Z</time>
      </trkpt>
      <trkpt lat="46.0927" lon="3.8186">
        <ele>831</ele>
        <time>2011-05-18T17:22:47Z</time>
      </trkpt>
      <trkpt lat="46.0927" lon="3.81864">
        <ele>831</ele>
        <time>2011-05-18T17:22:49Z</time>
      </trkpt>
      <trkpt lat="46.09275" lon="3.81878">
        <ele>830</ele>
        <time>2011-05-18T17:22:55Z</time>
      </trkpt>
      <trkpt lat="46.09284" lon="3.81879">
        <ele>831</ele>
        <time>2011-05-18T17:22:57Z</time>
      </trkpt>
      <trkpt lat="46.09302" lon="3.81877">
        <ele>833</ele>
        <time>2011-05-18T17:23:02Z</time>
      </trkpt>
      <trkpt lat="46.09306" lon="3.81877">
        <ele>834</ele>
        <time>2011-05-18T17:23:07Z</time>
      </trkpt>
      <trkpt lat="46.09311" lon="3.81876">
        <ele>830</ele>
        <time>2011-05-18T17:23:12Z</time>
      </trkpt>
      <trkpt lat="46.09313" lon="3.81876">
        <ele>834</ele>
        <time>2011-05-18T17:23:13Z</time>
      </trkpt>
      <trkpt lat="46.09314" lon="3.81876">
        <ele>834</ele>
        <time>2011-05-18T17:23:14Z</time>
      </trkpt>
      <trkpt lat="46.09314" lon="3.81876">
        <ele>833</ele>
        <time>2011-05-18T17:23:16Z</time>
      </trkpt>
      <trkpt lat="46.09314" lon="3.81875">
        <ele>833</ele>
        <time>2011-05-18T17:23:17Z</time>
      </trkpt>
      <trkpt lat="46.09324" lon="3.81876">
        <ele>833</ele>
        <time>2011-05-18T17:23:22Z</time>
      </trkpt>
      <trkpt lat="46.09331" lon="3.81879">
        <ele>834</ele>
        <time>2011-05-18T17:23:30Z</time>
      </trkpt>
      <trkpt lat="46.09337" lon="3.8188">
        <ele>833</ele>
        <time>2011-05-18T17:23:33Z</time>
      </trkpt>
      <trkpt lat="46.09359" lon="3.8187">
        <ele>830</ele>
        <time>2011-05-18T17:23:38Z</time>
      </trkpt>
      <trkpt lat="46.09362" lon="3.81865">
        <ele>829</ele>
        <time>2011-05-18T17:23:39Z</time>
      </trkpt>
      <trkpt lat="46.09362" lon="3.81834">
        <ele>825</ele>
        <time>2011-05-18T17:23:43Z</time>
      </trkpt>
      <trkpt lat="46.09356" lon="3.81811">
        <ele>824</ele>
        <time>2011-05-18T17:23:45Z</time>
      </trkpt>
      <trkpt lat="46.09353" lon="3.81801">
        <ele>823</ele>
        <time>2011-05-18T17:23:46Z</time>
      </trkpt>
      <trkpt lat="46.09379" lon="3.81742">
        <ele>821</ele>
        <time>2011-05-18T17:23:50Z</time>
      </trkpt>
      <trkpt lat="46.0943" lon="3.81691">
        <ele>819</ele>
        <time>2011-05-18T17:23:53Z</time>
      </trkpt>
      <trkpt lat="46.09477" lon="3.81638">
        <ele>816</ele>
        <time>2011-05-18T17:23:57Z</time>
      </trkpt>
      <trkpt lat="46.09518" lon="3.81603">
        <ele>815</ele>
        <time>2011-05-18T17:24:01Z</time>
      </trkpt>
      <trkpt lat="46.09545" lon="3.81586">
        <ele>815</ele>
        <time>2011-05-18T17:24:03Z</time>
      </trkpt>
      <trkpt lat="46.09628" lon="3.81529">
        <ele>814</ele>
        <time>2011-05-18T17:24:10Z</time>
      </trkpt>
      <trkpt lat="46.09675" lon="3.8148">
        <ele>815</ele>
        <time>2011-05-18T17:24:15Z</time>
      </trkpt>
      <trkpt lat="46.09708" lon="3.81439">
        <ele>815</ele>
        <time>2011-05-18T17:24:19Z</time>
      </trkpt>
      <trkpt lat="46.0975" lon="3.81419">
        <ele>819</ele>
        <time>2011-05-18T17:24:24Z</time>
      </trkpt>
      <trkpt lat="46.09756" lon="3.81414">
        <ele>820</ele>
        <time>2011-05-18T17:24:25Z</time>
      </trkpt>
      <trkpt lat="46.09805" lon="3.81396">
        <ele>821</ele>
        <time>2011-05-18T17:24:30Z</time>
      </trkpt>
      <trkpt lat="46.09845" lon="3.81392">
        <ele>823</ele>
        <time>2011-05-18T17:24:34Z</time>
      </trkpt>
      <trkpt lat="46.09924" lon="3.81387">
        <ele>823</ele>
        <time>2011-05-18T17:24:41Z</time>
      </trkpt>
      <trkpt lat="46.09981" lon="3.81402">
        <ele>822</ele>
        <time>2011-05-18T17:24:47Z</time>
      </trkpt>
      <trkpt lat="46.09989" lon="3.81406">
        <ele>822</ele>
        <time>2011-05-18T17:24:48Z</time>
      </trkpt>
      <trkpt lat="46.1003" lon="3.8144">
        <ele>825</ele>
        <time>2011-05-18T17:24:54Z</time>
      </trkpt>
      <trkpt lat="46.10048" lon="3.81459">
        <ele>825</ele>
        <time>2011-05-18T17:24:57Z</time>
      </trkpt>
      <trkpt lat="46.10068" lon="3.81489">
        <ele>825</ele>
        <time>2011-05-18T17:25:02Z</time>
      </trkpt>
      <trkpt lat="46.10071" lon="3.81495">
        <ele>825</ele>
        <time>2011-05-18T17:25:06Z</time>
      </trkpt>
      <trkpt lat="46.10071" lon="3.81497">
        <ele>825</ele>
        <time>2011-05-18T17:25:14Z</time>
      </trkpt>
      <trkpt lat="46.10071" lon="3.815">
        <ele>826</ele>
        <time>2011-05-18T17:25:21Z</time>
      </trkpt>
      <trkpt lat="46.10071" lon="3.81505">
        <ele>826</ele>
        <time>2011-05-18T17:25:30Z</time>
      </trkpt>
      <trkpt lat="46.10076" lon="3.81515">
        <ele>826</ele>
        <time>2011-05-18T17:25:37Z</time>
      </trkpt>
      <trkpt lat="46.10073" lon="3.81508">
        <ele>825</ele>
        <time>2011-05-18T17:25:40Z</time>
      </trkpt>
      <trkpt lat="46.10069" lon="3.81505">
        <ele>826</ele>
        <time>2011-05-18T17:25:48Z</time>
      </trkpt>
      <trkpt lat="46.10079" lon="3.81504">
        <ele>824</ele>
        <time>2011-05-18T17:25:53Z</time>
      </trkpt>
      <trkpt lat="46.10091" lon="3.81518">
        <ele>823</ele>
        <time>2011-05-18T17:25:57Z</time>
      </trkpt>
      <trkpt lat="46.10098" lon="3.81528">
        <ele>822</ele>
        <time>2011-05-18T17:25:59Z</time>
      </trkpt>
      <trkpt lat="46.10116" lon="3.8156">
        <ele>821</ele>
        <time>2011-05-18T17:26:05Z</time>
      </trkpt>
      <trkpt lat="46.10137" lon="3.81599">
        <ele>820</ele>
        <time>2011-05-18T17:26:11Z</time>
      </trkpt>
      <trkpt lat="46.10146" lon="3.81615">
        <ele>819</ele>
        <time>2011-05-18T17:26:16Z</time>
      </trkpt>
      <trkpt lat="46.10164" lon="3.81627">
        <ele>819</ele>
        <time>2011-05-18T17:26:22Z</time>
      </trkpt>
      <trkpt lat="46.1019" lon="3.81628">
        <ele>817</ele>
        <time>2011-05-18T17:26:26Z</time>
      </trkpt>
      <trkpt lat="46.10224" lon="3.81622">
        <ele>815</ele>
        <time>2011-05-18T17:26:29Z</time>
      </trkpt>
      <trkpt lat="46.10247" lon="3.81619">
        <ele>815</ele>
        <time>2011-05-18T17:26:31Z</time>
      </trkpt>
      <trkpt lat="46.10303" lon="3.81619">
        <ele>816</ele>
        <time>2011-05-18T17:26:37Z</time>
      </trkpt>
      <trkpt lat="46.10361" lon="3.81622">
        <ele>815</ele>
        <time>2011-05-18T17:26:44Z</time>
      </trkpt>
      <trkpt lat="46.1037" lon="3.81626">
        <ele>815</ele>
        <time>2011-05-18T17:26:45Z</time>
      </trkpt>
      <trkpt lat="46.10405" lon="3.81645">
        <ele>816</ele>
        <time>2011-05-18T17:26:50Z</time>
      </trkpt>
      <trkpt lat="46.10423" lon="3.81666">
        <ele>815</ele>
        <time>2011-05-18T17:26:56Z</time>
      </trkpt>
      <trkpt lat="46.10427" lon="3.8167">
        <ele>814</ele>
        <time>2011-05-18T17:27:03Z</time>
      </trkpt>
      <trkpt lat="46.10428" lon="3.81672">
        <ele>814</ele>
        <time>2011-05-18T17:27:07Z</time>
      </trkpt>
      <trkpt lat="46.10442" lon="3.81664">
        <ele>809</ele>
        <time>2011-05-18T17:27:12Z</time>
      </trkpt>
      <trkpt lat="46.10464" lon="3.81651">
        <ele>805</ele>
        <time>2011-05-18T17:27:15Z</time>
      </trkpt>
      <trkpt lat="46.10517" lon="3.81653">
        <ele>801</ele>
        <time>2011-05-18T17:27:20Z</time>
      </trkpt>
      <trkpt lat="46.10527" lon="3.81654">
        <ele>800</ele>
        <time>2011-05-18T17:27:21Z</time>
      </trkpt>
      <trkpt lat="46.10539" lon="3.81655">
        <ele>799</ele>
        <time>2011-05-18T17:27:23Z</time>
      </trkpt>
      <trkpt lat="46.10566" lon="3.81663">
        <ele>795</ele>
        <time>2011-05-18T17:27:27Z</time>
      </trkpt>
      <trkpt lat="46.10596" lon="3.81677">
        <ele>794</ele>
        <time>2011-05-18T17:27:31Z</time>
      </trkpt>
      <trkpt lat="46.10614" lon="3.81692">
        <ele>794</ele>
        <time>2011-05-18T17:27:35Z</time>
      </trkpt>
      <trkpt lat="46.10621" lon="3.81694">
        <ele>794</ele>
        <time>2011-05-18T17:27:41Z</time>
      </trkpt>
      <trkpt lat="46.10622" lon="3.81692">
        <ele>793</ele>
        <time>2011-05-18T17:27:52Z</time>
      </trkpt>
      <trkpt lat="46.1063" lon="3.81678">
        <ele>792</ele>
        <time>2011-05-18T17:27:56Z</time>
      </trkpt>
      <trkpt lat="46.10666" lon="3.81642">
        <ele>789</ele>
        <time>2011-05-18T17:28:00Z</time>
      </trkpt>
      <trkpt lat="46.10699" lon="3.81608">
        <ele>787</ele>
        <time>2011-05-18T17:28:05Z</time>
      </trkpt>
      <trkpt lat="46.10711" lon="3.81602">
        <ele>787</ele>
        <time>2011-05-18T17:28:09Z</time>
      </trkpt>
      <trkpt lat="46.10712" lon="3.81602">
        <ele>786</ele>
        <time>2011-05-18T17:28:10Z</time>
      </trkpt>
      <trkpt lat="46.10727" lon="3.81567">
        <ele>786</ele>
        <time>2011-05-18T17:28:14Z</time>
      </trkpt>
      <trkpt lat="46.10741" lon="3.8153">
        <ele>785</ele>
        <time>2011-05-18T17:28:16Z</time>
      </trkpt>
      <trkpt lat="46.10768" lon="3.81422">
        <ele>783</ele>
        <time>2011-05-18T17:28:22Z</time>
      </trkpt>
      <trkpt lat="46.10777" lon="3.81394">
        <ele>782</ele>
        <time>2011-05-18T17:28:24Z</time>
      </trkpt>
      <trkpt lat="46.10783" lon="3.81369">
        <ele>782</ele>
        <time>2011-05-18T17:28:26Z</time>
      </trkpt>
      <trkpt lat="46.10795" lon="3.81342">
        <ele>781</ele>
        <time>2011-05-18T17:28:29Z</time>
      </trkpt>
      <trkpt lat="46.10806" lon="3.81333">
        <ele>781</ele>
        <time>2011-05-18T17:28:33Z</time>
      </trkpt>
      <trkpt lat="46.10805" lon="3.81334">
        <ele>781</ele>
        <time>2011-05-18T17:28:38Z</time>
      </trkpt>
      <trkpt lat="46.10804" lon="3.81334">
        <ele>781</ele>
        <time>2011-05-18T17:28:39Z</time>
      </trkpt>
      <trkpt lat="46.10809" lon="3.81333">
        <ele>781</ele>
        <time>2011-05-18T17:28:44Z</time>
      </trkpt>
      <trkpt lat="46.10823" lon="3.81337">
        <ele>781</ele>
        <time>2011-05-18T17:28:48Z</time>
      </trkpt>
      <trkpt lat="46.1083" lon="3.81342">
        <ele>781</ele>
        <time>2011-05-18T17:28:49Z</time>
      </trkpt>
      <trkpt lat="46.10877" lon="3.81369">
        <ele>784</ele>
        <time>2011-05-18T17:28:54Z</time>
      </trkpt>
      <trkpt lat="46.10908" lon="3.8139">
        <ele>786</ele>
        <time>2011-05-18T17:28:57Z</time>
      </trkpt>
      <trkpt lat="46.10947" lon="3.81411">
        <ele>788</ele>
        <time>2011-05-18T17:29:01Z</time>
      </trkpt>
      <trkpt lat="46.10976" lon="3.81413">
        <ele>791</ele>
        <time>2011-05-18T17:29:05Z</time>
      </trkpt>
      <trkpt lat="46.1098" lon="3.8141">
        <ele>791</ele>
        <time>2011-05-18T17:29:06Z</time>
      </trkpt>
      <trkpt lat="46.10991" lon="3.81399">
        <ele>793</ele>
        <time>2011-05-18T17:29:10Z</time>
      </trkpt>
      <trkpt lat="46.10996" lon="3.81394">
        <ele>794</ele>
        <time>2011-05-18T17:29:11Z</time>
      </trkpt>
      <trkpt lat="46.11015" lon="3.81361">
        <ele>799</ele>
        <time>2011-05-18T17:29:15Z</time>
      </trkpt>
      <trkpt lat="46.11031" lon="3.81328">
        <ele>803</ele>
        <time>2011-05-18T17:29:18Z</time>
      </trkpt>
      <trkpt lat="46.11039" lon="3.81308">
        <ele>806</ele>
        <time>2011-05-18T17:29:20Z</time>
      </trkpt>
      <trkpt lat="46.11053" lon="3.81276">
        <ele>809</ele>
        <time>2011-05-18T17:29:24Z</time>
      </trkpt>
      <trkpt lat="46.11062" lon="3.81267">
        <ele>811</ele>
        <time>2011-05-18T17:29:26Z</time>
      </trkpt>
      <trkpt lat="46.1107" lon="3.81249">
        <ele>812</ele>
        <time>2011-05-18T17:29:28Z</time>
      </trkpt>
      <trkpt lat="46.11082" lon="3.81233">
        <ele>813</ele>
        <time>2011-05-18T17:29:30Z</time>
      </trkpt>
      <trkpt lat="46.11116" lon="3.81203">
        <ele>814</ele>
        <time>2011-05-18T17:29:34Z</time>
      </trkpt>
      <trkpt lat="46.11135" lon="3.8119">
        <ele>817</ele>
        <time>2011-05-18T17:29:38Z</time>
      </trkpt>
      <trkpt lat="46.11142" lon="3.81187">
        <ele>819</ele>
        <time>2011-05-18T17:29:39Z</time>
      </trkpt>
      <trkpt lat="46.11179" lon="3.81181">
        <ele>822</ele>
        <time>2011-05-18T17:29:44Z</time>
      </trkpt>
      <trkpt lat="46.11188" lon="3.8118">
        <ele>822</ele>
        <time>2011-05-18T17:29:45Z</time>
      </trkpt>
      <trkpt lat="46.11234" lon="3.81185">
        <ele>826</ele>
        <time>2011-05-18T17:29:50Z</time>
      </trkpt>
      <trkpt lat="46.11249" lon="3.81184">
        <ele>827</ele>
        <time>2011-05-18T17:29:52Z</time>
      </trkpt>
      <trkpt lat="46.11262" lon="3.81178">
        <ele>828</ele>
        <time>2011-05-18T17:29:54Z</time>
      </trkpt>
      <trkpt lat="46.11277" lon="3.81172">
        <ele>829</ele>
        <time>2011-05-18T17:29:56Z</time>
      </trkpt>
      <trkpt lat="46.11325" lon="3.81176">
        <ele>830</ele>
        <time>2011-05-18T17:30:01Z</time>
      </trkpt>
      <trkpt lat="46.11332" lon="3.81181">
        <ele>831</ele>
        <time>2011-05-18T17:30:02Z</time>
      </trkpt>
      <trkpt lat="46.11343" lon="3.81193">
        <ele>832</ele>
        <time>2011-05-18T17:30:06Z</time>
      </trkpt>
      <trkpt lat="46.11342" lon="3.81192">
        <ele>832</ele>
        <time>2011-05-18T17:30:23Z</time>
      </trkpt>
      <trkpt lat="46.11345" lon="3.81193">
        <ele>832</ele>
        <time>2011-05-18T17:30:24Z</time>
      </trkpt>
      <trkpt lat="46.11384" lon="3.81208">
        <ele>833</ele>
        <time>2011-05-18T17:30:29Z</time>
      </trkpt>
      <trkpt lat="46.11429" lon="3.81239">
        <ele>836</ele>
        <time>2011-05-18T17:30:33Z</time>
      </trkpt>
      <trkpt lat="46.11485" lon="3.81292">
        <ele>839</ele>
        <time>2011-05-18T17:30:39Z</time>
      </trkpt>
      <trkpt lat="46.11491" lon="3.81297">
        <ele>839</ele>
        <time>2011-05-18T17:30:40Z</time>
      </trkpt>
      <trkpt lat="46.11508" lon="3.81324">
        <ele>837</ele>
        <time>2011-05-18T17:30:43Z</time>
      </trkpt>
      <trkpt lat="46.11528" lon="3.81342">
        <ele>836</ele>
        <time>2011-05-18T17:30:46Z</time>
      </trkpt>
      <trkpt lat="46.11569" lon="3.81358">
        <ele>833</ele>
        <time>2011-05-18T17:30:52Z</time>
      </trkpt>
      <trkpt lat="46.11575" lon="3.81361">
        <ele>832</ele>
        <time>2011-05-18T17:30:53Z</time>
      </trkpt>
      <trkpt lat="46.11588" lon="3.81369">
        <ele>829</ele>
        <time>2011-05-18T17:30:55Z</time>
      </trkpt>
      <trkpt lat="46.1162" lon="3.81393">
        <ele>826</ele>
        <time>2011-05-18T17:31:00Z</time>
      </trkpt>
      <trkpt lat="46.11642" lon="3.81401">
        <ele>825</ele>
        <time>2011-05-18T17:31:02Z</time>
      </trkpt>
      <trkpt lat="46.11696" lon="3.81414">
        <ele>824</ele>
        <time>2011-05-18T17:31:07Z</time>
      </trkpt>
      <trkpt lat="46.11724" lon="3.81428">
        <ele>822</ele>
        <time>2011-05-18T17:31:11Z</time>
      </trkpt>
      <trkpt lat="46.11737" lon="3.81436">
        <ele>819</ele>
        <time>2011-05-18T17:31:15Z</time>
      </trkpt>
      <trkpt lat="46.11744" lon="3.81442">
        <ele>819</ele>
        <time>2011-05-18T17:31:17Z</time>
      </trkpt>
      <trkpt lat="46.11757" lon="3.81448">
        <ele>817</ele>
        <time>2011-05-18T17:31:19Z</time>
      </trkpt>
      <trkpt lat="46.11769" lon="3.81453">
        <ele>815</ele>
        <time>2011-05-18T17:31:21Z</time>
      </trkpt>
      <trkpt lat="46.11798" lon="3.81466">
        <ele>812</ele>
        <time>2011-05-18T17:31:25Z</time>
      </trkpt>
      <trkpt lat="46.11811" lon="3.81477">
        <ele>811</ele>
        <time>2011-05-18T17:31:27Z</time>
      </trkpt>
      <trkpt lat="46.11822" lon="3.81488">
        <ele>809</ele>
        <time>2011-05-18T17:31:29Z</time>
      </trkpt>
      <trkpt lat="46.11835" lon="3.81501">
        <ele>805</ele>
        <time>2011-05-18T17:31:31Z</time>
      </trkpt>
      <trkpt lat="46.1185" lon="3.81509">
        <ele>803</ele>
        <time>2011-05-18T17:31:33Z</time>
      </trkpt>
      <trkpt lat="46.11886" lon="3.81532">
        <ele>799</ele>
        <time>2011-05-18T17:31:38Z</time>
      </trkpt>
      <trkpt lat="46.11908" lon="3.81539">
        <ele>796</ele>
        <time>2011-05-18T17:31:42Z</time>
      </trkpt>
      <trkpt lat="46.11924" lon="3.81539">
        <ele>796</ele>
        <time>2011-05-18T17:31:46Z</time>
      </trkpt>
      <trkpt lat="46.11921" lon="3.81533">
        <ele>797</ele>
        <time>2011-05-18T17:31:54Z</time>
      </trkpt>
      <trkpt lat="46.11928" lon="3.81537">
        <ele>796</ele>
        <time>2011-05-18T17:32:00Z</time>
      </trkpt>
      <trkpt lat="46.11932" lon="3.81555">
        <ele>795</ele>
        <time>2011-05-18T17:32:05Z</time>
      </trkpt>
      <trkpt lat="46.1193" lon="3.8158">
        <ele>792</ele>
        <time>2011-05-18T17:32:09Z</time>
      </trkpt>
      <trkpt lat="46.11932" lon="3.81608">
        <ele>790</ele>
        <time>2011-05-18T17:32:12Z</time>
      </trkpt>
      <trkpt lat="46.11932" lon="3.81623">
        <ele>789</ele>
        <time>2011-05-18T17:32:13Z</time>
      </trkpt>
      <trkpt lat="46.11943" lon="3.81642">
        <ele>788</ele>
        <time>2011-05-18T17:32:15Z</time>
      </trkpt>
      <trkpt lat="46.1195" lon="3.81658">
        <ele>786</ele>
        <time>2011-05-18T17:32:17Z</time>
      </trkpt>
      <trkpt lat="46.11967" lon="3.81677">
        <ele>784</ele>
        <time>2011-05-18T17:32:20Z</time>
      </trkpt>
      <trkpt lat="46.1199" lon="3.81699">
        <ele>780</ele>
        <time>2011-05-18T17:32:24Z</time>
      </trkpt>
      <trkpt lat="46.12006" lon="3.81717">
        <ele>778</ele>
        <time>2011-05-18T17:32:27Z</time>
      </trkpt>
      <trkpt lat="46.12021" lon="3.81739">
        <ele>775</ele>
        <time>2011-05-18T17:32:31Z</time>
      </trkpt>
      <trkpt lat="46.12024" lon="3.81745">
        <ele>774</ele>
        <time>2011-05-18T17:32:32Z</time>
      </trkpt>
      <trkpt lat="46.12037" lon="3.81772">
        <ele>773</ele>
        <time>2011-05-18T17:32:35Z</time>
      </trkpt>
      <trkpt lat="46.12043" lon="3.8178">
        <ele>772</ele>
        <time>2011-05-18T17:32:36Z</time>
      </trkpt>
      <trkpt lat="46.12074" lon="3.81816">
        <ele>767</ele>
        <time>2011-05-18T17:32:42Z</time>
      </trkpt>
      <trkpt lat="46.12092" lon="3.81844">
        <ele>762</ele>
        <time>2011-05-18T17:32:46Z</time>
      </trkpt>
      <trkpt lat="46.12104" lon="3.81865">
        <ele>760</ele>
        <time>2011-05-18T17:32:48Z</time>
      </trkpt>
      <trkpt lat="46.12119" lon="3.81881">
        <ele>759</ele>
        <time>2011-05-18T17:32:51Z</time>
      </trkpt>
      <trkpt lat="46.12134" lon="3.81892">
        <ele>757</ele>
        <time>2011-05-18T17:32:55Z</time>
      </trkpt>
      <trkpt lat="46.1214" lon="3.819">
        <ele>757</ele>
        <time>2011-05-18T17:32:57Z</time>
      </trkpt>
      <trkpt lat="46.12144" lon="3.81912">
        <ele>755</ele>
        <time>2011-05-18T17:32:59Z</time>
      </trkpt>
      <trkpt lat="46.12156" lon="3.81933">
        <ele>753</ele>
        <time>2011-05-18T17:33:02Z</time>
      </trkpt>
      <trkpt lat="46.12162" lon="3.81938">
        <ele>752</ele>
        <time>2011-05-18T17:33:03Z</time>
      </trkpt>
      <trkpt lat="46.1217" lon="3.81945">
        <ele>752</ele>
        <time>2011-05-18T17:33:05Z</time>
      </trkpt>
      <trkpt lat="46.12184" lon="3.81936">
        <ele>752</ele>
        <time>2011-05-18T17:33:10Z</time>
      </trkpt>
      <trkpt lat="46.12191" lon="3.81923">
        <ele>753</ele>
        <time>2011-05-18T17:33:14Z</time>
      </trkpt>
      <trkpt lat="46.12191" lon="3.81921">
        <ele>753</ele>
        <time>2011-05-18T17:33:20Z</time>
      </trkpt>
      <trkpt lat="46.12192" lon="3.8192">
        <ele>753</ele>
        <time>2011-05-18T17:33:27Z</time>
      </trkpt>
      <trkpt lat="46.12194" lon="3.81919">
        <ele>752</ele>
        <time>2011-05-18T17:33:34Z</time>
      </trkpt>
      <trkpt lat="46.12204" lon="3.81898">
        <ele>752</ele>
        <time>2011-05-18T17:33:38Z</time>
      </trkpt>
      <trkpt lat="46.12216" lon="3.81881">
        <ele>750</ele>
        <time>2011-05-18T17:33:40Z</time>
      </trkpt>
      <trkpt lat="46.12242" lon="3.8184">
        <ele>749</ele>
        <time>2011-05-18T17:33:46Z</time>
      </trkpt>
      <trkpt lat="46.12251" lon="3.81834">
        <ele>747</ele>
        <time>2011-05-18T17:33:48Z</time>
      </trkpt>
      <trkpt lat="46.12259" lon="3.81828">
        <ele>745</ele>
        <time>2011-05-18T17:33:50Z</time>
      </trkpt>
      <trkpt lat="46.12273" lon="3.81823">
        <ele>742</ele>
        <time>2011-05-18T17:33:53Z</time>
      </trkpt>
      <trkpt lat="46.12288" lon="3.81823">
        <ele>740</ele>
        <time>2011-05-18T17:33:56Z</time>
      </trkpt>
      <trkpt lat="46.12302" lon="3.81836">
        <ele>738</ele>
        <time>2011-05-18T17:34:01Z</time>
      </trkpt>
      <trkpt lat="46.12309" lon="3.81837">
        <ele>736</ele>
        <time>2011-05-18T17:34:06Z</time>
      </trkpt>
      <trkpt lat="46.12303" lon="3.81824">
        <ele>737</ele>
        <time>2011-05-18T17:34:10Z</time>
      </trkpt>
      <trkpt lat="46.12297" lon="3.81814">
        <ele>737</ele>
        <time>2011-05-18T17:34:12Z</time>
      </trkpt>
      <trkpt lat="46.12285" lon="3.81789">
        <ele>742</ele>
        <time>2011-05-18T17:34:16Z</time>
      </trkpt>
      <trkpt lat="46.12282" lon="3.81783">
        <ele>742</ele>
        <time>2011-05-18T17:34:17Z</time>
      </trkpt>
      <trkpt lat="46.12279" lon="3.81776">
        <ele>742</ele>
        <time>2011-05-18T17:34:18Z</time>
      </trkpt>
      <trkpt lat="46.12266" lon="3.81732">
        <ele>747</ele>
        <time>2011-05-18T17:34:23Z</time>
      </trkpt>
      <trkpt lat="46.12261" lon="3.81709">
        <ele>750</ele>
        <time>2011-05-18T17:34:25Z</time>
      </trkpt>
      <trkpt lat="46.12251" lon="3.81676">
        <ele>754</ele>
        <time>2011-05-18T17:34:28Z</time>
      </trkpt>
      <trkpt lat="46.12246" lon="3.81653">
        <ele>758</ele>
        <time>2011-05-18T17:34:30Z</time>
      </trkpt>
      <trkpt lat="46.12244" lon="3.81617">
        <ele>761</ele>
        <time>2011-05-18T17:34:33Z</time>
      </trkpt>
      <trkpt lat="46.12231" lon="3.81559">
        <ele>764</ele>
        <time>2011-05-18T17:34:38Z</time>
      </trkpt>
      <trkpt lat="46.12224" lon="3.8154">
        <ele>765</ele>
        <time>2011-05-18T17:34:40Z</time>
      </trkpt>
      <trkpt lat="46.12203" lon="3.81504">
        <ele>767</ele>
        <time>2011-05-18T17:34:44Z</time>
      </trkpt>
      <trkpt lat="46.12198" lon="3.81498">
        <ele>768</ele>
        <time>2011-05-18T17:34:47Z</time>
      </trkpt>
      <trkpt lat="46.12204" lon="3.81505">
        <ele>769</ele>
        <time>2011-05-18T17:34:52Z</time>
      </trkpt>
      <trkpt lat="46.122" lon="3.81505">
        <ele>769</ele>
        <time>2011-05-18T17:34:59Z</time>
      </trkpt>
      <trkpt lat="46.12199" lon="3.81512">
        <ele>769</ele>
        <time>2011-05-18T17:35:07Z</time>
      </trkpt>
      <trkpt lat="46.12192" lon="3.8148">
        <ele>768</ele>
        <time>2011-05-18T17:35:13Z</time>
      </trkpt>
      <trkpt lat="46.12186" lon="3.81466">
        <ele>769</ele>
        <time>2011-05-18T17:35:15Z</time>
      </trkpt>
      <trkpt lat="46.12181" lon="3.81461">
        <ele>770</ele>
        <time>2011-05-18T17:35:20Z</time>
      </trkpt>
      <trkpt lat="46.12177" lon="3.81458">
        <ele>770</ele>
        <time>2011-05-18T17:35:28Z</time>
      </trkpt>
      <trkpt lat="46.12177" lon="3.81455">
        <ele>770</ele>
        <time>2011-05-18T17:35:34Z</time>
      </trkpt>
      <trkpt lat="46.12172" lon="3.81429">
        <ele>770</ele>
        <time>2011-05-18T17:35:40Z</time>
      </trkpt>
      <trkpt lat="46.12146" lon="3.81407">
        <ele>771</ele>
        <time>2011-05-18T17:35:43Z</time>
      </trkpt>
      <trkpt lat="46.12096" lon="3.81361">
        <ele>771</ele>
        <time>2011-05-18T17:35:49Z</time>
      </trkpt>
      <trkpt lat="46.12072" lon="3.81319">
        <ele>770</ele>
        <time>2011-05-18T17:35:54Z</time>
      </trkpt>
      <trkpt lat="46.12048" lon="3.81277">
        <ele>770</ele>
        <time>2011-05-18T17:35:58Z</time>
      </trkpt>
      <trkpt lat="46.12021" lon="3.8122">
        <ele>768</ele>
        <time>2011-05-18T17:36:01Z</time>
      </trkpt>
      <trkpt lat="46.11976" lon="3.81102">
        <ele>769</ele>
        <time>2011-05-18T17:36:07Z</time>
      </trkpt>
      <trkpt lat="46.11944" lon="3.81025">
        <ele>771</ele>
        <time>2011-05-18T17:36:12Z</time>
      </trkpt>
      <trkpt lat="46.11933" lon="3.81003">
        <ele>772</ele>
        <time>2011-05-18T17:36:14Z</time>
      </trkpt>
      <trkpt lat="46.11917" lon="3.80987">
        <ele>774</ele>
        <time>2011-05-18T17:36:16Z</time>
      </trkpt>
      <trkpt lat="46.11906" lon="3.80968">
        <ele>775</ele>
        <time>2011-05-18T17:36:18Z</time>
      </trkpt>
      <trkpt lat="46.11894" lon="3.80947">
        <ele>776</ele>
        <time>2011-05-18T17:36:20Z</time>
      </trkpt>
      <trkpt lat="46.11861" lon="3.80909">
        <ele>780</ele>
        <time>2011-05-18T17:36:24Z</time>
      </trkpt>
      <trkpt lat="46.11854" lon="3.80899">
        <ele>780</ele>
        <time>2011-05-18T17:36:25Z</time>
      </trkpt>
      <trkpt lat="46.11825" lon="3.80845">
        <ele>782</ele>
        <time>2011-05-18T17:36:29Z</time>
      </trkpt>
      <trkpt lat="46.11783" lon="3.80737">
        <ele>789</ele>
        <time>2011-05-18T17:36:34Z</time>
      </trkpt>
      <trkpt lat="46.11772" lon="3.80695">
        <ele>793</ele>
        <time>2011-05-18T17:36:36Z</time>
      </trkpt>
      <trkpt lat="46.11772" lon="3.8066">
        <ele>801</ele>
        <time>2011-05-18T17:36:38Z</time>
      </trkpt>
      <trkpt lat="46.1176" lon="3.80616">
        <ele>807</ele>
        <time>2011-05-18T17:36:41Z</time>
      </trkpt>
      <trkpt lat="46.11755" lon="3.80603">
        <ele>809</ele>
        <time>2011-05-18T17:36:42Z</time>
      </trkpt>
      <trkpt lat="46.11747" lon="3.80581">
        <ele>813</ele>
        <time>2011-05-18T17:36:44Z</time>
      </trkpt>
      <trkpt lat="46.11729" lon="3.80556">
        <ele>818</ele>
        <time>2011-05-18T17:36:47Z</time>
      </trkpt>
      <trkpt lat="46.11724" lon="3.8055">
        <ele>818</ele>
        <time>2011-05-18T17:36:48Z</time>
      </trkpt>
      <trkpt lat="46.11714" lon="3.80546">
        <ele>821</ele>
        <time>2011-05-18T17:36:52Z</time>
      </trkpt>
      <trkpt lat="46.11718" lon="3.80548">
        <ele>821</ele>
        <time>2011-05-18T17:36:56Z</time>
      </trkpt>
      <trkpt lat="46.117" lon="3.80539">
        <ele>824</ele>
        <time>2011-05-18T17:37:03Z</time>
      </trkpt>
      <trkpt lat="46.11696" lon="3.80538">
        <ele>821</ele>
        <time>2011-05-18T17:37:05Z</time>
      </trkpt>
      <trkpt lat="46.11683" lon="3.80515">
        <ele>822</ele>
        <time>2011-05-18T17:37:12Z</time>
      </trkpt>
      <trkpt lat="46.1167" lon="3.80498">
        <ele>821</ele>
        <time>2011-05-18T17:37:14Z</time>
      </trkpt>
      <trkpt lat="46.11661" lon="3.8048">
        <ele>821</ele>
        <time>2011-05-18T17:37:16Z</time>
      </trkpt>
      <trkpt lat="46.11659" lon="3.8044">
        <ele>819</ele>
        <time>2011-05-18T17:37:20Z</time>
      </trkpt>
      <trkpt lat="46.11663" lon="3.8038">
        <ele>816</ele>
        <time>2011-05-18T17:37:24Z</time>
      </trkpt>
      <trkpt lat="46.11665" lon="3.80366">
        <ele>816</ele>
        <time>2011-05-18T17:37:25Z</time>
      </trkpt>
      <trkpt lat="46.11663" lon="3.80337">
        <ele>813</ele>
        <time>2011-05-18T17:37:27Z</time>
      </trkpt>
      <trkpt lat="46.11663" lon="3.80309">
        <ele>810</ele>
        <time>2011-05-18T17:37:29Z</time>
      </trkpt>
      <trkpt lat="46.11662" lon="3.80297">
        <ele>809</ele>
        <time>2011-05-18T17:37:30Z</time>
      </trkpt>
      <trkpt lat="46.11676" lon="3.80237">
        <ele>805</ele>
        <time>2011-05-18T17:37:35Z</time>
      </trkpt>
      <trkpt lat="46.11677" lon="3.80221">
        <ele>802</ele>
        <time>2011-05-18T17:37:38Z</time>
      </trkpt>
      <trkpt lat="46.11681" lon="3.80216">
        <ele>802</ele>
        <time>2011-05-18T17:37:42Z</time>
      </trkpt>
      <trkpt lat="46.11688" lon="3.80222">
        <ele>802</ele>
        <time>2011-05-18T17:37:46Z</time>
      </trkpt>
      <trkpt lat="46.11692" lon="3.80225">
        <ele>802</ele>
        <time>2011-05-18T17:37:51Z</time>
      </trkpt>
      <trkpt lat="46.11685" lon="3.80222">
        <ele>802</ele>
        <time>2011-05-18T17:37:54Z</time>
      </trkpt>
      <trkpt lat="46.11676" lon="3.80199">
        <ele>800</ele>
        <time>2011-05-18T17:37:58Z</time>
      </trkpt>
      <trkpt lat="46.11671" lon="3.80171">
        <ele>799</ele>
        <time>2011-05-18T17:38:00Z</time>
      </trkpt>
      <trkpt lat="46.11673" lon="3.80114">
        <ele>794</ele>
        <time>2011-05-18T17:38:04Z</time>
      </trkpt>
      <trkpt lat="46.11666" lon="3.80064">
        <ele>790</ele>
        <time>2011-05-18T17:38:07Z</time>
      </trkpt>
      <trkpt lat="46.11661" lon="3.80019">
        <ele>786</ele>
        <time>2011-05-18T17:38:10Z</time>
      </trkpt>
      <trkpt lat="46.1166" lon="3.80006">
        <ele>786</ele>
        <time>2011-05-18T17:38:11Z</time>
      </trkpt>
      <trkpt lat="46.11657" lon="3.79962">
        <ele>781</ele>
        <time>2011-05-18T17:38:14Z</time>
      </trkpt>
      <trkpt lat="46.11654" lon="3.79916">
        <ele>778</ele>
        <time>2011-05-18T17:38:17Z</time>
      </trkpt>
      <trkpt lat="46.11641" lon="3.79848">
        <ele>774</ele>
        <time>2011-05-18T17:38:22Z</time>
      </trkpt>
      <trkpt lat="46.11637" lon="3.79813">
        <ele>770</ele>
        <time>2011-05-18T17:38:24Z</time>
      </trkpt>
      <trkpt lat="46.11636" lon="3.79798">
        <ele>770</ele>
        <time>2011-05-18T17:38:25Z</time>
      </trkpt>
      <trkpt lat="46.1163" lon="3.7975">
        <ele>770</ele>
        <time>2011-05-18T17:38:29Z</time>
      </trkpt>
      <trkpt lat="46.11633" lon="3.79738">
        <ele>769</ele>
        <time>2011-05-18T17:38:30Z</time>
      </trkpt>
      <trkpt lat="46.11642" lon="3.79676">
        <ele>770</ele>
        <time>2011-05-18T17:38:34Z</time>
      </trkpt>
      <trkpt lat="46.11668" lon="3.79619">
        <ele>771</ele>
        <time>2011-05-18T17:38:39Z</time>
      </trkpt>
      <trkpt lat="46.11691" lon="3.79614">
        <ele>771</ele>
        <time>2011-05-18T17:38:42Z</time>
      </trkpt>
      <trkpt lat="46.11699" lon="3.79619">
        <ele>771</ele>
        <time>2011-05-18T17:38:44Z</time>
      </trkpt>
      <trkpt lat="46.11701" lon="3.7962">
        <ele>771</ele>
        <time>2011-05-18T17:38:50Z</time>
      </trkpt>
      <trkpt lat="46.1171" lon="3.79622">
        <ele>771</ele>
        <time>2011-05-18T17:38:56Z</time>
      </trkpt>
      <trkpt lat="46.1171" lon="3.79622">
        <ele>766</ele>
        <time>2011-05-18T17:39:02Z</time>
      </trkpt>
      <trkpt lat="46.11709" lon="3.79622">
        <ele>772</ele>
        <time>2011-05-18T17:39:03Z</time>
      </trkpt>
      <trkpt lat="46.11708" lon="3.79621">
        <ele>767</ele>
        <time>2011-05-18T17:39:05Z</time>
      </trkpt>
      <trkpt lat="46.11708" lon="3.7962">
        <ele>771</ele>
        <time>2011-05-18T17:39:06Z</time>
      </trkpt>
      <trkpt lat="46.11708" lon="3.79621">
        <ele>770</ele>
        <time>2011-05-18T17:39:10Z</time>
      </trkpt>
      <trkpt lat="46.11707" lon="3.79618">
        <ele>770</ele>
        <time>2011-05-18T17:39:29Z</time>
      </trkpt>
      <trkpt lat="46.11708" lon="3.79622">
        <ele>770</ele>
        <time>2011-05-18T17:39:40Z</time>
      </trkpt>
      <trkpt lat="46.11708" lon="3.79622">
        <ele>770</ele>
        <time>2011-05-18T17:39:47Z</time>
      </trkpt>
      <trkpt lat="46.11709" lon="3.79628">
        <ele>771</ele>
        <time>2011-05-18T17:39:55Z</time>
      </trkpt>
      <trkpt lat="46.11711" lon="3.79628">
        <ele>770</ele>
        <time>2011-05-18T17:40:03Z</time>
      </trkpt>
      <trkpt lat="46.11717" lon="3.79634">
        <ele>770</ele>
        <time>2011-05-18T17:40:06Z</time>
      </trkpt>
      <trkpt lat="46.11752" lon="3.79652">
        <ele>769</ele>
        <time>2011-05-18T17:40:10Z</time>
      </trkpt>
      <trkpt lat="46.11803" lon="3.79678">
        <ele>768</ele>
        <time>2011-05-18T17:40:14Z</time>
      </trkpt>
      <trkpt lat="46.11816" lon="3.79683">
        <ele>768</ele>
        <time>2011-05-18T17:40:15Z</time>
      </trkpt>
      <trkpt lat="46.11879" lon="3.79686">
        <ele>766</ele>
        <time>2011-05-18T17:40:19Z</time>
      </trkpt>
      <trkpt lat="46.11976" lon="3.79664">
        <ele>766</ele>
        <time>2011-05-18T17:40:25Z</time>
      </trkpt>
      <trkpt lat="46.12005" lon="3.7966">
        <ele>767</ele>
        <time>2011-05-18T17:40:28Z</time>
      </trkpt>
      <trkpt lat="46.12013" lon="3.79658">
        <ele>768</ele>
        <time>2011-05-18T17:40:29Z</time>
      </trkpt>
      <trkpt lat="46.12025" lon="3.79652">
        <ele>769</ele>
        <time>2011-05-18T17:40:31Z</time>
      </trkpt>
      <trkpt lat="46.12041" lon="3.79622">
        <ele>763</ele>
        <time>2011-05-18T17:40:35Z</time>
      </trkpt>
      <trkpt lat="46.12045" lon="3.79616">
        <ele>763</ele>
        <time>2011-05-18T17:40:36Z</time>
      </trkpt>
      <trkpt lat="46.12052" lon="3.79603">
        <ele>760</ele>
        <time>2011-05-18T17:40:38Z</time>
      </trkpt>
      <trkpt lat="46.12075" lon="3.79572">
        <ele>756</ele>
        <time>2011-05-18T17:40:42Z</time>
      </trkpt>
      <trkpt lat="46.12082" lon="3.79564">
        <ele>754</ele>
        <time>2011-05-18T17:40:44Z</time>
      </trkpt>
      <trkpt lat="46.12096" lon="3.79553">
        <ele>750</ele>
        <time>2011-05-18T17:40:47Z</time>
      </trkpt>
      <trkpt lat="46.12112" lon="3.79531">
        <ele>745</ele>
        <time>2011-05-18T17:40:51Z</time>
      </trkpt>
      <trkpt lat="46.12123" lon="3.79513">
        <ele>743</ele>
        <time>2011-05-18T17:40:54Z</time>
      </trkpt>
      <trkpt lat="46.12153" lon="3.79477">
        <ele>737</ele>
        <time>2011-05-18T17:40:59Z</time>
      </trkpt>
      <trkpt lat="46.1218" lon="3.79456">
        <ele>734</ele>
        <time>2011-05-18T17:41:03Z</time>
      </trkpt>
      <trkpt lat="46.12194" lon="3.79441">
        <ele>731</ele>
        <time>2011-05-18T17:41:06Z</time>
      </trkpt>
      <trkpt lat="46.12205" lon="3.79433">
        <ele>731</ele>
        <time>2011-05-18T17:41:08Z</time>
      </trkpt>
      <trkpt lat="46.12218" lon="3.79422">
        <ele>730</ele>
        <time>2011-05-18T17:41:10Z</time>
      </trkpt>
      <trkpt lat="46.12242" lon="3.79405">
        <ele>725</ele>
        <time>2011-05-18T17:41:15Z</time>
      </trkpt>
      <trkpt lat="46.12255" lon="3.79386">
        <ele>722</ele>
        <time>2011-05-18T17:41:19Z</time>
      </trkpt>
      <trkpt lat="46.12283" lon="3.79365">
        <ele>720</ele>
        <time>2011-05-18T17:41:25Z</time>
      </trkpt>
      <trkpt lat="46.12322" lon="3.79347">
        <ele>719</ele>
        <time>2011-05-18T17:41:30Z</time>
      </trkpt>
      <trkpt lat="46.12346" lon="3.79337">
        <ele>719</ele>
        <time>2011-05-18T17:41:33Z</time>
      </trkpt>
      <trkpt lat="46.12364" lon="3.79324">
        <ele>717</ele>
        <time>2011-05-18T17:41:37Z</time>
      </trkpt>
      <trkpt lat="46.12385" lon="3.79309">
        <ele>717</ele>
        <time>2011-05-18T17:41:43Z</time>
      </trkpt>
      <trkpt lat="46.12399" lon="3.79302">
        <ele>715</ele>
        <time>2011-05-18T17:41:49Z</time>
      </trkpt>
      <trkpt lat="46.12402" lon="3.79295">
        <ele>713</ele>
        <time>2011-05-18T17:41:51Z</time>
      </trkpt>
      <trkpt lat="46.12407" lon="3.79287">
        <ele>712</ele>
        <time>2011-05-18T17:41:56Z</time>
      </trkpt>
      <trkpt lat="46.12408" lon="3.79286">
        <ele>711</ele>
        <time>2011-05-18T17:41:58Z</time>
      </trkpt>
      <trkpt lat="46.12407" lon="3.7927">
        <ele>709</ele>
        <time>2011-05-18T17:42:05Z</time>
      </trkpt>
      <trkpt lat="46.1241" lon="3.79267">
        <ele>707</ele>
        <time>2011-05-18T17:42:08Z</time>
      </trkpt>
      <trkpt lat="46.12427" lon="3.79267">
        <ele>704</ele>
        <time>2011-05-18T17:42:12Z</time>
      </trkpt>
      <trkpt lat="46.12433" lon="3.79269">
        <ele>703</ele>
        <time>2011-05-18T17:42:13Z</time>
      </trkpt>
      <trkpt lat="46.12452" lon="3.79272">
        <ele>700</ele>
        <time>2011-05-18T17:42:18Z</time>
      </trkpt>
      <trkpt lat="46.1246" lon="3.79271">
        <ele>699</ele>
        <time>2011-05-18T17:42:20Z</time>
      </trkpt>
      <trkpt lat="46.12471" lon="3.7926">
        <ele>696</ele>
        <time>2011-05-18T17:42:24Z</time>
      </trkpt>
      <trkpt lat="46.12479" lon="3.79253">
        <ele>693</ele>
        <time>2011-05-18T17:42:28Z</time>
      </trkpt>
      <trkpt lat="46.12484" lon="3.79242">
        <ele>690</ele>
        <time>2011-05-18T17:42:31Z</time>
      </trkpt>
      <trkpt lat="46.12487" lon="3.79231">
        <ele>687</ele>
        <time>2011-05-18T17:42:36Z</time>
      </trkpt>
      <trkpt lat="46.12486" lon="3.79229">
        <ele>687</ele>
        <time>2011-05-18T17:42:37Z</time>
      </trkpt>
      <trkpt lat="46.12481" lon="3.79208">
        <ele>683</ele>
        <time>2011-05-18T17:42:43Z</time>
      </trkpt>
      <trkpt lat="46.12481" lon="3.79201">
        <ele>682</ele>
        <time>2011-05-18T17:42:44Z</time>
      </trkpt>
      <trkpt lat="46.12477" lon="3.79167">
        <ele>677</ele>
        <time>2011-05-18T17:42:48Z</time>
      </trkpt>
      <trkpt lat="46.12477" lon="3.79152">
        <ele>675</ele>
        <time>2011-05-18T17:42:50Z</time>
      </trkpt>
      <trkpt lat="46.12487" lon="3.79137">
        <ele>670</ele>
        <time>2011-05-18T17:42:54Z</time>
      </trkpt>
      <trkpt lat="46.1249" lon="3.79136">
        <ele>668</ele>
        <time>2011-05-18T17:42:56Z</time>
      </trkpt>
      <trkpt lat="46.12483" lon="3.79138">
        <ele>662</ele>
        <time>2011-05-18T17:43:00Z</time>
      </trkpt>
      <trkpt lat="46.12484" lon="3.79135">
        <ele>658</ele>
        <time>2011-05-18T17:43:03Z</time>
      </trkpt>
      <trkpt lat="46.12486" lon="3.79134">
        <ele>657</ele>
        <time>2011-05-18T17:43:04Z</time>
      </trkpt>
      <trkpt lat="46.12486" lon="3.79133">
        <ele>655</ele>
        <time>2011-05-18T17:43:06Z</time>
      </trkpt>
      <trkpt lat="46.1248" lon="3.79127">
        <ele>651</ele>
        <time>2011-05-18T17:43:09Z</time>
      </trkpt>
      <trkpt lat="46.12612" lon="3.79052">
        <ele>649</ele>
        <time>2011-05-18T17:43:14Z</time>
      </trkpt>
      <trkpt lat="46.12688" lon="3.79002">
        <ele>647</ele>
        <time>2011-05-18T17:43:18Z</time>
      </trkpt>
      <trkpt lat="46.12692" lon="3.78993">
        <ele>646</ele>
        <time>2011-05-18T17:43:21Z</time>
      </trkpt>
      <trkpt lat="46.12707" lon="3.78999">
        <ele>643</ele>
        <time>2011-05-18T17:43:27Z</time>
      </trkpt>
      <trkpt lat="46.12711" lon="3.78996">
        <ele>640</ele>
        <time>2011-05-18T17:43:31Z</time>
      </trkpt>
      <trkpt lat="46.12713" lon="3.78991">
        <ele>638</ele>
        <time>2011-05-18T17:43:33Z</time>
      </trkpt>
      <trkpt lat="46.12718" lon="3.78976">
        <ele>634</ele>
        <time>2011-05-18T17:43:40Z</time>
      </trkpt>
      <trkpt lat="46.1272" lon="3.78964">
        <ele>633</ele>
        <time>2011-05-18T17:43:44Z</time>
      </trkpt>
      <trkpt lat="46.12806" lon="3.78892">
        <ele>632</ele>
        <time>2011-05-18T17:43:48Z</time>
      </trkpt>
      <trkpt lat="46.12876" lon="3.78804">
        <ele>633</ele>
        <time>2011-05-18T17:43:53Z</time>
      </trkpt>
      <trkpt lat="46.12871" lon="3.78789">
        <ele>632</ele>
        <time>2011-05-18T17:43:57Z</time>
      </trkpt>
      <trkpt lat="46.12882" lon="3.78782">
        <ele>632</ele>
        <time>2011-05-18T17:43:58Z</time>
      </trkpt>
      <trkpt lat="46.12888" lon="3.78778">
        <ele>626</ele>
        <time>2011-05-18T17:44:02Z</time>
      </trkpt>
      <trkpt lat="46.12956" lon="3.7877">
        <ele>623</ele>
        <time>2011-05-18T17:44:05Z</time>
      </trkpt>
      <trkpt lat="46.12967" lon="3.78783">
        <ele>622</ele>
        <time>2011-05-18T17:44:07Z</time>
      </trkpt>
      <trkpt lat="46.12973" lon="3.78798">
        <ele>620</ele>
        <time>2011-05-18T17:44:09Z</time>
      </trkpt>
      <trkpt lat="46.12978" lon="3.78825">
        <ele>618</ele>
        <time>2011-05-18T17:44:12Z</time>
      </trkpt>
      <trkpt lat="46.12985" lon="3.78842">
        <ele>616</ele>
        <time>2011-05-18T17:44:15Z</time>
      </trkpt>
      <trkpt lat="46.12995" lon="3.78862">
        <ele>615</ele>
        <time>2011-05-18T17:44:18Z</time>
      </trkpt>
      <trkpt lat="46.13021" lon="3.78881">
        <ele>617</ele>
        <time>2011-05-18T17:44:22Z</time>
      </trkpt>
      <trkpt lat="46.13051" lon="3.78876">
        <ele>620</ele>
        <time>2011-05-18T17:44:25Z</time>
      </trkpt>
      <trkpt lat="46.13056" lon="3.78875">
        <ele>622</ele>
        <time>2011-05-18T17:44:26Z</time>
      </trkpt>
      <trkpt lat="46.13077" lon="3.78872">
        <ele>624</ele>
        <time>2011-05-18T17:44:29Z</time>
      </trkpt>
      <trkpt lat="46.13116" lon="3.78875">
        <ele>629</ele>
        <time>2011-05-18T17:44:33Z</time>
      </trkpt>
      <trkpt lat="46.13132" lon="3.78874">
        <ele>631</ele>
        <time>2011-05-18T17:44:35Z</time>
      </trkpt>
      <trkpt lat="46.1315" lon="3.78867">
        <ele>629</ele>
        <time>2011-05-18T17:44:38Z</time>
      </trkpt>
      <trkpt lat="46.13161" lon="3.78845">
        <ele>624</ele>
        <time>2011-05-18T17:44:40Z</time>
      </trkpt>
      <trkpt lat="46.13166" lon="3.78832">
        <ele>621</ele>
        <time>2011-05-18T17:44:42Z</time>
      </trkpt>
      <trkpt lat="46.13181" lon="3.78789">
        <ele>617</ele>
        <time>2011-05-18T17:44:46Z</time>
      </trkpt>
      <trkpt lat="46.13204" lon="3.7876">
        <ele>615</ele>
        <time>2011-05-18T17:44:49Z</time>
      </trkpt>
      <trkpt lat="46.1321" lon="3.78751">
        <ele>615</ele>
        <time>2011-05-18T17:44:50Z</time>
      </trkpt>
      <trkpt lat="46.13236" lon="3.78733">
        <ele>614</ele>
        <time>2011-05-18T17:44:54Z</time>
      </trkpt>
      <trkpt lat="46.13255" lon="3.78716">
        <ele>610</ele>
        <time>2011-05-18T17:44:57Z</time>
      </trkpt>
      <trkpt lat="46.13281" lon="3.78691">
        <ele>607</ele>
        <time>2011-05-18T17:45:01Z</time>
      </trkpt>
      <trkpt lat="46.13344" lon="3.78661">
        <ele>605</ele>
        <time>2011-05-18T17:45:06Z</time>
      </trkpt>
      <trkpt lat="46.13362" lon="3.78652">
        <ele>603</ele>
        <time>2011-05-18T17:45:08Z</time>
      </trkpt>
      <trkpt lat="46.13395" lon="3.78643">
        <ele>599</ele>
        <time>2011-05-18T17:45:13Z</time>
      </trkpt>
      <trkpt lat="46.13397" lon="3.78642">
        <ele>598</ele>
        <time>2011-05-18T17:45:14Z</time>
      </trkpt>
      <trkpt lat="46.13424" lon="3.78624">
        <ele>595</ele>
        <time>2011-05-18T17:45:20Z</time>
      </trkpt>
      <trkpt lat="46.13453" lon="3.78616">
        <ele>593</ele>
        <time>2011-05-18T17:45:26Z</time>
      </trkpt>
      <trkpt lat="46.13462" lon="3.78605">
        <ele>593</ele>
        <time>2011-05-18T17:45:33Z</time>
      </trkpt>
      <trkpt lat="46.13462" lon="3.78604">
        <ele>593</ele>
        <time>2011-05-18T17:45:34Z</time>
      </trkpt>
      <trkpt lat="46.13465" lon="3.78594">
        <ele>591</ele>
        <time>2011-05-18T17:45:40Z</time>
      </trkpt>
      <trkpt lat="46.13472" lon="3.78585">
        <ele>590</ele>
        <time>2011-05-18T17:45:44Z</time>
      </trkpt>
      <trkpt lat="46.13478" lon="3.78583">
        <ele>589</ele>
        <time>2011-05-18T17:45:46Z</time>
      </trkpt>
      <trkpt lat="46.13483" lon="3.78579">
        <ele>587</ele>
        <time>2011-05-18T17:45:49Z</time>
      </trkpt>
      <trkpt lat="46.13491" lon="3.78571">
        <ele>584</ele>
        <time>2011-05-18T17:45:54Z</time>
      </trkpt>
      <trkpt lat="46.13505" lon="3.78562">
        <ele>580</ele>
        <time>2011-05-18T17:45:59Z</time>
      </trkpt>
      <trkpt lat="46.13511" lon="3.7856">
        <ele>579</ele>
        <time>2011-05-18T17:46:01Z</time>
      </trkpt>
      <trkpt lat="46.13525" lon="3.78555">
        <ele>577</ele>
        <time>2011-05-18T17:46:06Z</time>
      </trkpt>
      <trkpt lat="46.13548" lon="3.78551">
        <ele>575</ele>
        <time>2011-05-18T17:46:13Z</time>
      </trkpt>
      <trkpt lat="46.1355" lon="3.7855">
        <ele>575</ele>
        <time>2011-05-18T17:46:14Z</time>
      </trkpt>
      <trkpt lat="46.1358" lon="3.7856">
        <ele>570</ele>
        <time>2011-05-18T17:46:20Z</time>
      </trkpt>
      <trkpt lat="46.13588" lon="3.78564">
        <ele>568</ele>
        <time>2011-05-18T17:46:22Z</time>
      </trkpt>
      <trkpt lat="46.13594" lon="3.7856">
        <ele>567</ele>
        <time>2011-05-18T17:46:24Z</time>
      </trkpt>
      <trkpt lat="46.13598" lon="3.78559">
        <ele>567</ele>
        <time>2011-05-18T17:46:25Z</time>
      </trkpt>
      <trkpt lat="46.13603" lon="3.7855">
        <ele>564</ele>
        <time>2011-05-18T17:46:28Z</time>
      </trkpt>
      <trkpt lat="46.1361" lon="3.78539">
        <ele>561</ele>
        <time>2011-05-18T17:46:32Z</time>
      </trkpt>
      <trkpt lat="46.13612" lon="3.78537">
        <ele>561</ele>
        <time>2011-05-18T17:46:33Z</time>
      </trkpt>
      <trkpt lat="46.13623" lon="3.78534">
        <ele>557</ele>
        <time>2011-05-18T17:46:37Z</time>
      </trkpt>
      <trkpt lat="46.13633" lon="3.78534">
        <ele>554</ele>
        <time>2011-05-18T17:46:40Z</time>
      </trkpt>
      <trkpt lat="46.13658" lon="3.78531">
        <ele>550</ele>
        <time>2011-05-18T17:46:46Z</time>
      </trkpt>
      <trkpt lat="46.13671" lon="3.78524">
        <ele>547</ele>
        <time>2011-05-18T17:46:51Z</time>
      </trkpt>
      <trkpt lat="46.13678" lon="3.78519">
        <ele>544</ele>
        <time>2011-05-18T17:46:55Z</time>
      </trkpt>
      <trkpt lat="46.13681" lon="3.78518">
        <ele>540</ele>
        <time>2011-05-18T17:46:58Z</time>
      </trkpt>
      <trkpt lat="46.13684" lon="3.78516">
        <ele>538</ele>
        <time>2011-05-18T17:47:01Z</time>
      </trkpt>
      <trkpt lat="46.13687" lon="3.78513">
        <ele>532</ele>
        <time>2011-05-18T17:47:06Z</time>
      </trkpt>
      <trkpt lat="46.1369" lon="3.78512">
        <ele>529</ele>
        <time>2011-05-18T17:47:08Z</time>
      </trkpt>
      <trkpt lat="46.13693" lon="3.78508">
        <ele>526</ele>
        <time>2011-05-18T17:47:11Z</time>
      </trkpt>
      <trkpt lat="46.13689" lon="3.78499">
        <ele>522</ele>
        <time>2011-05-18T17:47:15Z</time>
      </trkpt>
      <trkpt lat="46.13688" lon="3.78494">
        <ele>521</ele>
        <time>2011-05-18T17:47:17Z</time>
      </trkpt>
      <trkpt lat="46.13691" lon="3.78486">
        <ele>519</ele>
        <time>2011-05-18T17:47:22Z</time>
      </trkpt>
      <trkpt lat="46.13707" lon="3.78491">
        <ele>519</ele>
        <time>2011-05-18T17:47:27Z</time>
      </trkpt>
      <trkpt lat="46.13725" lon="3.78489">
        <ele>514</ele>
        <time>2011-05-18T17:47:32Z</time>
      </trkpt>
      <trkpt lat="46.13729" lon="3.78484">
        <ele>513</ele>
        <time>2011-05-18T17:47:35Z</time>
      </trkpt>
      <trkpt lat="46.13795" lon="3.78471">
        <ele>512</ele>
        <time>2011-05-18T17:47:41Z</time>
      </trkpt>
      <trkpt lat="46.13796" lon="3.78469">
        <ele>512</ele>
        <time>2011-05-18T17:47:42Z</time>
      </trkpt>
      <trkpt lat="46.13799" lon="3.78444">
        <ele>508</ele>
        <time>2011-05-18T17:47:47Z</time>
      </trkpt>
      <trkpt lat="46.13811" lon="3.78431">
        <ele>507</ele>
        <time>2011-05-18T17:47:49Z</time>
      </trkpt>
      <trkpt lat="46.13806" lon="3.78396">
        <ele>510</ele>
        <time>2011-05-18T17:47:51Z</time>
      </trkpt>
      <trkpt lat="46.13805" lon="3.78355">
        <ele>516</ele>
        <time>2011-05-18T17:47:55Z</time>
      </trkpt>
      <trkpt lat="46.13808" lon="3.78325">
        <ele>520</ele>
        <time>2011-05-18T17:47:58Z</time>
      </trkpt>
      <trkpt lat="46.13808" lon="3.78305">
        <ele>523</ele>
        <time>2011-05-18T17:48:00Z</time>
      </trkpt>
      <trkpt lat="46.13795" lon="3.78268">
        <ele>529</ele>
        <time>2011-05-18T17:48:04Z</time>
      </trkpt>
      <trkpt lat="46.13782" lon="3.78242">
        <ele>530</ele>
        <time>2011-05-18T17:48:06Z</time>
      </trkpt>
      <trkpt lat="46.13754" lon="3.78199">
        <ele>532</ele>
        <time>2011-05-18T17:48:10Z</time>
      </trkpt>
      <trkpt lat="46.13742" lon="3.78181">
        <ele>536</ele>
        <time>2011-05-18T17:48:12Z</time>
      </trkpt>
      <trkpt lat="46.13735" lon="3.78172">
        <ele>536</ele>
        <time>2011-05-18T17:48:13Z</time>
      </trkpt>
      <trkpt lat="46.13729" lon="3.78164">
        <ele>538</ele>
        <time>2011-05-18T17:48:14Z</time>
      </trkpt>
      <trkpt lat="46.1371" lon="3.78124">
        <ele>543</ele>
        <time>2011-05-18T17:48:17Z</time>
      </trkpt>
      <trkpt lat="46.13692" lon="3.7808">
        <ele>548</ele>
        <time>2011-05-18T17:48:20Z</time>
      </trkpt>
      <trkpt lat="46.13685" lon="3.7807">
        <ele>549</ele>
        <time>2011-05-18T17:48:21Z</time>
      </trkpt>
      <trkpt lat="46.13668" lon="3.78026">
        <ele>553</ele>
        <time>2011-05-18T17:48:25Z</time>
      </trkpt>
      <trkpt lat="46.13664" lon="3.78016">
        <ele>554</ele>
        <time>2011-05-18T17:48:26Z</time>
      </trkpt>
      <trkpt lat="46.13656" lon="3.77987">
        <ele>558</ele>
        <time>2011-05-18T17:48:29Z</time>
      </trkpt>
      <trkpt lat="46.13657" lon="3.77977">
        <ele>560</ele>
        <time>2011-05-18T17:48:30Z</time>
      </trkpt>
      <trkpt lat="46.13654" lon="3.77954">
        <ele>561</ele>
        <time>2011-05-18T17:48:32Z</time>
      </trkpt>
      <trkpt lat="46.13639" lon="3.77927">
        <ele>565</ele>
        <time>2011-05-18T17:48:36Z</time>
      </trkpt>
      <trkpt lat="46.13635" lon="3.77905">
        <ele>681</ele>
        <time>2011-05-18T17:48:39Z</time>
      </trkpt>
      <trkpt lat="46.1386" lon="3.77775">
        <ele>573</ele>
        <time>2011-05-18T17:48:43Z</time>
      </trkpt>
      <trkpt lat="46.13962" lon="3.77707">
        <ele>576</ele>
        <time>2011-05-18T17:48:46Z</time>
      </trkpt>
      <trkpt lat="46.13977" lon="3.77673">
        <ele>579</ele>
        <time>2011-05-18T17:48:50Z</time>
      </trkpt>
      <trkpt lat="46.13977" lon="3.77638">
        <ele>584</ele>
        <time>2011-05-18T17:48:54Z</time>
      </trkpt>
      <trkpt lat="46.14057" lon="3.7759">
        <ele>587</ele>
        <time>2011-05-18T17:48:56Z</time>
      </trkpt>
      <trkpt lat="46.14062" lon="3.77566">
        <ele>590</ele>
        <time>2011-05-18T17:48:58Z</time>
      </trkpt>
      <trkpt lat="46.1407" lon="3.77534">
        <ele>593</ele>
        <time>2011-05-18T17:49:01Z</time>
      </trkpt>
      <trkpt lat="46.14067" lon="3.77506">
        <ele>595</ele>
        <time>2011-05-18T17:49:03Z</time>
      </trkpt>
      <trkpt lat="46.14067" lon="3.77466">
        <ele>597</ele>
        <time>2011-05-18T17:49:06Z</time>
      </trkpt>
      <trkpt lat="46.14068" lon="3.77418">
        <ele>598</ele>
        <time>2011-05-18T17:49:08Z</time>
      </trkpt>
      <trkpt lat="46.14122" lon="3.77368">
        <ele>597</ele>
        <time>2011-05-18T17:49:10Z</time>
      </trkpt>
      <trkpt lat="46.14138" lon="3.77325">
        <ele>594</ele>
        <time>2011-05-18T17:49:13Z</time>
      </trkpt>
      <trkpt lat="46.1414" lon="3.7729">
        <ele>589</ele>
        <time>2011-05-18T17:49:15Z</time>
      </trkpt>
      <trkpt lat="46.14145" lon="3.77262">
        <ele>588</ele>
        <time>2011-05-18T17:49:16Z</time>
      </trkpt>
      <trkpt lat="46.14146" lon="3.7723">
        <ele>585</ele>
        <time>2011-05-18T17:49:18Z</time>
      </trkpt>
      <trkpt lat="46.14147" lon="3.7721">
        <ele>584</ele>
        <time>2011-05-18T17:49:19Z</time>
      </trkpt>
      <trkpt lat="46.14177" lon="3.77158">
        <ele>584</ele>
        <time>2011-05-18T17:49:23Z</time>
      </trkpt>
      <trkpt lat="46.14202" lon="3.77164">
        <ele>583</ele>
        <time>2011-05-18T17:49:26Z</time>
      </trkpt>
      <trkpt lat="46.14233" lon="3.7718">
        <ele>582</ele>
        <time>2011-05-18T17:49:28Z</time>
      </trkpt>
      <trkpt lat="46.14261" lon="3.77203">
        <ele>583</ele>
        <time>2011-05-18T17:49:30Z</time>
      </trkpt>
      <trkpt lat="46.14299" lon="3.77231">
        <ele>586</ele>
        <time>2011-05-18T17:49:34Z</time>
      </trkpt>
      <trkpt lat="46.14327" lon="3.77243">
        <ele>585</ele>
        <time>2011-05-18T17:49:38Z</time>
      </trkpt>
      <trkpt lat="46.14339" lon="3.77246">
        <ele>584</ele>
        <time>2011-05-18T17:49:40Z</time>
      </trkpt>
      <trkpt lat="46.14374" lon="3.77247">
        <ele>580</ele>
        <time>2011-05-18T17:49:46Z</time>
      </trkpt>
      <trkpt lat="46.14393" lon="3.77245">
        <ele>577</ele>
        <time>2011-05-18T17:49:49Z</time>
      </trkpt>
      <trkpt lat="46.14397" lon="3.77243">
        <ele>576</ele>
        <time>2011-05-18T17:49:50Z</time>
      </trkpt>
      <trkpt lat="46.14413" lon="3.77209">
        <ele>573</ele>
        <time>2011-05-18T17:49:53Z</time>
      </trkpt>
      <trkpt lat="46.14422" lon="3.77169">
        <ele>570</ele>
        <time>2011-05-18T17:49:55Z</time>
      </trkpt>
      <trkpt lat="46.14424" lon="3.77149">
        <ele>569</ele>
        <time>2011-05-18T17:49:56Z</time>
      </trkpt>
      <trkpt lat="46.14427" lon="3.77036">
        <ele>569</ele>
        <time>2011-05-18T17:50:02Z</time>
      </trkpt>
      <trkpt lat="46.14427" lon="3.77006">
        <ele>566</ele>
        <time>2011-05-18T17:50:04Z</time>
      </trkpt>
      <trkpt lat="46.14441" lon="3.76954">
        <ele>563</ele>
        <time>2011-05-18T17:50:08Z</time>
      </trkpt>
      <trkpt lat="46.14448" lon="3.76943">
        <ele>563</ele>
        <time>2011-05-18T17:50:09Z</time>
      </trkpt>
      <trkpt lat="46.14482" lon="3.76913">
        <ele>562</ele>
        <time>2011-05-18T17:50:12Z</time>
      </trkpt>
      <trkpt lat="46.14505" lon="3.76898">
        <ele>565</ele>
        <time>2011-05-18T17:50:14Z</time>
      </trkpt>
      <trkpt lat="46.14539" lon="3.76842">
        <ele>567</ele>
        <time>2011-05-18T17:50:18Z</time>
      </trkpt>
      <trkpt lat="46.14555" lon="3.76795">
        <ele>572</ele>
        <time>2011-05-18T17:50:21Z</time>
      </trkpt>
      <trkpt lat="46.14559" lon="3.76762">
        <ele>574</ele>
        <time>2011-05-18T17:50:24Z</time>
      </trkpt>
      <trkpt lat="46.14559" lon="3.76753">
        <ele>574</ele>
        <time>2011-05-18T17:50:25Z</time>
      </trkpt>
      <trkpt lat="46.14549" lon="3.76738">
        <ele>574</ele>
        <time>2011-05-18T17:50:29Z</time>
      </trkpt>
      <trkpt lat="46.14533" lon="3.76739">
        <ele>576</ele>
        <time>2011-05-18T17:50:33Z</time>
      </trkpt>
      <trkpt lat="46.14497" lon="3.76749">
        <ele>577</ele>
        <time>2011-05-18T17:50:37Z</time>
      </trkpt>
      <trkpt lat="46.14475" lon="3.76757">
        <ele>581</ele>
        <time>2011-05-18T17:50:39Z</time>
      </trkpt>
      <trkpt lat="46.14452" lon="3.76768">
        <ele>585</ele>
        <time>2011-05-18T17:50:41Z</time>
      </trkpt>
      <trkpt lat="46.14426" lon="3.7678">
        <ele>588</ele>
        <time>2011-05-18T17:50:43Z</time>
      </trkpt>
      <trkpt lat="46.14401" lon="3.76795">
        <ele>591</ele>
        <time>2011-05-18T17:50:45Z</time>
      </trkpt>
      <trkpt lat="46.1438" lon="3.7681">
        <ele>598</ele>
        <time>2011-05-18T17:50:47Z</time>
      </trkpt>
      <trkpt lat="46.14361" lon="3.76824">
        <ele>601</ele>
        <time>2011-05-18T17:50:49Z</time>
      </trkpt>
      <trkpt lat="46.14319" lon="3.76847">
        <ele>607</ele>
        <time>2011-05-18T17:50:53Z</time>
      </trkpt>
      <trkpt lat="46.14296" lon="3.76858">
        <ele>610</ele>
        <time>2011-05-18T17:50:55Z</time>
      </trkpt>
      <trkpt lat="46.14285" lon="3.76863">
        <ele>613</ele>
        <time>2011-05-18T17:50:56Z</time>
      </trkpt>
      <trkpt lat="46.14275" lon="3.76869">
        <ele>616</ele>
        <time>2011-05-18T17:50:57Z</time>
      </trkpt>
      <trkpt lat="46.14257" lon="3.7688">
        <ele>622</ele>
        <time>2011-05-18T17:50:59Z</time>
      </trkpt>
      <trkpt lat="46.14241" lon="3.76894">
        <ele>627</ele>
        <time>2011-05-18T17:51:01Z</time>
      </trkpt>
      <trkpt lat="46.14229" lon="3.76905">
        <ele>629</ele>
        <time>2011-05-18T17:51:03Z</time>
      </trkpt>
      <trkpt lat="46.14191" lon="3.76887">
        <ele>636</ele>
        <time>2011-05-18T17:51:09Z</time>
      </trkpt>
      <trkpt lat="46.14152" lon="3.76873">
        <ele>637</ele>
        <time>2011-05-18T17:51:13Z</time>
      </trkpt>
      <trkpt lat="46.14082" lon="3.76868">
        <ele>637</ele>
        <time>2011-05-18T17:51:19Z</time>
      </trkpt>
      <trkpt lat="46.14033" lon="3.76882">
        <ele>637</ele>
        <time>2011-05-18T17:51:24Z</time>
      </trkpt>
      <trkpt lat="46.14007" lon="3.76857">
        <ele>637</ele>
        <time>2011-05-18T17:51:27Z</time>
      </trkpt>
      <trkpt lat="46.13961" lon="3.76812">
        <ele>642</ele>
        <time>2011-05-18T17:51:31Z</time>
      </trkpt>
      <trkpt lat="46.13949" lon="3.76802">
        <ele>644</ele>
        <time>2011-05-18T17:51:32Z</time>
      </trkpt>
      <trkpt lat="46.13924" lon="3.76763">
        <ele>647</ele>
        <time>2011-05-18T17:51:36Z</time>
      </trkpt>
      <trkpt lat="46.13918" lon="3.76747">
        <ele>647</ele>
        <time>2011-05-18T17:51:38Z</time>
      </trkpt>
      <trkpt lat="46.13909" lon="3.76743">
        <ele>647</ele>
        <time>2011-05-18T17:51:42Z</time>
      </trkpt>
      <trkpt lat="46.13909" lon="3.76758">
        <ele>649</ele>
        <time>2011-05-18T17:51:45Z</time>
      </trkpt>
      <trkpt lat="46.13923" lon="3.76812">
        <ele>651</ele>
        <time>2011-05-18T17:51:50Z</time>
      </trkpt>
      <trkpt lat="46.1393" lon="3.76848">
        <ele>655</ele>
        <time>2011-05-18T17:51:53Z</time>
      </trkpt>
      <trkpt lat="46.13935" lon="3.76882">
        <ele>655</ele>
        <time>2011-05-18T17:51:56Z</time>
      </trkpt>
      <trkpt lat="46.13933" lon="3.76915">
        <ele>657</ele>
        <time>2011-05-18T17:51:59Z</time>
      </trkpt>
      <trkpt lat="46.13914" lon="3.76988">
        <ele>659</ele>
        <time>2011-05-18T17:52:04Z</time>
      </trkpt>
      <trkpt lat="46.13907" lon="3.77023">
        <ele>662</ele>
        <time>2011-05-18T17:52:06Z</time>
      </trkpt>
      <trkpt lat="46.13903" lon="3.7708">
        <ele>663</ele>
        <time>2011-05-18T17:52:09Z</time>
      </trkpt>
      <trkpt lat="46.13893" lon="3.77171">
        <ele>665</ele>
        <time>2011-05-18T17:52:13Z</time>
      </trkpt>
      <trkpt lat="46.13884" lon="3.7721">
        <ele>669</ele>
        <time>2011-05-18T17:52:15Z</time>
      </trkpt>
      <trkpt lat="46.13873" lon="3.77249">
        <ele>673</ele>
        <time>2011-05-18T17:52:17Z</time>
      </trkpt>
      <trkpt lat="46.13863" lon="3.77279">
        <ele>676</ele>
        <time>2011-05-18T17:52:19Z</time>
      </trkpt>
      <trkpt lat="46.13848" lon="3.77317">
        <ele>679</ele>
        <time>2011-05-18T17:52:22Z</time>
      </trkpt>
      <trkpt lat="46.13827" lon="3.77359">
        <ele>682</ele>
        <time>2011-05-18T17:52:26Z</time>
      </trkpt>
      <trkpt lat="46.13823" lon="3.77367">
        <ele>683</ele>
        <time>2011-05-18T17:52:27Z</time>
      </trkpt>
      <trkpt lat="46.13791" lon="3.77405">
        <ele>687</ele>
        <time>2011-05-18T17:52:33Z</time>
      </trkpt>
      <trkpt lat="46.13756" lon="3.77432">
        <ele>688</ele>
        <time>2011-05-18T17:52:38Z</time>
      </trkpt>
      <trkpt lat="46.13744" lon="3.77442">
        <ele>691</ele>
        <time>2011-05-18T17:52:41Z</time>
      </trkpt>
      <trkpt lat="46.13745" lon="3.77441">
        <ele>691</ele>
        <time>2011-05-18T17:52:42Z</time>
      </trkpt>
      <trkpt lat="46.13728" lon="3.77446">
        <ele>692</ele>
        <time>2011-05-18T17:52:47Z</time>
      </trkpt>
      <trkpt lat="46.13712" lon="3.77447">
        <ele>692</ele>
        <time>2011-05-18T17:52:49Z</time>
      </trkpt>
      <trkpt lat="46.13668" lon="3.77464">
        <ele>693</ele>
        <time>2011-05-18T17:52:54Z</time>
      </trkpt>
      <trkpt lat="46.13635" lon="3.77504">
        <ele>696</ele>
        <time>2011-05-18T17:52:58Z</time>
      </trkpt>
      <trkpt lat="46.13615" lon="3.77559">
        <ele>700</ele>
        <time>2011-05-18T17:53:02Z</time>
      </trkpt>
      <trkpt lat="46.136" lon="3.77602">
        <ele>704</ele>
        <time>2011-05-18T17:53:05Z</time>
      </trkpt>
      <trkpt lat="46.13596" lon="3.77613">
        <ele>704</ele>
        <time>2011-05-18T17:53:06Z</time>
      </trkpt>
      <trkpt lat="46.13576" lon="3.7764">
        <ele>707</ele>
        <time>2011-05-18T17:53:09Z</time>
      </trkpt>
      <trkpt lat="46.13546" lon="3.77673">
        <ele>708</ele>
        <time>2011-05-18T17:53:13Z</time>
      </trkpt>
      <trkpt lat="46.13496" lon="3.77704">
        <ele>706</ele>
        <time>2011-05-18T17:53:18Z</time>
      </trkpt>
      <trkpt lat="46.13432" lon="3.77731">
        <ele>704</ele>
        <time>2011-05-18T17:53:24Z</time>
      </trkpt>
      <trkpt lat="46.13389" lon="3.77751">
        <ele>698</ele>
        <time>2011-05-18T17:53:28Z</time>
      </trkpt>
      <trkpt lat="46.13376" lon="3.77759">
        <ele>698</ele>
        <time>2011-05-18T17:53:29Z</time>
      </trkpt>
      <trkpt lat="46.1332" lon="3.77782">
        <ele>698</ele>
        <time>2011-05-18T17:53:34Z</time>
      </trkpt>
      <trkpt lat="46.13276" lon="3.77793">
        <ele>698</ele>
        <time>2011-05-18T17:53:39Z</time>
      </trkpt>
      <trkpt lat="46.13269" lon="3.77796">
        <ele>698</ele>
        <time>2011-05-18T17:53:40Z</time>
      </trkpt>
      <trkpt lat="46.13229" lon="3.77805">
        <ele>699</ele>
        <time>2011-05-18T17:53:44Z</time>
      </trkpt>
      <trkpt lat="46.1317" lon="3.77828">
        <ele>697</ele>
        <time>2011-05-18T17:53:48Z</time>
      </trkpt>
      <trkpt lat="46.13133" lon="3.77845">
        <ele>700</ele>
        <time>2011-05-18T17:53:51Z</time>
      </trkpt>
      <trkpt lat="46.13114" lon="3.77846">
        <ele>702</ele>
        <time>2011-05-18T17:53:53Z</time>
      </trkpt>
      <trkpt lat="46.13093" lon="3.77827">
        <ele>705</ele>
        <time>2011-05-18T17:53:56Z</time>
      </trkpt>
      <trkpt lat="46.13074" lon="3.77815">
        <ele>707</ele>
        <time>2011-05-18T17:53:58Z</time>
      </trkpt>
      <trkpt lat="46.13031" lon="3.77796">
        <ele>711</ele>
        <time>2011-05-18T17:54:02Z</time>
      </trkpt>
      <trkpt lat="46.13002" lon="3.77788">
        <ele>714</ele>
        <time>2011-05-18T17:54:05Z</time>
      </trkpt>
      <trkpt lat="46.12975" lon="3.77796">
        <ele>717</ele>
        <time>2011-05-18T17:54:10Z</time>
      </trkpt>
      <trkpt lat="46.12945" lon="3.77828">
        <ele>721</ele>
        <time>2011-05-18T17:54:14Z</time>
      </trkpt>
      <trkpt lat="46.12934" lon="3.77838">
        <ele>721</ele>
        <time>2011-05-18T17:54:15Z</time>
      </trkpt>
      <trkpt lat="46.12923" lon="3.77844">
        <ele>724</ele>
        <time>2011-05-18T17:54:16Z</time>
      </trkpt>
      <trkpt lat="46.12885" lon="3.77863">
        <ele>726</ele>
        <time>2011-05-18T17:54:19Z</time>
      </trkpt>
      <trkpt lat="46.12852" lon="3.77879">
        <ele>730</ele>
        <time>2011-05-18T17:54:22Z</time>
      </trkpt>
      <trkpt lat="46.1281" lon="3.77902">
        <ele>732</ele>
        <time>2011-05-18T17:54:27Z</time>
      </trkpt>
      <trkpt lat="46.12801" lon="3.77906">
        <ele>733</ele>
        <time>2011-05-18T17:54:28Z</time>
      </trkpt>
      <trkpt lat="46.12757" lon="3.77906">
        <ele>734</ele>
        <time>2011-05-18T17:54:33Z</time>
      </trkpt>
      <trkpt lat="46.12734" lon="3.77911">
        <ele>736</ele>
        <time>2011-05-18T17:54:36Z</time>
      </trkpt>
      <trkpt lat="46.12721" lon="3.77919">
        <ele>737</ele>
        <time>2011-05-18T17:54:38Z</time>
      </trkpt>
      <trkpt lat="46.12707" lon="3.77924">
        <ele>739</ele>
        <time>2011-05-18T17:54:40Z</time>
      </trkpt>
      <trkpt lat="46.12681" lon="3.77927">
        <ele>743</ele>
        <time>2011-05-18T17:54:44Z</time>
      </trkpt>
      <trkpt lat="46.12673" lon="3.77927">
        <ele>744</ele>
        <time>2011-05-18T17:54:45Z</time>
      </trkpt>
      <trkpt lat="46.12625" lon="3.77949">
        <ele>745</ele>
        <time>2011-05-18T17:54:50Z</time>
      </trkpt>
      <trkpt lat="46.12596" lon="3.77976">
        <ele>748</ele>
        <time>2011-05-18T17:54:54Z</time>
      </trkpt>
      <trkpt lat="46.12571" lon="3.78002">
        <ele>750</ele>
        <time>2011-05-18T17:54:58Z</time>
      </trkpt>
      <trkpt lat="46.12541" lon="3.78045">
        <ele>754</ele>
        <time>2011-05-18T17:55:03Z</time>
      </trkpt>
      <trkpt lat="46.12536" lon="3.78037">
        <ele>754</ele>
        <time>2011-05-18T17:55:07Z</time>
      </trkpt>
      <trkpt lat="46.12536" lon="3.78036">
        <ele>755</ele>
        <time>2011-05-18T17:55:14Z</time>
      </trkpt>
      <trkpt lat="46.12536" lon="3.78035">
        <ele>754</ele>
        <time>2011-05-18T17:55:15Z</time>
      </trkpt>
      <trkpt lat="46.12539" lon="3.77997">
        <ele>751</ele>
        <time>2011-05-18T17:55:19Z</time>
      </trkpt>
      <trkpt lat="46.12541" lon="3.77961">
        <ele>748</ele>
        <time>2011-05-18T17:55:21Z</time>
      </trkpt>
      <trkpt lat="46.12547" lon="3.7787">
        <ele>745</ele>
        <time>2011-05-18T17:55:27Z</time>
      </trkpt>
      <trkpt lat="46.12549" lon="3.77842">
        <ele>740</ele>
        <time>2011-05-18T17:55:29Z</time>
      </trkpt>
      <trkpt lat="46.12552" lon="3.778">
        <ele>737</ele>
        <time>2011-05-18T17:55:32Z</time>
      </trkpt>
      <trkpt lat="46.12554" lon="3.77761">
        <ele>734</ele>
        <time>2011-05-18T17:55:35Z</time>
      </trkpt>
      <trkpt lat="46.12556" lon="3.77726">
        <ele>730</ele>
        <time>2011-05-18T17:55:38Z</time>
      </trkpt>
      <trkpt lat="46.12557" lon="3.77677">
        <ele>727</ele>
        <time>2011-05-18T17:55:42Z</time>
      </trkpt>
      <trkpt lat="46.12557" lon="3.77667">
        <ele>726</ele>
        <time>2011-05-18T17:55:43Z</time>
      </trkpt>
      <trkpt lat="46.12548" lon="3.77629">
        <ele>721</ele>
        <time>2011-05-18T17:55:47Z</time>
      </trkpt>
      <trkpt lat="46.12536" lon="3.7758">
        <ele>718</ele>
        <time>2011-05-18T17:55:51Z</time>
      </trkpt>
      <trkpt lat="46.12532" lon="3.77563">
        <ele>718</ele>
        <time>2011-05-18T17:55:52Z</time>
      </trkpt>
      <trkpt lat="46.12526" lon="3.77504">
        <ele>716</ele>
        <time>2011-05-18T17:55:57Z</time>
      </trkpt>
      <trkpt lat="46.12529" lon="3.77493">
        <ele>716</ele>
        <time>2011-05-18T17:55:58Z</time>
      </trkpt>
      <trkpt lat="46.1254" lon="3.7746">
        <ele>714</ele>
        <time>2011-05-18T17:56:01Z</time>
      </trkpt>
      <trkpt lat="46.12544" lon="3.77417">
        <ele>713</ele>
        <time>2011-05-18T17:56:05Z</time>
      </trkpt>
      <trkpt lat="46.12537" lon="3.77395">
        <ele>711</ele>
        <time>2011-05-18T17:56:09Z</time>
      </trkpt>
      <trkpt lat="46.12511" lon="3.77371">
        <ele>710</ele>
        <time>2011-05-18T17:56:14Z</time>
      </trkpt>
      <trkpt lat="46.12477" lon="3.77355">
        <ele>705</ele>
        <time>2011-05-18T17:56:18Z</time>
      </trkpt>
      <trkpt lat="46.12451" lon="3.77323">
        <ele>704</ele>
        <time>2011-05-18T17:56:22Z</time>
      </trkpt>
      <trkpt lat="46.12434" lon="3.77271">
        <ele>702</ele>
        <time>2011-05-18T17:56:27Z</time>
      </trkpt>
      <trkpt lat="46.12436" lon="3.77246">
        <ele>702</ele>
        <time>2011-05-18T17:56:29Z</time>
      </trkpt>
      <trkpt lat="46.1244" lon="3.77213">
        <ele>702</ele>
        <time>2011-05-18T17:56:32Z</time>
      </trkpt>
      <trkpt lat="46.12417" lon="3.77201">
        <ele>701</ele>
        <time>2011-05-18T17:56:36Z</time>
      </trkpt>
      <trkpt lat="46.12365" lon="3.77201">
        <ele>697</ele>
        <time>2011-05-18T17:56:40Z</time>
      </trkpt>
      <trkpt lat="46.12352" lon="3.77199">
        <ele>697</ele>
        <time>2011-05-18T17:56:41Z</time>
      </trkpt>
      <trkpt lat="46.12314" lon="3.77195">
        <ele>692</ele>
        <time>2011-05-18T17:56:44Z</time>
      </trkpt>
      <trkpt lat="46.12268" lon="3.77184">
        <ele>691</ele>
        <time>2011-05-18T17:56:48Z</time>
      </trkpt>
      <trkpt lat="46.12206" lon="3.77174">
        <ele>690</ele>
        <time>2011-05-18T17:56:53Z</time>
      </trkpt>
      <trkpt lat="46.12161" lon="3.77168">
        <ele>685</ele>
        <time>2011-05-18T17:56:58Z</time>
      </trkpt>
      <trkpt lat="46.12135" lon="3.77161">
        <ele>684</ele>
        <time>2011-05-18T17:57:01Z</time>
      </trkpt>
      <trkpt lat="46.12088" lon="3.77155">
        <ele>680</ele>
        <time>2011-05-18T17:57:05Z</time>
      </trkpt>
      <trkpt lat="46.12078" lon="3.77155">
        <ele>679</ele>
        <time>2011-05-18T17:57:06Z</time>
      </trkpt>
      <trkpt lat="46.12056" lon="3.77152">
        <ele>676</ele>
        <time>2011-05-18T17:57:09Z</time>
      </trkpt>
      <trkpt lat="46.1204" lon="3.77166">
        <ele>674</ele>
        <time>2011-05-18T17:57:13Z</time>
      </trkpt>
      <trkpt lat="46.12033" lon="3.77182">
        <ele>672</ele>
        <time>2011-05-18T17:57:15Z</time>
      </trkpt>
      <trkpt lat="46.12017" lon="3.77199">
        <ele>670</ele>
        <time>2011-05-18T17:57:18Z</time>
      </trkpt>
      <trkpt lat="46.12005" lon="3.77206">
        <ele>669</ele>
        <time>2011-05-18T17:57:20Z</time>
      </trkpt>
      <trkpt lat="46.11964" lon="3.7723">
        <ele>669</ele>
        <time>2011-05-18T17:57:26Z</time>
      </trkpt>
      <trkpt lat="46.11919" lon="3.77258">
        <ele>673</ele>
        <time>2011-05-18T17:57:31Z</time>
      </trkpt>
      <trkpt lat="46.11901" lon="3.77267">
        <ele>674</ele>
        <time>2011-05-18T17:57:33Z</time>
      </trkpt>
      <trkpt lat="46.11886" lon="3.77275">
        <ele>676</ele>
        <time>2011-05-18T17:57:35Z</time>
      </trkpt>
      <trkpt lat="46.11854" lon="3.7728">
        <ele>678</ele>
        <time>2011-05-18T17:57:39Z</time>
      </trkpt>
      <trkpt lat="46.11829" lon="3.77289">
        <ele>680</ele>
        <time>2011-05-18T17:57:42Z</time>
      </trkpt>
      <trkpt lat="46.11779" lon="3.77327">
        <ele>678</ele>
        <time>2011-05-18T17:57:48Z</time>
      </trkpt>
      <trkpt lat="46.11738" lon="3.77369">
        <ele>677</ele>
        <time>2011-05-18T17:57:54Z</time>
      </trkpt>
      <trkpt lat="46.11733" lon="3.77375">
        <ele>677</ele>
        <time>2011-05-18T17:57:55Z</time>
      </trkpt>
      <trkpt lat="46.11702" lon="3.77424">
        <ele>677</ele>
        <time>2011-05-18T17:58:00Z</time>
      </trkpt>
      <trkpt lat="46.11672" lon="3.77477">
        <ele>679</ele>
        <time>2011-05-18T17:58:05Z</time>
      </trkpt>
      <trkpt lat="46.11667" lon="3.77488">
        <ele>679</ele>
        <time>2011-05-18T17:58:06Z</time>
      </trkpt>
      <trkpt lat="46.11643" lon="3.77541">
        <ele>682</ele>
        <time>2011-05-18T17:58:11Z</time>
      </trkpt>
      <trkpt lat="46.1163" lon="3.77607">
        <ele>683</ele>
        <time>2011-05-18T17:58:16Z</time>
      </trkpt>
      <trkpt lat="46.11627" lon="3.77628">
        <ele>684</ele>
        <time>2011-05-18T17:58:18Z</time>
      </trkpt>
      <trkpt lat="46.11614" lon="3.77648">
        <ele>685</ele>
        <time>2011-05-18T17:58:23Z</time>
      </trkpt>
      <trkpt lat="46.11598" lon="3.77643">
        <ele>686</ele>
        <time>2011-05-18T17:58:28Z</time>
      </trkpt>
      <trkpt lat="46.11595" lon="3.7764">
        <ele>687</ele>
        <time>2011-05-18T17:58:33Z</time>
      </trkpt>
      <trkpt lat="46.1159" lon="3.77639">
        <ele>687</ele>
        <time>2011-05-18T17:58:44Z</time>
      </trkpt>
      <trkpt lat="46.11581" lon="3.7762">
        <ele>684</ele>
        <time>2011-05-18T17:58:48Z</time>
      </trkpt>
      <trkpt lat="46.11542" lon="3.77597">
        <ele>682</ele>
        <time>2011-05-18T17:58:52Z</time>
      </trkpt>
      <trkpt lat="46.11503" lon="3.77572">
        <ele>684</ele>
        <time>2011-05-18T17:58:56Z</time>
      </trkpt>
      <trkpt lat="46.11504" lon="3.77541">
        <ele>684</ele>
        <time>2011-05-18T17:59:00Z</time>
      </trkpt>
      <trkpt lat="46.11519" lon="3.77509">
        <ele>682</ele>
        <time>2011-05-18T17:59:04Z</time>
      </trkpt>
      <trkpt lat="46.11529" lon="3.77481">
        <ele>679</ele>
        <time>2011-05-18T17:59:09Z</time>
      </trkpt>
      <trkpt lat="46.1153" lon="3.77452">
        <ele>676</ele>
        <time>2011-05-18T17:59:14Z</time>
      </trkpt>
      <trkpt lat="46.11523" lon="3.77423">
        <ele>673</ele>
        <time>2011-05-18T17:59:19Z</time>
      </trkpt>
      <trkpt lat="46.11516" lon="3.77408">
        <ele>670</ele>
        <time>2011-05-18T17:59:22Z</time>
      </trkpt>
      <trkpt lat="46.11509" lon="3.77397">
        <ele>669</ele>
        <time>2011-05-18T17:59:24Z</time>
      </trkpt>
      <trkpt lat="46.115" lon="3.77378">
        <ele>666</ele>
        <time>2011-05-18T17:59:27Z</time>
      </trkpt>
      <trkpt lat="46.11494" lon="3.77332">
        <ele>662</ele>
        <time>2011-05-18T17:59:31Z</time>
      </trkpt>
      <trkpt lat="46.11494" lon="3.77301">
        <ele>661</ele>
        <time>2011-05-18T17:59:33Z</time>
      </trkpt>
      <trkpt lat="46.11494" lon="3.77276">
        <ele>660</ele>
        <time>2011-05-18T17:59:35Z</time>
      </trkpt>
      <trkpt lat="46.11494" lon="3.7722">
        <ele>659</ele>
        <time>2011-05-18T17:59:40Z</time>
      </trkpt>
      <trkpt lat="46.11515" lon="3.77176">
        <ele>660</ele>
        <time>2011-05-18T17:59:45Z</time>
      </trkpt>
      <trkpt lat="46.11531" lon="3.7717">
        <ele>661</ele>
        <time>2011-05-18T17:59:47Z</time>
      </trkpt>
      <trkpt lat="46.11569" lon="3.77156">
        <ele>663</ele>
        <time>2011-05-18T17:59:51Z</time>
      </trkpt>
      <trkpt lat="46.11594" lon="3.77114">
        <ele>663</ele>
        <time>2011-05-18T17:59:56Z</time>
      </trkpt>
      <trkpt lat="46.1161" lon="3.77088">
        <ele>665</ele>
        <time>2011-05-18T17:59:59Z</time>
      </trkpt>
      <trkpt lat="46.11626" lon="3.77065">
        <ele>670</ele>
        <time>2011-05-18T18:00:03Z</time>
      </trkpt>
      <trkpt lat="46.11638" lon="3.77054">
        <ele>671</ele>
        <time>2011-05-18T18:00:04Z</time>
      </trkpt>
      <trkpt lat="46.11665" lon="3.77033">
        <ele>674</ele>
        <time>2011-05-18T18:00:06Z</time>
      </trkpt>
      <trkpt lat="46.11675" lon="3.77019">
        <ele>675</ele>
        <time>2011-05-18T18:00:08Z</time>
      </trkpt>
      <trkpt lat="46.11685" lon="3.76989">
        <ele>679</ele>
        <time>2011-05-18T18:00:13Z</time>
      </trkpt>
      <trkpt lat="46.11688" lon="3.7698">
        <ele>682</ele>
        <time>2011-05-18T18:00:15Z</time>
      </trkpt>
      <trkpt lat="46.1169" lon="3.76972">
        <ele>685</ele>
        <time>2011-05-18T18:00:17Z</time>
      </trkpt>
      <trkpt lat="46.11691" lon="3.76964">
        <ele>686</ele>
        <time>2011-05-18T18:00:19Z</time>
      </trkpt>
      <trkpt lat="46.11692" lon="3.76953">
        <ele>687</ele>
        <time>2011-05-18T18:00:22Z</time>
      </trkpt>
      <trkpt lat="46.11707" lon="3.76893">
        <ele>691</ele>
        <time>2011-05-18T18:00:27Z</time>
      </trkpt>
      <trkpt lat="46.11701" lon="3.76876">
        <ele>692</ele>
        <time>2011-05-18T18:00:28Z</time>
      </trkpt>
      <trkpt lat="46.117" lon="3.76831">
        <ele>689</ele>
        <time>2011-05-18T18:00:32Z</time>
      </trkpt>
      <trkpt lat="46.11703" lon="3.76805">
        <ele>687</ele>
        <time>2011-05-18T18:00:36Z</time>
      </trkpt>
      <trkpt lat="46.11702" lon="3.76761">
        <ele>683</ele>
        <time>2011-05-18T18:00:40Z</time>
      </trkpt>
      <trkpt lat="46.11702" lon="3.76747">
        <ele>680</ele>
        <time>2011-05-18T18:00:41Z</time>
      </trkpt>
      <trkpt lat="46.11697" lon="3.76707">
        <ele>677</ele>
        <time>2011-05-18T18:00:44Z</time>
      </trkpt>
      <trkpt lat="46.11698" lon="3.76678">
        <ele>676</ele>
        <time>2011-05-18T18:00:46Z</time>
      </trkpt>
      <trkpt lat="46.11707" lon="3.76595">
        <ele>674</ele>
        <time>2011-05-18T18:00:51Z</time>
      </trkpt>
      <trkpt lat="46.11713" lon="3.76528">
        <ele>672</ele>
        <time>2011-05-18T18:00:55Z</time>
      </trkpt>
      <trkpt lat="46.11716" lon="3.76492">
        <ele>672</ele>
        <time>2011-05-18T18:00:57Z</time>
      </trkpt>
      <trkpt lat="46.11724" lon="3.76457">
        <ele>671</ele>
        <time>2011-05-18T18:00:59Z</time>
      </trkpt>
      <trkpt lat="46.11747" lon="3.76407">
        <ele>672</ele>
        <time>2011-05-18T18:01:03Z</time>
      </trkpt>
      <trkpt lat="46.11786" lon="3.76378">
        <ele>671</ele>
        <time>2011-05-18T18:01:07Z</time>
      </trkpt>
      <trkpt lat="46.11813" lon="3.76351">
        <ele>670</ele>
        <time>2011-05-18T18:01:11Z</time>
      </trkpt>
      <trkpt lat="46.11819" lon="3.76335">
        <ele>670</ele>
        <time>2011-05-18T18:01:15Z</time>
      </trkpt>
      <trkpt lat="46.11821" lon="3.76322">
        <ele>669</ele>
        <time>2011-05-18T18:01:21Z</time>
      </trkpt>
      <trkpt lat="46.11824" lon="3.76319">
        <ele>669</ele>
        <time>2011-05-18T18:01:27Z</time>
      </trkpt>
      <trkpt lat="46.11824" lon="3.76325">
        <ele>669</ele>
        <time>2011-05-18T18:01:36Z</time>
      </trkpt>
      <trkpt lat="46.11824" lon="3.76326">
        <ele>668</ele>
        <time>2011-05-18T18:01:42Z</time>
      </trkpt>
      <trkpt lat="46.11822" lon="3.76337">
        <ele>667</ele>
        <time>2011-05-18T18:01:46Z</time>
      </trkpt>
      <trkpt lat="46.11831" lon="3.76365">
        <ele>665</ele>
        <time>2011-05-18T18:01:51Z</time>
      </trkpt>
      <trkpt lat="46.11839" lon="3.76376">
        <ele>662</ele>
        <time>2011-05-18T18:01:53Z</time>
      </trkpt>
      <trkpt lat="46.11856" lon="3.76388">
        <ele>660</ele>
        <time>2011-05-18T18:01:55Z</time>
      </trkpt>
      <trkpt lat="46.11879" lon="3.764">
        <ele>659</ele>
        <time>2011-05-18T18:01:57Z</time>
      </trkpt>
      <trkpt lat="46.11899" lon="3.76409">
        <ele>659</ele>
        <time>2011-05-18T18:01:59Z</time>
      </trkpt>
      <trkpt lat="46.11935" lon="3.76445">
        <ele>658</ele>
        <time>2011-05-18T18:02:04Z</time>
      </trkpt>
      <trkpt lat="46.11939" lon="3.76453">
        <ele>656</ele>
        <time>2011-05-18T18:02:05Z</time>
      </trkpt>
      <trkpt lat="46.11943" lon="3.76492">
        <ele>651</ele>
        <time>2011-05-18T18:02:10Z</time>
      </trkpt>
      <trkpt lat="46.11951" lon="3.76518">
        <ele>651</ele>
        <time>2011-05-18T18:02:14Z</time>
      </trkpt>
      <trkpt lat="46.11975" lon="3.76567">
        <ele>653</ele>
        <time>2011-05-18T18:02:20Z</time>
      </trkpt>
      <trkpt lat="46.11985" lon="3.76584">
        <ele>654</ele>
        <time>2011-05-18T18:02:24Z</time>
      </trkpt>
      <trkpt lat="46.11996" lon="3.76586">
        <ele>654</ele>
        <time>2011-05-18T18:02:31Z</time>
      </trkpt>
      <trkpt lat="46.11996" lon="3.76591">
        <ele>652</ele>
        <time>2011-05-18T18:02:43Z</time>
      </trkpt>
      <trkpt lat="46.12006" lon="3.76604">
        <ele>648</ele>
        <time>2011-05-18T18:02:47Z</time>
      </trkpt>
      <trkpt lat="46.12011" lon="3.76606">
        <ele>646</ele>
        <time>2011-05-18T18:02:48Z</time>
      </trkpt>
      <trkpt lat="46.12052" lon="3.76628">
        <ele>640</ele>
        <time>2011-05-18T18:02:53Z</time>
      </trkpt>
      <trkpt lat="46.12061" lon="3.76643">
        <ele>637</ele>
        <time>2011-05-18T18:02:56Z</time>
      </trkpt>
      <trkpt lat="46.1207" lon="3.76675">
        <ele>632</ele>
        <time>2011-05-18T18:03:00Z</time>
      </trkpt>
      <trkpt lat="46.12077" lon="3.76707">
        <ele>628</ele>
        <time>2011-05-18T18:03:03Z</time>
      </trkpt>
      <trkpt lat="46.12088" lon="3.76734">
        <ele>626</ele>
        <time>2011-05-18T18:03:05Z</time>
      </trkpt>
      <trkpt lat="46.1209" lon="3.76741">
        <ele>625</ele>
        <time>2011-05-18T18:03:06Z</time>
      </trkpt>
      <trkpt lat="46.12101" lon="3.76763">
        <ele>621</ele>
        <time>2011-05-18T18:03:10Z</time>
      </trkpt>
      <trkpt lat="46.12103" lon="3.76767">
        <ele>621</ele>
        <time>2011-05-18T18:03:11Z</time>
      </trkpt>
      <trkpt lat="46.12105" lon="3.76769">
        <ele>620</ele>
        <time>2011-05-18T18:03:12Z</time>
      </trkpt>
      <trkpt lat="46.12113" lon="3.76767">
        <ele>618</ele>
        <time>2011-05-18T18:03:19Z</time>
      </trkpt>
      <trkpt lat="46.12125" lon="3.76762">
        <ele>617</ele>
        <time>2011-05-18T18:03:28Z</time>
      </trkpt>
      <trkpt lat="46.1213" lon="3.76756">
        <ele>616</ele>
        <time>2011-05-18T18:03:31Z</time>
      </trkpt>
      <trkpt lat="46.12128" lon="3.76743">
        <ele>612</ele>
        <time>2011-05-18T18:03:35Z</time>
      </trkpt>
      <trkpt lat="46.12128" lon="3.7673">
        <ele>611</ele>
        <time>2011-05-18T18:03:41Z</time>
      </trkpt>
      <trkpt lat="46.12136" lon="3.76727">
        <ele>610</ele>
        <time>2011-05-18T18:03:47Z</time>
      </trkpt>
      <trkpt lat="46.1215" lon="3.76729">
        <ele>607</ele>
        <time>2011-05-18T18:03:52Z</time>
      </trkpt>
      <trkpt lat="46.12157" lon="3.76729">
        <ele>605</ele>
        <time>2011-05-18T18:03:55Z</time>
      </trkpt>
      <trkpt lat="46.12171" lon="3.76718">
        <ele>599</ele>
        <time>2011-05-18T18:04:02Z</time>
      </trkpt>
      <trkpt lat="46.12178" lon="3.76719">
        <ele>600</ele>
        <time>2011-05-18T18:04:13Z</time>
      </trkpt>
      <trkpt lat="46.12179" lon="3.76719">
        <ele>600</ele>
        <time>2011-05-18T18:04:21Z</time>
      </trkpt>
      <trkpt lat="46.12181" lon="3.76724">
        <ele>600</ele>
        <time>2011-05-18T18:04:31Z</time>
      </trkpt>
      <trkpt lat="46.12189" lon="3.76728">
        <ele>600</ele>
        <time>2011-05-18T18:04:38Z</time>
      </trkpt>
      <trkpt lat="46.12189" lon="3.76728">
        <ele>600</ele>
        <time>2011-05-18T18:05:04Z</time>
      </trkpt>
      <trkpt lat="46.12182" lon="3.76731">
        <ele>602</ele>
        <time>2011-05-18T18:06:25Z</time>
      </trkpt>
      <trkpt lat="46.12177" lon="3.76735">
        <ele>602</ele>
        <time>2011-05-18T18:06:56Z</time>
      </trkpt>
      <trkpt lat="46.12176" lon="3.76735">
        <ele>602</ele>
        <time>2011-05-18T18:07:10Z</time>
      </trkpt>
      <trkpt lat="46.12176" lon="3.76738">
        <ele>603</ele>
        <time>2011-05-18T18:08:21Z</time>
      </trkpt>
      <trkpt lat="46.12179" lon="3.76732">
        <ele>602</ele>
        <time>2011-05-18T18:08:50Z</time>
      </trkpt>
      <trkpt lat="46.12182" lon="3.76728">
        <ele>604</ele>
        <time>2011-05-18T18:09:50Z</time>
      </trkpt>
      <trkpt lat="46.12185" lon="3.76724">
        <ele>604</ele>
        <time>2011-05-18T18:09:57Z</time>
      </trkpt>
      <trkpt lat="46.12191" lon="3.7672">
        <ele>605</ele>
        <time>2011-05-18T18:10:32Z</time>
      </trkpt>
      <trkpt lat="46.12193" lon="3.76689">
        <ele>605</ele>
        <time>2011-05-18T18:10:37Z</time>
      </trkpt>
      <trkpt lat="46.12203" lon="3.76649">
        <ele>605</ele>
        <time>2011-05-18T18:10:42Z</time>
      </trkpt>
      <trkpt lat="46.12203" lon="3.76644">
        <ele>604</ele>
        <time>2011-05-18T18:10:43Z</time>
      </trkpt>
      <trkpt lat="46.12206" lon="3.76618">
        <ele>604</ele>
        <time>2011-05-18T18:10:48Z</time>
      </trkpt>
      <trkpt lat="46.12214" lon="3.76588">
        <ele>603</ele>
        <time>2011-05-18T18:10:52Z</time>
      </trkpt>
      <trkpt lat="46.12218" lon="3.76582">
        <ele>603</ele>
        <time>2011-05-18T18:10:53Z</time>
      </trkpt>
      <trkpt lat="46.12232" lon="3.76558">
        <ele>603</ele>
        <time>2011-05-18T18:10:57Z</time>
      </trkpt>
      <trkpt lat="46.12249" lon="3.76512">
        <ele>603</ele>
        <time>2011-05-18T18:11:03Z</time>
      </trkpt>
      <trkpt lat="46.12253" lon="3.76506">
        <ele>602</ele>
        <time>2011-05-18T18:11:04Z</time>
      </trkpt>
      <trkpt lat="46.12265" lon="3.76492">
        <ele>603</ele>
        <time>2011-05-18T18:11:06Z</time>
      </trkpt>
      <trkpt lat="46.1228" lon="3.76458">
        <ele>602</ele>
        <time>2011-05-18T18:11:10Z</time>
      </trkpt>
      <trkpt lat="46.12291" lon="3.76433">
        <ele>602</ele>
        <time>2011-05-18T18:11:13Z</time>
      </trkpt>
      <trkpt lat="46.12338" lon="3.76373">
        <ele>603</ele>
        <time>2011-05-18T18:11:19Z</time>
      </trkpt>
      <trkpt lat="46.12354" lon="3.76352">
        <ele>604</ele>
        <time>2011-05-18T18:11:21Z</time>
      </trkpt>
      <trkpt lat="46.12388" lon="3.76328">
        <ele>608</ele>
        <time>2011-05-18T18:11:25Z</time>
      </trkpt>
      <trkpt lat="46.12412" lon="3.76323">
        <ele>612</ele>
        <time>2011-05-18T18:11:28Z</time>
      </trkpt>
      <trkpt lat="46.12442" lon="3.7632">
        <ele>618</ele>
        <time>2011-05-18T18:11:32Z</time>
      </trkpt>
      <trkpt lat="46.12491" lon="3.76311">
        <ele>621</ele>
        <time>2011-05-18T18:11:38Z</time>
      </trkpt>
      <trkpt lat="46.12514" lon="3.76305">
        <ele>623</ele>
        <time>2011-05-18T18:11:41Z</time>
      </trkpt>
      <trkpt lat="46.12549" lon="3.76303">
        <ele>625</ele>
        <time>2011-05-18T18:11:44Z</time>
      </trkpt>
      <trkpt lat="46.1257" lon="3.76297">
        <ele>625</ele>
        <time>2011-05-18T18:11:46Z</time>
      </trkpt>
      <trkpt lat="46.12591" lon="3.76291">
        <ele>627</ele>
        <time>2011-05-18T18:11:48Z</time>
      </trkpt>
      <trkpt lat="46.12632" lon="3.76288">
        <ele>633</ele>
        <time>2011-05-18T18:11:52Z</time>
      </trkpt>
      <trkpt lat="46.12649" lon="3.76287">
        <ele>637</ele>
        <time>2011-05-18T18:11:54Z</time>
      </trkpt>
      <trkpt lat="46.12706" lon="3.76271">
        <ele>638</ele>
        <time>2011-05-18T18:12:00Z</time>
      </trkpt>
      <trkpt lat="46.12748" lon="3.76263">
        <ele>641</ele>
        <time>2011-05-18T18:12:04Z</time>
      </trkpt>
      <trkpt lat="46.12806" lon="3.76272">
        <ele>643</ele>
        <time>2011-05-18T18:12:10Z</time>
      </trkpt>
      <trkpt lat="46.12842" lon="3.76266">
        <ele>642</ele>
        <time>2011-05-18T18:12:15Z</time>
      </trkpt>
      <trkpt lat="46.12846" lon="3.76266">
        <ele>641</ele>
        <time>2011-05-18T18:12:16Z</time>
      </trkpt>
      <trkpt lat="46.12864" lon="3.76268">
        <ele>637</ele>
        <time>2011-05-18T18:12:19Z</time>
      </trkpt>
      <trkpt lat="46.12893" lon="3.76288">
        <ele>636</ele>
        <time>2011-05-18T18:12:23Z</time>
      </trkpt>
      <trkpt lat="46.12908" lon="3.763">
        <ele>637</ele>
        <time>2011-05-18T18:12:25Z</time>
      </trkpt>
      <trkpt lat="46.12936" lon="3.76338">
        <ele>635</ele>
        <time>2011-05-18T18:12:30Z</time>
      </trkpt>
      <trkpt lat="46.12958" lon="3.76358">
        <ele>634</ele>
        <time>2011-05-18T18:12:33Z</time>
      </trkpt>
      <trkpt lat="46.12989" lon="3.76387">
        <ele>632</ele>
        <time>2011-05-18T18:12:37Z</time>
      </trkpt>
      <trkpt lat="46.13025" lon="3.76437">
        <ele>634</ele>
        <time>2011-05-18T18:12:42Z</time>
      </trkpt>
      <trkpt lat="46.13048" lon="3.7648">
        <ele>630</ele>
        <time>2011-05-18T18:12:47Z</time>
      </trkpt>
      <trkpt lat="46.1306" lon="3.76496">
        <ele>628</ele>
        <time>2011-05-18T18:12:49Z</time>
      </trkpt>
      <trkpt lat="46.13093" lon="3.76528">
        <ele>625</ele>
        <time>2011-05-18T18:12:54Z</time>
      </trkpt>
      <trkpt lat="46.13112" lon="3.76565">
        <ele>623</ele>
        <time>2011-05-18T18:12:59Z</time>
      </trkpt>
      <trkpt lat="46.13116" lon="3.76574">
        <ele>623</ele>
        <time>2011-05-18T18:13:00Z</time>
      </trkpt>
      <trkpt lat="46.13121" lon="3.76583">
        <ele>623</ele>
        <time>2011-05-18T18:13:01Z</time>
      </trkpt>
      <trkpt lat="46.13138" lon="3.76598">
        <ele>623</ele>
        <time>2011-05-18T18:13:05Z</time>
      </trkpt>
      <trkpt lat="46.13149" lon="3.76592">
        <ele>623</ele>
        <time>2011-05-18T18:13:07Z</time>
      </trkpt>
      <trkpt lat="46.13195" lon="3.7655">
        <ele>625</ele>
        <time>2011-05-18T18:13:14Z</time>
      </trkpt>
      <trkpt lat="46.13208" lon="3.76541">
        <ele>627</ele>
        <time>2011-05-18T18:13:16Z</time>
      </trkpt>
      <trkpt lat="46.13216" lon="3.76519">
        <ele>629</ele>
        <time>2011-05-18T18:13:21Z</time>
      </trkpt>
      <trkpt lat="46.13216" lon="3.76504">
        <ele>631</ele>
        <time>2011-05-18T18:13:23Z</time>
      </trkpt>
      <trkpt lat="46.13215" lon="3.76463">
        <ele>635</ele>
        <time>2011-05-18T18:13:27Z</time>
      </trkpt>
      <trkpt lat="46.13216" lon="3.76452">
        <ele>636</ele>
        <time>2011-05-18T18:13:28Z</time>
      </trkpt>
      <trkpt lat="46.13214" lon="3.76434">
        <ele>639</ele>
        <time>2011-05-18T18:13:30Z</time>
      </trkpt>
      <trkpt lat="46.13213" lon="3.76419">
        <ele>640</ele>
        <time>2011-05-18T18:13:32Z</time>
      </trkpt>
      <trkpt lat="46.13203" lon="3.76396">
        <ele>640</ele>
        <time>2011-05-18T18:13:36Z</time>
      </trkpt>
      <trkpt lat="46.13196" lon="3.76386">
        <ele>641</ele>
        <time>2011-05-18T18:13:38Z</time>
      </trkpt>
      <trkpt lat="46.13192" lon="3.76356">
        <ele>641</ele>
        <time>2011-05-18T18:13:42Z</time>
      </trkpt>
      <trkpt lat="46.13205" lon="3.76326">
        <ele>641</ele>
        <time>2011-05-18T18:13:47Z</time>
      </trkpt>
      <trkpt lat="46.13214" lon="3.76321">
        <ele>642</ele>
        <time>2011-05-18T18:13:49Z</time>
      </trkpt>
      <trkpt lat="46.13237" lon="3.7632">
        <ele>640</ele>
        <time>2011-05-18T18:13:53Z</time>
      </trkpt>
      <trkpt lat="46.13255" lon="3.76322">
        <ele>639</ele>
        <time>2011-05-18T18:13:55Z</time>
      </trkpt>
      <trkpt lat="46.13319" lon="3.76331">
        <ele>637</ele>
        <time>2011-05-18T18:14:01Z</time>
      </trkpt>
      <trkpt lat="46.13375" lon="3.76337">
        <ele>640</ele>
        <time>2011-05-18T18:14:06Z</time>
      </trkpt>
      <trkpt lat="46.13427" lon="3.76326">
        <ele>642</ele>
        <time>2011-05-18T18:14:11Z</time>
      </trkpt>
      <trkpt lat="46.13492" lon="3.76313">
        <ele>643</ele>
        <time>2011-05-18T18:14:16Z</time>
      </trkpt>
      <trkpt lat="46.13559" lon="3.76271">
        <ele>641</ele>
        <time>2011-05-18T18:14:20Z</time>
      </trkpt>
      <trkpt lat="46.13592" lon="3.76243">
        <ele>643</ele>
        <time>2011-05-18T18:14:22Z</time>
      </trkpt>
      <trkpt lat="46.13679" lon="3.76178">
        <ele>641</ele>
        <time>2011-05-18T18:14:27Z</time>
      </trkpt>
      <trkpt lat="46.13742" lon="3.76125">
        <ele>645</ele>
        <time>2011-05-18T18:14:31Z</time>
      </trkpt>
      <trkpt lat="46.13758" lon="3.76114">
        <ele>645</ele>
        <time>2011-05-18T18:14:32Z</time>
      </trkpt>
      <trkpt lat="46.13802" lon="3.76084">
        <ele>647</ele>
        <time>2011-05-18T18:14:35Z</time>
      </trkpt>
      <trkpt lat="46.13875" lon="3.76012">
        <ele>651</ele>
        <time>2011-05-18T18:14:41Z</time>
      </trkpt>
      <trkpt lat="46.13903" lon="3.7598">
        <ele>654</ele>
        <time>2011-05-18T18:14:45Z</time>
      </trkpt>
      <trkpt lat="46.13916" lon="3.75966">
        <ele>656</ele>
        <time>2011-05-18T18:14:49Z</time>
      </trkpt>
      <trkpt lat="46.13926" lon="3.75965">
        <ele>656</ele>
        <time>2011-05-18T18:14:53Z</time>
      </trkpt>
      <trkpt lat="46.13954" lon="3.75946">
        <ele>656</ele>
        <time>2011-05-18T18:14:58Z</time>
      </trkpt>
      <trkpt lat="46.13993" lon="3.7589">
        <ele>655</ele>
        <time>2011-05-18T18:15:03Z</time>
      </trkpt>
      <trkpt lat="46.14031" lon="3.75827">
        <ele>655</ele>
        <time>2011-05-18T18:15:07Z</time>
      </trkpt>
      <trkpt lat="46.14086" lon="3.75746">
        <ele>652</ele>
        <time>2011-05-18T18:15:11Z</time>
      </trkpt>
      <trkpt lat="46.1411" lon="3.75709">
        <ele>656</ele>
        <time>2011-05-18T18:15:13Z</time>
      </trkpt>
      <trkpt lat="46.14122" lon="3.75694">
        <ele>655</ele>
        <time>2011-05-18T18:15:14Z</time>
      </trkpt>
      <trkpt lat="46.14179" lon="3.75625">
        <ele>654</ele>
        <time>2011-05-18T18:15:19Z</time>
      </trkpt>
      <trkpt lat="46.14224" lon="3.75586">
        <ele>652</ele>
        <time>2011-05-18T18:15:23Z</time>
      </trkpt>
      <trkpt lat="46.14274" lon="3.75578">
        <ele>649</ele>
        <time>2011-05-18T18:15:27Z</time>
      </trkpt>
      <trkpt lat="46.143" lon="3.75582">
        <ele>651</ele>
        <time>2011-05-18T18:15:30Z</time>
      </trkpt>
      <trkpt lat="46.14308" lon="3.75582">
        <ele>652</ele>
        <time>2011-05-18T18:15:32Z</time>
      </trkpt>
      <trkpt lat="46.1431" lon="3.75568">
        <ele>654</ele>
        <time>2011-05-18T18:15:36Z</time>
      </trkpt>
      <trkpt lat="46.14309" lon="3.75561">
        <ele>654</ele>
        <time>2011-05-18T18:15:37Z</time>
      </trkpt>
      <trkpt lat="46.14308" lon="3.75552">
        <ele>654</ele>
        <time>2011-05-18T18:15:38Z</time>
      </trkpt>
      <trkpt lat="46.14299" lon="3.75505">
        <ele>661</ele>
        <time>2011-05-18T18:15:42Z</time>
      </trkpt>
      <trkpt lat="46.14297" lon="3.75494">
        <ele>663</ele>
        <time>2011-05-18T18:15:43Z</time>
      </trkpt>
      <trkpt lat="46.1431" lon="3.75467">
        <ele>667</ele>
        <time>2011-05-18T18:15:47Z</time>
      </trkpt>
      <trkpt lat="46.14332" lon="3.75448">
        <ele>670</ele>
        <time>2011-05-18T18:15:50Z</time>
      </trkpt>
      <trkpt lat="46.1435" lon="3.75437">
        <ele>672</ele>
        <time>2011-05-18T18:15:53Z</time>
      </trkpt>
      <trkpt lat="46.14372" lon="3.75438">
        <ele>671</ele>
        <time>2011-05-18T18:15:55Z</time>
      </trkpt>
      <trkpt lat="46.14405" lon="3.7544">
        <ele>673</ele>
        <time>2011-05-18T18:15:58Z</time>
      </trkpt>
      <trkpt lat="46.14434" lon="3.7541">
        <ele>675</ele>
        <time>2011-05-18T18:16:03Z</time>
      </trkpt>
      <trkpt lat="46.14438" lon="3.75398">
        <ele>677</ele>
        <time>2011-05-18T18:16:04Z</time>
      </trkpt>
      <trkpt lat="46.14477" lon="3.7535">
        <ele>680</ele>
        <time>2011-05-18T18:16:09Z</time>
      </trkpt>
      <trkpt lat="46.14521" lon="3.75316">
        <ele>681</ele>
        <time>2011-05-18T18:16:13Z</time>
      </trkpt>
      <trkpt lat="46.14536" lon="3.75303">
        <ele>682</ele>
        <time>2011-05-18T18:16:15Z</time>
      </trkpt>
      <trkpt lat="46.14545" lon="3.75281">
        <ele>685</ele>
        <time>2011-05-18T18:16:19Z</time>
      </trkpt>
      <trkpt lat="46.14543" lon="3.75274">
        <ele>686</ele>
        <time>2011-05-18T18:16:20Z</time>
      </trkpt>
      <trkpt lat="46.14535" lon="3.75229">
        <ele>690</ele>
        <time>2011-05-18T18:16:24Z</time>
      </trkpt>
      <trkpt lat="46.14529" lon="3.75195">
        <ele>693</ele>
        <time>2011-05-18T18:16:27Z</time>
      </trkpt>
      <trkpt lat="46.14528" lon="3.75162">
        <ele>695</ele>
        <time>2011-05-18T18:16:31Z</time>
      </trkpt>
      <trkpt lat="46.1454" lon="3.75123">
        <ele>700</ele>
        <time>2011-05-18T18:16:36Z</time>
      </trkpt>
      <trkpt lat="46.14558" lon="3.75092">
        <ele>704</ele>
        <time>2011-05-18T18:16:40Z</time>
      </trkpt>
      <trkpt lat="46.14583" lon="3.7508">
        <ele>704</ele>
        <time>2011-05-18T18:16:43Z</time>
      </trkpt>
      <trkpt lat="46.14639" lon="3.75064">
        <ele>703</ele>
        <time>2011-05-18T18:16:48Z</time>
      </trkpt>
      <trkpt lat="46.14664" lon="3.7505">
        <ele>705</ele>
        <time>2011-05-18T18:16:52Z</time>
      </trkpt>
      <trkpt lat="46.14671" lon="3.75045">
        <ele>705</ele>
        <time>2011-05-18T18:16:53Z</time>
      </trkpt>
      <trkpt lat="46.14702" lon="3.75013">
        <ele>706</ele>
        <time>2011-05-18T18:16:57Z</time>
      </trkpt>
      <trkpt lat="46.14754" lon="3.74936">
        <ele>704</ele>
        <time>2011-05-18T18:17:04Z</time>
      </trkpt>
      <trkpt lat="46.14792" lon="3.74879">
        <ele>704</ele>
        <time>2011-05-18T18:17:10Z</time>
      </trkpt>
      <trkpt lat="46.1481" lon="3.74847">
        <ele>703</ele>
        <time>2011-05-18T18:17:13Z</time>
      </trkpt>
      <trkpt lat="46.14834" lon="3.748">
        <ele>700</ele>
        <time>2011-05-18T18:17:17Z</time>
      </trkpt>
      <trkpt lat="46.14846" lon="3.74773">
        <ele>699</ele>
        <time>2011-05-18T18:17:19Z</time>
      </trkpt>
      <trkpt lat="46.14865" lon="3.7473">
        <ele>697</ele>
        <time>2011-05-18T18:17:23Z</time>
      </trkpt>
      <trkpt lat="46.14872" lon="3.74711">
        <ele>696</ele>
        <time>2011-05-18T18:17:25Z</time>
      </trkpt>
      <trkpt lat="46.14887" lon="3.74669">
        <ele>699</ele>
        <time>2011-05-18T18:17:29Z</time>
      </trkpt>
      <trkpt lat="46.14912" lon="3.74627">
        <ele>699</ele>
        <time>2011-05-18T18:17:34Z</time>
      </trkpt>
      <trkpt lat="46.14916" lon="3.74611">
        <ele>699</ele>
        <time>2011-05-18T18:17:36Z</time>
      </trkpt>
      <trkpt lat="46.14926" lon="3.74577">
        <ele>696</ele>
        <time>2011-05-18T18:17:40Z</time>
      </trkpt>
      <trkpt lat="46.1493" lon="3.74568">
        <ele>695</ele>
        <time>2011-05-18T18:17:41Z</time>
      </trkpt>
      <trkpt lat="46.14945" lon="3.74535">
        <ele>691</ele>
        <time>2011-05-18T18:17:45Z</time>
      </trkpt>
      <trkpt lat="46.14954" lon="3.74518">
        <ele>688</ele>
        <time>2011-05-18T18:17:47Z</time>
      </trkpt>
      <trkpt lat="46.14958" lon="3.74474">
        <ele>684</ele>
        <time>2011-05-18T18:17:52Z</time>
      </trkpt>
      <trkpt lat="46.14978" lon="3.74455">
        <ele>681</ele>
        <time>2011-05-18T18:17:57Z</time>
      </trkpt>
      <trkpt lat="46.14985" lon="3.74445">
        <ele>679</ele>
        <time>2011-05-18T18:17:59Z</time>
      </trkpt>
      <trkpt lat="46.14992" lon="3.74428">
        <ele>676</ele>
        <time>2011-05-18T18:18:02Z</time>
      </trkpt>
      <trkpt lat="46.15003" lon="3.7441">
        <ele>672</ele>
        <time>2011-05-18T18:18:05Z</time>
      </trkpt>
      <trkpt lat="46.15007" lon="3.74402">
        <ele>671</ele>
        <time>2011-05-18T18:18:06Z</time>
      </trkpt>
      <trkpt lat="46.15019" lon="3.7437">
        <ele>666</ele>
        <time>2011-05-18T18:18:09Z</time>
      </trkpt>
      <trkpt lat="46.15031" lon="3.74321">
        <ele>663</ele>
        <time>2011-05-18T18:18:12Z</time>
      </trkpt>
      <trkpt lat="46.1505" lon="3.7428">
        <ele>660</ele>
        <time>2011-05-18T18:18:16Z</time>
      </trkpt>
      <trkpt lat="46.15056" lon="3.74275">
        <ele>659</ele>
        <time>2011-05-18T18:18:17Z</time>
      </trkpt>
      <trkpt lat="46.15073" lon="3.74253">
        <ele>658</ele>
        <time>2011-05-18T18:18:21Z</time>
      </trkpt>
      <trkpt lat="46.15083" lon="3.74237">
        <ele>657</ele>
        <time>2011-05-18T18:18:26Z</time>
      </trkpt>
      <trkpt lat="46.1508" lon="3.74229">
        <ele>657</ele>
        <time>2011-05-18T18:18:35Z</time>
      </trkpt>
      <trkpt lat="46.15078" lon="3.74227">
        <ele>658</ele>
        <time>2011-05-18T18:18:42Z</time>
      </trkpt>
      <trkpt lat="46.1508" lon="3.74219">
        <ele>656</ele>
        <time>2011-05-18T18:18:45Z</time>
      </trkpt>
      <trkpt lat="46.15082" lon="3.74212">
        <ele>655</ele>
        <time>2011-05-18T18:18:47Z</time>
      </trkpt>
      <trkpt lat="46.15084" lon="3.74211">
        <ele>655</ele>
        <time>2011-05-18T18:18:53Z</time>
      </trkpt>
      <trkpt lat="46.15088" lon="3.74215">
        <ele>655</ele>
        <time>2011-05-18T18:19:10Z</time>
      </trkpt>
      <trkpt lat="46.15088" lon="3.74217">
        <ele>655</ele>
        <time>2011-05-18T18:19:20Z</time>
      </trkpt>
      <trkpt lat="46.15102" lon="3.74232">
        <ele>657</ele>
        <time>2011-05-18T18:19:25Z</time>
      </trkpt>
      <trkpt lat="46.15106" lon="3.74237">
        <ele>658</ele>
        <time>2011-05-18T18:19:26Z</time>
      </trkpt>
      <trkpt lat="46.15116" lon="3.74246">
        <ele>659</ele>
        <time>2011-05-18T18:19:28Z</time>
      </trkpt>
      <trkpt lat="46.15144" lon="3.74253">
        <ele>659</ele>
        <time>2011-05-18T18:19:32Z</time>
      </trkpt>
      <trkpt lat="46.15152" lon="3.74257">
        <ele>659</ele>
        <time>2011-05-18T18:19:33Z</time>
      </trkpt>
      <trkpt lat="46.15171" lon="3.74265">
        <ele>658</ele>
        <time>2011-05-18T18:19:35Z</time>
      </trkpt>
      <trkpt lat="46.15201" lon="3.74272">
        <ele>656</ele>
        <time>2011-05-18T18:19:40Z</time>
      </trkpt>
      <trkpt lat="46.1521" lon="3.74271">
        <ele>657</ele>
        <time>2011-05-18T18:19:44Z</time>
      </trkpt>
      <trkpt lat="46.1521" lon="3.74271">
        <ele>656</ele>
        <time>2011-05-18T18:19:47Z</time>
      </trkpt>
      <trkpt lat="46.15214" lon="3.74265">
        <ele>655</ele>
        <time>2011-05-18T18:19:51Z</time>
      </trkpt>
      <trkpt lat="46.15216" lon="3.74263">
        <ele>654</ele>
        <time>2011-05-18T18:19:52Z</time>
      </trkpt>
      <trkpt lat="46.15218" lon="3.74258">
        <ele>654</ele>
        <time>2011-05-18T18:19:54Z</time>
      </trkpt>
      <trkpt lat="46.15214" lon="3.74229">
        <ele>653</ele>
        <time>2011-05-18T18:20:00Z</time>
      </trkpt>
      <trkpt lat="46.15214" lon="3.74216">
        <ele>651</ele>
        <time>2011-05-18T18:20:03Z</time>
      </trkpt>
      <trkpt lat="46.15217" lon="3.74207">
        <ele>650</ele>
        <time>2011-05-18T18:20:05Z</time>
      </trkpt>
      <trkpt lat="46.15227" lon="3.7419">
        <ele>647</ele>
        <time>2011-05-18T18:20:09Z</time>
      </trkpt>
      <trkpt lat="46.15234" lon="3.7417">
        <ele>643</ele>
        <time>2011-05-18T18:20:14Z</time>
      </trkpt>
      <trkpt lat="46.15239" lon="3.74164">
        <ele>642</ele>
        <time>2011-05-18T18:20:16Z</time>
      </trkpt>
      <trkpt lat="46.15251" lon="3.74153">
        <ele>639</ele>
        <time>2011-05-18T18:20:20Z</time>
      </trkpt>
      <trkpt lat="46.15258" lon="3.74143">
        <ele>636</ele>
        <time>2011-05-18T18:20:24Z</time>
      </trkpt>
      <trkpt lat="46.15269" lon="3.74131">
        <ele>632</ele>
        <time>2011-05-18T18:20:27Z</time>
      </trkpt>
      <trkpt lat="46.15277" lon="3.74119">
        <ele>627</ele>
        <time>2011-05-18T18:20:30Z</time>
      </trkpt>
      <trkpt lat="46.15278" lon="3.74115">
        <ele>626</ele>
        <time>2011-05-18T18:20:31Z</time>
      </trkpt>
      <trkpt lat="46.15278" lon="3.74094">
        <ele>621</ele>
        <time>2011-05-18T18:20:36Z</time>
      </trkpt>
      <trkpt lat="46.15276" lon="3.74079">
        <ele>617</ele>
        <time>2011-05-18T18:20:38Z</time>
      </trkpt>
      <trkpt lat="46.15279" lon="3.74058">
        <ele>611</ele>
        <time>2011-05-18T18:20:41Z</time>
      </trkpt>
      <trkpt lat="46.15283" lon="3.7404">
        <ele>605</ele>
        <time>2011-05-18T18:20:44Z</time>
      </trkpt>
      <trkpt lat="46.15288" lon="3.74026">
        <ele>601</ele>
        <time>2011-05-18T18:20:46Z</time>
      </trkpt>
      <trkpt lat="46.15294" lon="3.74008">
        <ele>598</ele>
        <time>2011-05-18T18:20:49Z</time>
      </trkpt>
      <trkpt lat="46.15299" lon="3.73997">
        <ele>594</ele>
        <time>2011-05-18T18:20:51Z</time>
      </trkpt>
      <trkpt lat="46.15304" lon="3.73988">
        <ele>594</ele>
        <time>2011-05-18T18:20:53Z</time>
      </trkpt>
      <trkpt lat="46.15316" lon="3.73977">
        <ele>586</ele>
        <time>2011-05-18T18:20:56Z</time>
      </trkpt>
      <trkpt lat="46.15327" lon="3.73959">
        <ele>582</ele>
        <time>2011-05-18T18:20:59Z</time>
      </trkpt>
      <trkpt lat="46.15337" lon="3.73942">
        <ele>581</ele>
        <time>2011-05-18T18:21:01Z</time>
      </trkpt>
      <trkpt lat="46.15351" lon="3.7392">
        <ele>579</ele>
        <time>2011-05-18T18:21:04Z</time>
      </trkpt>
      <trkpt lat="46.15365" lon="3.73888">
        <ele>578</ele>
        <time>2011-05-18T18:21:07Z</time>
      </trkpt>
      <trkpt lat="46.15377" lon="3.73865">
        <ele>577</ele>
        <time>2011-05-18T18:21:12Z</time>
      </trkpt>
      <trkpt lat="46.15385" lon="3.73856">
        <ele>577</ele>
        <time>2011-05-18T18:21:22Z</time>
      </trkpt>
      <trkpt lat="46.15384" lon="3.73883">
        <ele>576</ele>
        <time>2011-05-18T18:21:27Z</time>
      </trkpt>
      <trkpt lat="46.15385" lon="3.73929">
        <ele>572</ele>
        <time>2011-05-18T18:21:31Z</time>
      </trkpt>
      <trkpt lat="46.15387" lon="3.73946">
        <ele>570</ele>
        <time>2011-05-18T18:21:33Z</time>
      </trkpt>
      <trkpt lat="46.15414" lon="3.73967">
        <ele>567</ele>
        <time>2011-05-18T18:21:37Z</time>
      </trkpt>
      <trkpt lat="46.15436" lon="3.7398">
        <ele>563</ele>
        <time>2011-05-18T18:21:40Z</time>
      </trkpt>
      <trkpt lat="46.15442" lon="3.73984">
        <ele>563</ele>
        <time>2011-05-18T18:21:41Z</time>
      </trkpt>
      <trkpt lat="46.15452" lon="3.73998">
        <ele>561</ele>
        <time>2011-05-18T18:21:43Z</time>
      </trkpt>
      <trkpt lat="46.15459" lon="3.74016">
        <ele>561</ele>
        <time>2011-05-18T18:21:45Z</time>
      </trkpt>
      <trkpt lat="46.15469" lon="3.74035">
        <ele>561</ele>
        <time>2011-05-18T18:21:47Z</time>
      </trkpt>
      <trkpt lat="46.15476" lon="3.74094">
        <ele>560</ele>
        <time>2011-05-18T18:21:52Z</time>
      </trkpt>
      <trkpt lat="46.15477" lon="3.74117">
        <ele>559</ele>
        <time>2011-05-18T18:21:55Z</time>
      </trkpt>
      <trkpt lat="46.15455" lon="3.7416">
        <ele>558</ele>
        <time>2011-05-18T18:22:00Z</time>
      </trkpt>
      <trkpt lat="46.15465" lon="3.74193">
        <ele>555</ele>
        <time>2011-05-18T18:22:04Z</time>
      </trkpt>
      <trkpt lat="46.15495" lon="3.74209">
        <ele>555</ele>
        <time>2011-05-18T18:22:08Z</time>
      </trkpt>
      <trkpt lat="46.15522" lon="3.74221">
        <ele>553</ele>
        <time>2011-05-18T18:22:14Z</time>
      </trkpt>
      <trkpt lat="46.15536" lon="3.74239">
        <ele>554</ele>
        <time>2011-05-18T18:22:18Z</time>
      </trkpt>
      <trkpt lat="46.15542" lon="3.74244">
        <ele>554</ele>
        <time>2011-05-18T18:22:19Z</time>
      </trkpt>
      <trkpt lat="46.15574" lon="3.74268">
        <ele>552</ele>
        <time>2011-05-18T18:22:24Z</time>
      </trkpt>
      <trkpt lat="46.15591" lon="3.74284">
        <ele>551</ele>
        <time>2011-05-18T18:22:29Z</time>
      </trkpt>
      <trkpt lat="46.15604" lon="3.7429">
        <ele>549</ele>
        <time>2011-05-18T18:22:33Z</time>
      </trkpt>
      <trkpt lat="46.15614" lon="3.74313">
        <ele>545</ele>
        <time>2011-05-18T18:22:38Z</time>
      </trkpt>
      <trkpt lat="46.15618" lon="3.74332">
        <ele>539</ele>
        <time>2011-05-18T18:22:42Z</time>
      </trkpt>
      <trkpt lat="46.15621" lon="3.74351">
        <ele>535</ele>
        <time>2011-05-18T18:22:45Z</time>
      </trkpt>
      <trkpt lat="46.15627" lon="3.74374">
        <ele>531</ele>
        <time>2011-05-18T18:22:49Z</time>
      </trkpt>
      <trkpt lat="46.15628" lon="3.7438">
        <ele>530</ele>
        <time>2011-05-18T18:22:50Z</time>
      </trkpt>
      <trkpt lat="46.15637" lon="3.74409">
        <ele>527</ele>
        <time>2011-05-18T18:22:55Z</time>
      </trkpt>
      <trkpt lat="46.15647" lon="3.74427">
        <ele>525</ele>
        <time>2011-05-18T18:22:59Z</time>
      </trkpt>
      <trkpt lat="46.15674" lon="3.74425">
        <ele>524</ele>
        <time>2011-05-18T18:23:04Z</time>
      </trkpt>
      <trkpt lat="46.1568" lon="3.7442">
        <ele>523</ele>
        <time>2011-05-18T18:23:05Z</time>
      </trkpt>
      <trkpt lat="46.15717" lon="3.74389">
        <ele>519</ele>
        <time>2011-05-18T18:23:10Z</time>
      </trkpt>
      <trkpt lat="46.15737" lon="3.74378">
        <ele>517</ele>
        <time>2011-05-18T18:23:13Z</time>
      </trkpt>
      <trkpt lat="46.15751" lon="3.74364">
        <ele>516</ele>
        <time>2011-05-18T18:23:16Z</time>
      </trkpt>
      <trkpt lat="46.15767" lon="3.7435">
        <ele>513</ele>
        <time>2011-05-18T18:23:20Z</time>
      </trkpt>
      <trkpt lat="46.15778" lon="3.74334">
        <ele>511</ele>
        <time>2011-05-18T18:23:23Z</time>
      </trkpt>
      <trkpt lat="46.158" lon="3.74303">
        <ele>507</ele>
        <time>2011-05-18T18:23:28Z</time>
      </trkpt>
      <trkpt lat="46.15802" lon="3.74296">
        <ele>507</ele>
        <time>2011-05-18T18:23:29Z</time>
      </trkpt>
      <trkpt lat="46.15815" lon="3.74274">
        <ele>503</ele>
        <time>2011-05-18T18:23:32Z</time>
      </trkpt>
      <trkpt lat="46.15844" lon="3.74241">
        <ele>498</ele>
        <time>2011-05-18T18:23:37Z</time>
      </trkpt>
      <trkpt lat="46.15859" lon="3.74219">
        <ele>495</ele>
        <time>2011-05-18T18:23:40Z</time>
      </trkpt>
      <trkpt lat="46.15873" lon="3.74161">
        <ele>493</ele>
        <time>2011-05-18T18:23:45Z</time>
      </trkpt>
      <trkpt lat="46.15891" lon="3.74108">
        <ele>490</ele>
        <time>2011-05-18T18:23:50Z</time>
      </trkpt>
      <trkpt lat="46.15915" lon="3.74058">
        <ele>486</ele>
        <time>2011-05-18T18:23:54Z</time>
      </trkpt>
      <trkpt lat="46.15936" lon="3.74003">
        <ele>482</ele>
        <time>2011-05-18T18:23:58Z</time>
      </trkpt>
      <trkpt lat="46.15952" lon="3.73966">
        <ele>478</ele>
        <time>2011-05-18T18:24:01Z</time>
      </trkpt>
      <trkpt lat="46.15957" lon="3.73954">
        <ele>478</ele>
        <time>2011-05-18T18:24:02Z</time>
      </trkpt>
      <trkpt lat="46.15971" lon="3.73927">
        <ele>473</ele>
        <time>2011-05-18T18:24:05Z</time>
      </trkpt>
      <trkpt lat="46.15979" lon="3.73908">
        <ele>472</ele>
        <time>2011-05-18T18:24:07Z</time>
      </trkpt>
      <trkpt lat="46.15983" lon="3.73898">
        <ele>471</ele>
        <time>2011-05-18T18:24:08Z</time>
      </trkpt>
      <trkpt lat="46.15996" lon="3.73868">
        <ele>468</ele>
        <time>2011-05-18T18:24:12Z</time>
      </trkpt>
      <trkpt lat="46.16009" lon="3.73832">
        <ele>463</ele>
        <time>2011-05-18T18:24:16Z</time>
      </trkpt>
      <trkpt lat="46.16017" lon="3.73818">
        <ele>460</ele>
        <time>2011-05-18T18:24:18Z</time>
      </trkpt>
      <trkpt lat="46.16026" lon="3.73806">
        <ele>457</ele>
        <time>2011-05-18T18:24:20Z</time>
      </trkpt>
      <trkpt lat="46.16027" lon="3.73755">
        <ele>452</ele>
        <time>2011-05-18T18:24:25Z</time>
      </trkpt>
      <trkpt lat="46.16022" lon="3.7373">
        <ele>449</ele>
        <time>2011-05-18T18:24:27Z</time>
      </trkpt>
      <trkpt lat="46.16011" lon="3.73673">
        <ele>445</ele>
        <time>2011-05-18T18:24:31Z</time>
      </trkpt>
      <trkpt lat="46.16007" lon="3.73605">
        <ele>442</ele>
        <time>2011-05-18T18:24:36Z</time>
      </trkpt>
      <trkpt lat="46.16006" lon="3.7358">
        <ele>440</ele>
        <time>2011-05-18T18:24:38Z</time>
      </trkpt>
      <trkpt lat="46.16005" lon="3.73522">
        <ele>437</ele>
        <time>2011-05-18T18:24:42Z</time>
      </trkpt>
      <trkpt lat="46.15997" lon="3.73462">
        <ele>432</ele>
        <time>2011-05-18T18:24:46Z</time>
      </trkpt>
      <trkpt lat="46.15987" lon="3.73415">
        <ele>430</ele>
        <time>2011-05-18T18:24:49Z</time>
      </trkpt>
      <trkpt lat="46.1598" lon="3.73358">
        <ele>427</ele>
        <time>2011-05-18T18:24:53Z</time>
      </trkpt>
      <trkpt lat="46.15978" lon="3.73344">
        <ele>426</ele>
        <time>2011-05-18T18:24:54Z</time>
      </trkpt>
      <trkpt lat="46.15984" lon="3.73314">
        <ele>425</ele>
        <time>2011-05-18T18:24:57Z</time>
      </trkpt>
      <trkpt lat="46.15987" lon="3.73303">
        <ele>425</ele>
        <time>2011-05-18T18:24:58Z</time>
      </trkpt>
      <trkpt lat="46.15981" lon="3.73273">
        <ele>423</ele>
        <time>2011-05-18T18:25:03Z</time>
      </trkpt>
      <trkpt lat="46.15975" lon="3.73264">
        <ele>422</ele>
        <time>2011-05-18T18:25:04Z</time>
      </trkpt>
      <trkpt lat="46.15932" lon="3.73203">
        <ele>420</ele>
        <time>2011-05-18T18:25:10Z</time>
      </trkpt>
      <trkpt lat="46.1588" lon="3.73156">
        <ele>419</ele>
        <time>2011-05-18T18:25:15Z</time>
      </trkpt>
      <trkpt lat="46.15804" lon="3.73087">
        <ele>422</ele>
        <time>2011-05-18T18:25:22Z</time>
      </trkpt>
      <trkpt lat="46.1579" lon="3.73075">
        <ele>422</ele>
        <time>2011-05-18T18:25:29Z</time>
      </trkpt>
      <trkpt lat="46.15782" lon="3.73067">
        <ele>422</ele>
        <time>2011-05-18T18:25:31Z</time>
      </trkpt>
    </trkseg>
  </trk>
</gpx>